[[{"header":{"parameterUnit":"m.s-1","parameterCategory":1,"la1":31.0,"la2":29.5877,"lo1":-88.7671,"lo2":-86.6584,"dy":0.0162,"dx":0.0185,"nx":115,"ny":88,"refTime":"2023-06-06T00:00:00:Z","depth":0,"parameterNumber":2,"parameterNumberName":"U-component_of_WINDS"},"data":[0.0,0.0,0.0,0.0,0.0,0.0,0.0,0.0,0.0,0.0,0.0,0.0,0.0,0.0,0.0,0.0,0.0,0.0,0.0,0.0,0.0,0.0,0.0,0.0,0.0,0.0,0.0,0.0,0.0,0.0,0.0,0.0,0.0,0.0,0.0,0.0,0.0,0.0,0.0,0.0,0.0,0.0,0.0,0.0,0.0,0.0,0.0,0.0,0.0,0.0,0.0,0.0,0.0,0.0,0.0,0.0,0.0,0.0,0.0,0.0,0.0,0.0,0.0,0.0,0.0,0.0,0.0,0.0,0.0,0.0,0.0,0.0,0.0,0.0,0.0,0.0,0.0,0.0,0.0,0.0,0.0,0.0,0.0,0.0,0.0,0.0,0.0,0.0,0.0,0.0,0.0,0.0,0.0,0.0,0.0,0.0,0.0,0.0,0.0,0.0,0.0,0.0,0.0,0.0,0.0,0.0,0.0,0.0,0.0,0.0,0.0,0.0,0.0,0.0,0.0,0.0,0.0,0.0,0.0,0.0,0.0,0.0,0.0,0.0,0.0,0.0,0.0,0.0,0.0,0.0,0.0,0.0,0.0,0.0,0.0,0.0,0.0,0.0,0.0,0.0,0.0,0.0,0.0,0.0,0.0,0.0,0.0,0.0,0.0,0.0,0.0,0.0,0.0,0.0,0.0,0.0,0.0,0.0,0.0,0.0,0.0,0.0,0.0,0.0,0.0,0.0,0.0,0.0,0.0,0.0,0.0,0.0,0.0,0.0,0.0,0.0,0.0,0.0,0.0,0.0,0.0,0.0,0.0,0.0,0.0,0.0,0.0,0.0,0.0,0.0,0.0,0.0,0.0,0.0,0.0,0.0,0.0,0.0,0.0,0.0,0.0,0.0,0.0,0.0,0.0,0.0,0.0,0.0,0.0,0.0,0.0,0.0,0.0,0.0,0.0,0.0,0.0,0.0,0.0,0.0,0.0,0.0,0.0,0.0,0.0,0.0,0.0,0.0,0.0,0.0,0.0,0.0,0.0,0.0,0.0,0.0,0.0,0.0,0.0,0.0,0.0,0.0,0.0,0.0,0.0,0.0,0.0,0.0,0.0,0.0,0.0,0.0,0.0,0.0,0.0,0.0,0.0,0.0,0.0,0.0,0.0,0.0,0.0,0.0,0.0,0.0,0.0,0.0,0.0,0.0,0.0,0.0,0.0,0.0,0.0,0.0,0.0,0.0,0.0,0.0,0.0,0.0,0.0,0.0,0.0,0.0,0.0,0.0,0.0,0.0,0.0,0.0,0.0,0.0,0.0,0.0,0.0,0.0,0.0,0.0,0.0,0.0,0.0,0.0,0.0,0.0,0.0,0.0,0.0,0.0,0.0,0.0,0.0,0.0,0.0,0.0,0.0,0.0,0.0,0.0,0.0,0.0,0.0,0.0,0.0,0.0,0.0,0.0,0.0,0.0,0.0,0.0,0.0,0.0,0.0,0.0,0.0,0.0,0.0,0.0,0.0,0.0,0.0,0.0,0.0,0.0,0.0,0.0,0.0,0.0,0.0,0.0,0.0,0.0,0.0,0.0,0.0,0.0,0.0,0.0,0.0,0.0,0.0,0.0,0.0,0.0,0.0,0.0,0.0,0.0,0.0,0.0,0.0,0.0,0.0,0.0,0.0,0.0,0.0,0.0,0.0,0.0,0.0,0.0,0.0,0.0,0.0,0.0,0.0,0.0,0.0,0.0,0.0,0.0,0.0,0.0,0.0,0.0,0.0,0.0,0.0,0.0,0.0,0.0,0.0,0.0,0.0,0.0,0.0,0.0,0.0,0.0,0.0,0.0,0.0,0.0,0.0,0.0,0.0,0.0,0.0,0.0,0.0,0.0,0.0,0.0,0.0,0.0,0.0,0.0,0.0,0.0,0.0,0.0,0.0,0.0,0.0,0.0,0.0,0.0,0.0,0.0,0.0,0.0,0.0,0.0,0.0,0.0,0.0,0.0,0.0,0.0,0.0,0.0,0.0,0.0,0.0,0.0,0.0,0.0,0.0,0.0,0.0,0.0,0.0,0.0,0.0,0.0,0.0,0.0,0.0,0.0,0.0,0.0,0.0,0.0,0.0,0.0,0.0,0.0,0.0,0.0,0.0,0.0,0.0,0.0,0.0,0.0,0.0,0.0,0.0,0.0,0.0,0.0,0.0,0.0,0.0,0.0,0.0,0.0,0.0,0.0,0.0,0.0,0.0,0.0,0.0,0.0,0.0,0.0,0.0,0.0,0.0,0.0,0.0,0.0,0.0,0.0,0.0,0.0,0.0,0.0,0.0,0.0,0.0,0.0,0.0,0.0,0.0,0.0,0.0,0.0,0.0,0.0,0.0,0.0,0.0,0.0,0.0,0.0,0.0,0.0,0.0,0.0,0.0,0.0,0.0,0.0,0.0,0.0,0.0,0.0,0.0,0.0,0.0,0.0,0.0,0.0,0.0,0.0,0.0,0.0,0.0,0.0,0.0,0.0,0.0,0.0,0.0,0.0,0.0,0.0,0.0,0.0,0.0,0.0,0.0,0.0,0.0,0.0,0.0,0.0,0.0,0.0,0.0,0.0,0.0,0.0,0.0,0.0,0.0,0.0,0.0,0.0,0.0,0.0,0.0,0.0,0.0,0.0,0.0,0.0,0.0,0.0,0.0,0.0,0.0,0.0,0.0,0.0,0.0,0.0,0.0,0.0,0.0,0.0,0.0,0.0,0.0,0.0,0.0,0.0,0.0,0.0,0.0,0.0,0.0,0.0,0.0,0.0,0.0,0.0,0.0,0.0,0.0,0.0,0.0,0.0,0.0,0.0,0.0,0.0,0.0,0.0,0.0,0.0,0.0,0.0,0.0,0.0,0.0,0.0,0.0,0.0,0.0,0.0,0.0,0.0,0.0,0.0,0.0,0.0,0.0,0.0,0.0,0.0,0.0,0.0,0.0,0.0,0.0,0.0,0.0,0.0,0.0,0.0,0.0,0.0,0.0,0.0,0.0,0.0,0.0,0.0,0.0,0.0,0.0,0.0,0.0,0.0,0.0,0.0,0.0,0.0,0.0,0.0,0.0,0.0,0.0,0.0,0.0,0.0,0.0,0.0,0.0,0.0,0.0,0.0,0.0,0.0,0.0,0.0,0.0,0.0,0.0,0.0,0.0,0.0,0.0,0.0,0.0,0.0,0.0,0.0,0.0,0.0,0.0,0.0,0.0,0.0,0.0,0.0,0.0,0.0,0.0,0.0,0.0,0.0,0.0,0.0,0.0,0.0,0.0,0.0,0.0,0.0,0.0,0.0,0.0,0.0,0.0,0.0,0.0,0.0,0.0,0.0,0.0,0.0,0.0,0.0,0.0,0.0,0.0,0.0,0.0,0.0,0.0,0.0,0.0,0.0,0.0,0.0,0.0,0.0,0.0,0.0,0.0,0.0,0.0,0.0,0.0,0.0,0.0,0.0,0.0,0.0,0.0,0.0,0.0,0.0,0.0,0.0,0.0,0.0,0.0,0.0,0.0,0.0,0.0,0.0,0.0,0.0,0.0,0.0,0.0,0.0,0.0,0.0,0.0,0.0,0.0,0.0,0.0,0.0,0.0,0.0,0.0,0.0,0.0,0.0,0.0,0.0,0.0,0.0,0.0,0.0,0.0,0.0,0.0,0.0,0.0,0.0,0.0,0.0,0.0,0.0,0.0,0.0,0.0,0.0,0.0,0.0,0.0,0.0,0.0,0.0,0.0,0.0,0.0,0.0,0.0,0.0,0.0,0.0,0.0,0.0,0.0,0.0,0.0,0.0,0.0,0.0,0.0,0.0,0.0,0.0,0.0,0.0,0.0,0.0,0.0,0.0,0.0,0.0,0.0,0.0,0.0,0.0,0.0,0.0,0.0,0.0,0.0,0.0,0.0,0.0,0.0,0.0,0.0,0.0,0.0,0.0,0.0,0.0,0.0,0.0,0.0,0.0,0.0,0.0,0.0,0.0,0.0,0.0,0.0,0.0,0.0,0.0,0.0,0.0,0.0,0.0,0.0,0.0,0.0,0.0,0.0,0.0,0.0,0.0,0.0,0.0,0.0,0.0,0.0,0.0,0.0,0.0,0.0,0.0,0.0,0.0,0.0,0.0,0.0,0.0,0.0,0.0,0.0,0.0,0.0,0.0,0.0,0.0,0.0,0.0,0.0,0.0,0.0,0.0,0.0,0.0,0.0,0.0,0.0,0.0,0.0,0.0,0.0,0.0,0.0,0.0,0.0,0.0,0.0,0.0,-0.59,0.0,0.0,0.0,0.0,0.0,0.0,0.0,0.0,0.0,0.0,0.0,0.0,0.0,0.0,0.0,0.0,0.0,0.0,0.0,0.0,0.0,0.0,0.0,0.0,0.0,0.0,0.0,0.0,0.0,0.0,0.0,0.0,0.0,0.0,0.0,0.0,0.0,0.0,0.0,0.0,0.0,0.0,0.0,0.0,0.0,0.0,0.0,0.0,0.0,0.0,0.0,0.0,0.0,0.0,0.0,0.0,0.0,0.0,0.0,0.0,0.0,0.0,0.0,0.0,0.0,0.0,0.0,0.0,0.0,0.0,0.0,0.0,0.0,0.0,0.0,0.0,0.0,0.0,0.0,0.0,0.0,0.0,0.0,0.0,0.0,0.0,0.0,0.0,0.0,0.0,0.0,0.0,0.0,0.0,0.0,0.0,0.0,0.0,0.0,0.0,0.0,0.0,0.0,0.0,0.0,0.0,0.0,0.0,0.0,0.0,-0.6446,-0.6305,-0.6299,-0.6278,-0.62,0.0,0.0,0.0,0.0,0.0,0.0,0.0,0.0,0.0,0.0,0.0,0.0,0.0,0.0,0.0,0.0,0.0,0.0,0.0,0.0,0.0,0.0,0.0,0.0,0.0,0.0,0.0,0.0,0.0,0.0,0.0,0.0,0.0,0.0,0.0,0.0,0.0,0.0,0.0,0.0,0.0,0.0,0.0,0.0,0.0,0.0,0.0,0.0,0.0,0.0,0.0,0.0,0.0,0.0,0.0,0.0,0.0,0.0,0.0,0.0,0.0,0.0,0.0,0.0,0.0,0.0,0.0,0.0,0.0,0.0,0.0,0.0,0.0,0.0,0.0,0.0,0.0,0.0,0.0,0.0,0.0,0.0,0.0,0.0,0.0,0.0,0.0,0.0,0.0,0.0,0.0,0.0,0.0,0.0,0.0,0.0,0.0,0.0,0.0,0.0,0.0,0.0,0.0,0.0,0.0,0.0,0.0,0.0,0.0,0.0,0.0,0.0,-0.5985,-0.6139,-0.644,0.0,0.0,0.0,0.0,0.0,0.0,0.0,0.0,0.0,0.0,0.0,0.0,0.0,0.0,0.0,0.0,0.0,0.0,0.0,0.0,0.0,0.0,0.0,0.0,0.0,0.0,0.0,0.0,0.0,0.0,0.0,0.0,0.0,0.0,0.0,0.0,0.0,0.0,0.0,0.0,0.0,0.0,0.0,0.0,0.0,0.0,0.0,0.0,0.0,0.0,0.0,0.0,0.0,0.0,0.0,0.0,0.0,0.0,0.0,0.0,0.0,0.0,0.0,0.0,0.0,0.0,0.0,0.0,0.0,0.0,0.0,0.0,0.0,0.0,0.0,0.0,0.0,0.0,0.0,0.0,0.0,0.0,0.0,0.0,0.0,0.0,0.0,0.0,0.0,0.0,0.0,0.0,0.0,0.0,0.0,0.0,0.0,0.0,0.0,0.0,0.0,0.0,0.0,0.0,0.0,0.0,0.0,0.0,0.0,0.0,-0.581,-0.5904,-0.5904,0.0,-0.6316,0.0,0.0,0.0,0.0,0.0,0.0,0.0,0.0,0.0,0.0,0.0,0.0,0.0,0.0,0.0,0.0,0.0,0.0,0.0,0.0,0.0,0.0,0.0,0.0,0.0,0.0,0.0,0.0,0.0,0.0,0.0,0.0,0.0,0.0,0.0,0.0,0.0,0.0,0.0,0.0,0.0,0.0,0.0,0.0,0.0,0.0,0.0,0.0,0.0,0.0,0.0,0.0,0.0,0.0,0.0,0.0,0.0,0.0,0.0,0.0,0.0,0.0,0.0,0.0,0.0,0.0,0.0,0.0,0.0,0.0,0.0,0.0,0.0,0.0,0.0,0.0,0.0,0.0,0.0,0.0,0.0,0.0,0.0,0.0,0.0,0.0,0.0,0.0,0.0,0.0,0.0,0.0,0.0,0.0,0.0,0.0,0.0,0.0,0.0,0.0,0.0,0.0,0.0,0.0,0.0,0.0,0.0,0.0,0.0,0.0,-0.5387,-0.5639,-0.562,-0.5701,0.0,0.0,0.0,0.0,0.0,0.0,0.0,0.0,0.0,0.0,0.0,0.0,0.0,0.0,0.0,0.0,0.0,0.0,0.0,0.0,0.0,0.0,0.0,0.0,0.0,0.0,0.0,0.0,0.0,0.0,0.0,0.0,0.0,0.0,0.0,0.0,0.0,0.0,0.0,0.0,0.0,0.0,0.0,0.0,0.0,0.0,0.0,0.0,0.0,0.0,0.0,0.0,0.0,0.0,0.0,0.0,0.0,0.0,0.0,0.0,0.0,0.0,0.0,0.0,0.0,0.0,0.0,0.0,0.0,0.0,0.0,0.0,0.0,0.0,0.0,0.0,0.0,0.0,0.0,0.0,0.0,0.0,0.0,0.0,0.0,0.0,0.0,0.0,0.0,0.0,0.0,0.0,0.0,0.0,0.0,0.0,0.0,0.0,0.0,0.0,0.0,0.0,0.0,0.0,0.0,0.0,0.0,0.0,0.0,0.0,-0.4957,-0.5167,-0.5329,-0.5268,-0.5321,-0.5504,0.0,0.0,0.0,0.0,0.0,0.0,0.0,0.0,0.0,0.0,0.0,0.0,0.0,0.0,0.0,0.0,0.0,0.0,0.0,0.0,0.0,0.0,0.0,0.0,0.0,0.0,0.0,0.0,0.0,0.0,0.0,0.0,0.0,0.0,0.0,0.0,0.0,0.0,0.0,0.0,0.0,0.0,0.0,0.0,0.0,0.0,0.0,0.0,0.0,0.0,0.0,0.0,0.0,0.0,0.0,0.0,0.0,0.0,0.0,0.0,0.0,0.0,0.0,0.0,0.0,0.0,0.0,0.0,0.0,0.0,0.0,0.0,0.0,0.0,0.0,0.0,0.0,0.0,0.0,0.0,0.0,0.0,0.0,0.0,0.0,0.0,0.0,0.0,0.0,0.0,0.0,0.0,0.0,0.0,0.0,0.0,0.0,0.0,0.0,0.0,0.0,0.0,0.0,0.0,0.0,0.0,0.0,0.0,-0.4179,-0.4865,-0.5187,-0.4946,-0.4864,-0.4939,0.0,0.0,0.0,0.0,0.0,0.0,0.0,0.0,0.0,0.0,0.0,0.0,0.0,0.0,0.0,0.0,0.0,0.0,0.0,0.0,0.0,0.0,0.0,0.0,0.0,0.0,0.0,0.0,0.0,0.0,0.0,0.0,0.0,0.0,0.0,0.0,0.0,0.0,0.0,0.0,0.0,0.0,0.0,0.0,0.0,0.0,0.0,0.0,0.0,0.0,0.0,0.0,0.0,0.0,0.0,0.0,0.0,0.0,0.0,0.0,0.0,0.0,0.0,0.0,0.0,0.0,0.0,0.0,0.0,0.0,0.0,0.0,0.0,0.0,0.0,0.0,0.0,0.0,0.0,0.0,0.0,0.0,0.0,0.0,0.0,0.0,0.0,0.0,0.0,0.0,0.0,0.0,0.0,0.0,0.0,0.0,0.0,0.0,0.0,0.0,0.0,0.0,0.0,0.0,0.0,0.0,0.0,0.0,0.0,-0.4055,-0.4521,-0.462,-0.4323,-0.4374,-0.4511,0.0,0.0,0.0,0.0,0.0,0.0,0.0,0.0,0.0,0.0,0.0,0.0,0.0,0.0,0.0,0.0,0.0,0.0,0.0,0.0,0.0,0.0,0.0,0.0,0.0,0.0,0.0,0.0,0.0,0.0,0.0,0.0,0.0,0.0,0.0,0.0,0.0,0.0,0.0,0.0,0.0,0.0,0.0,0.0,0.0,0.0,0.0,0.0,0.0,0.0,0.0,0.0,0.0,0.0,0.0,0.0,0.0,0.0,0.0,0.0,0.0,0.0,0.0,0.0,0.0,0.0,0.0,0.0,0.0,0.0,0.0,0.0,0.0,0.0,0.0,0.0,0.0,0.0,0.0,0.0,0.0,0.0,0.0,0.0,0.0,0.0,0.0,0.0,0.0,0.0,0.0,0.0,0.0,0.0,0.0,0.0,0.0,0.0,0.0,0.0,0.0,0.0,0.0,0.0,0.0,0.0,0.0,0.0,0.0,-0.3866,0.0,-0.4024,0.0,-0.3916,-0.4069,0.0,0.0,0.0,0.0,0.0,0.0,0.0,0.0,0.0,0.0,0.0,0.0,0.0,0.0,0.0,0.0,0.0,0.0,0.0,0.0,0.0,0.0,0.0,0.0,0.0,0.0,0.0,0.0,0.0,0.0,0.0,0.0,0.0,0.0,0.0,0.0,0.0,0.0,0.0,0.0,0.0,0.0,0.0,0.0,0.0,0.0,0.0,0.0,0.0,0.0,0.0,0.0,0.0,0.0,0.0,0.0,0.0,0.0,0.0,0.0,0.0,0.0,0.0,0.0,0.0,0.0,0.0,0.0,0.0,0.0,0.0,0.0,0.0,0.0,0.0,0.0,0.0,0.0,0.0,0.0,0.0,0.0,0.0,0.0,0.0,0.0,0.0,0.0,0.0,0.0,0.0,0.0,0.0,0.0,0.0,0.0,0.0,0.0,0.0,0.0,0.0,0.0,0.0,0.0,0.0,0.0,0.0,0.0,-0.3589,-0.3568,-0.3447,-0.3466,-0.3561,-0.3453,-0.3574,0.0,0.0,0.0,0.0,0.0,0.0,0.0,0.0,0.0,0.0,0.0,0.0,0.0,0.0,0.0,0.0,0.0,0.0,0.0,0.0,0.0,0.0,0.0,0.0,0.0,0.0,0.0,0.0,0.0,0.0,0.0,0.0,0.0,0.0,0.0,0.0,0.0,0.0,0.0,0.0,0.0,0.0,0.0,0.0,0.0,0.0,0.0,0.0,0.0,0.0,0.0,0.0,0.0,0.0,0.0,0.0,0.0,0.0,0.0,0.0,0.0,0.0,0.0,0.0,0.0,0.0,0.0,0.0,0.0,0.0,0.0,0.0,0.0,0.0,0.0,0.0,0.0,0.0,0.0,0.0,0.0,0.0,0.0,0.0,0.0,0.0,0.0,0.0,0.0,0.0,0.0,0.0,0.0,0.0,0.0,0.0,0.0,0.0,0.0,0.0,0.0,0.0,0.0,0.0,0.0,0.0,0.0,0.0,0.0,-0.2616,-0.2835,-0.2936,-0.301,-0.3103,-0.3303,0.0,0.0,0.0,0.0,0.0,0.0,0.0,0.0,0.0,0.0,0.0,0.0,0.0,0.0,0.0,0.0,0.0,0.0,0.0,0.0,0.0,0.0,0.0,0.0,0.0,0.0,0.0,0.0,0.0,0.0,0.0,0.0,0.0,0.0,0.0,0.0,0.0,0.0,0.0,0.0,0.0,0.0,0.0,0.0,0.0,0.0,0.0,0.0,0.0,0.0,0.0,0.0,0.0,0.0,0.0,0.0,0.0,0.0,0.0,0.0,0.0,0.0,0.0,0.0,0.0,0.0,0.0,0.0,0.0,0.0,0.0,0.0,0.0,0.0,0.0,0.0,0.0,0.0,0.0,0.0,0.0,0.0,0.0,0.0,0.0,0.0,0.0,0.0,0.0,0.0,0.0,0.0,0.0,0.0,0.0,0.0,0.0,0.0,0.0,0.0,0.0,0.0,0.0,0.0,0.0,0.0,0.0,0.0,0.0,-0.2048,-0.23,-0.2364,-0.2334,-0.2646,-0.2929,-0.3133,0.0,0.0,0.0,0.0,0.0,0.0,0.0,0.0,0.0,0.0,0.0,0.0,0.0,0.0,0.0,0.0,0.0,0.0,0.0,0.0,0.0,0.0,0.0,0.0,0.0,0.0,0.0,0.0,0.0,0.0,0.0,0.0,0.0,0.0,0.0,0.0,0.0,0.0,0.0,0.0,0.0,0.0,0.0,0.0,0.0,0.0,0.0,0.0,0.0,0.0,0.0,0.0,0.0,0.0,0.0,0.0,0.0,0.0,0.0,0.0,0.0,0.0,0.0,0.0,0.0,0.0,0.0,0.0,0.0,0.0,0.0,0.0,0.0,0.0,0.0,0.0,0.0,0.0,0.0,0.0,0.0,0.0,0.0,0.0,0.0,0.0,0.0,0.0,0.0,0.0,0.0,0.0,0.0,0.0,0.0,0.0,0.0,0.0,0.0,0.0,0.0,0.0,0.0,0.0,0.0,0.0,0.0,0.0,-0.1754,-0.1811,-0.1837,-0.1825,-0.2118,-0.2546,0.0,0.0,0.0,0.0,0.0,0.0,0.0,0.0,0.0,0.0,0.0,0.0,0.0,0.0,0.0,0.0,0.0,0.0,0.0,0.0,0.0,0.0,0.0,0.0,0.0,0.0,0.0,0.0,0.0,0.0,0.0,0.0,0.0,0.0,0.0,0.0,0.0,0.0,0.0,0.0,0.0,0.0,0.0,0.0,0.0,0.0,0.0,0.0,0.0,0.0,0.0,0.0,0.0,0.0,0.0,0.0,0.0,0.0,0.0,0.0,0.0,0.0,0.0,0.0,0.0,0.0,0.0,0.0,0.0,0.0,0.0,0.0,0.0,0.0,0.0,0.0,0.0,0.0,0.0,0.0,0.0,0.0,0.0,0.0,0.0,0.0,0.0,0.0,0.0,0.0,0.0,0.0,0.0,0.0,0.0,0.0,0.0,0.0,0.0,0.0,0.0,0.0,0.0,0.0,0.0,0.0,0.0,0.0,0.0,-0.1303,-0.1208,-0.1327,-0.1647,-0.2114,-0.2521,0.0,0.0,0.0,0.0,0.0,0.0,0.0,0.0,0.0,0.0,0.0,0.0,0.0,0.0,0.0,0.0,0.0,0.0,0.0,0.0,0.0,0.0,0.0,0.0,0.0,0.0,0.0,0.0,0.0,0.0,0.0,0.0,0.0,0.0,0.0,0.0,0.0,0.0,0.0,0.0,0.0,0.0,0.0,0.0,0.0,0.0,0.0,0.0,0.0,0.0,0.0,0.0,0.0,0.0,0.0,0.0,0.0,0.0,0.0,0.0,0.0,0.0,0.0,0.0,0.0,0.0,0.0,0.0,0.0,0.0,0.0,0.0,0.0,0.0,0.0,0.0,0.0,0.0,0.0,0.0,0.0,0.0,0.0,0.0,0.0,0.0,0.0,0.0,0.0,0.0,0.0,0.0,0.0,0.0,0.0,0.0,0.0,0.0,0.0,0.0,0.0,0.0,0.0,0.0,0.0,0.0,0.0,0.0,-0.154,-0.1115,-0.0887,-0.0891,-0.1195,-0.1816,-0.2365,0.0,0.0,0.0,0.0,0.0,0.0,0.0,0.0,0.0,0.0,0.0,0.0,0.0,0.0,0.0,0.0,0.0,0.0,0.0,0.0,0.0,0.0,0.0,0.0,0.0,0.0,0.0,0.0,0.0,0.0,0.0,0.0,0.0,0.0,0.0,0.0,0.0,0.0,0.0,0.0,0.0,0.0,0.0,0.0,0.0,0.0,0.0,0.0,0.0,0.0,0.0,0.0,0.0,0.0,0.0,0.0,0.0,0.0,0.0,0.0,0.0,0.0,0.0,0.0,0.0,0.0,0.0,0.0,0.0,0.0,0.0,0.0,0.0,0.0,0.0,0.0,0.0,0.0,0.0,0.0,0.0,0.0,0.0,0.0,0.0,0.0,0.0,0.0,0.0,0.0,0.0,0.0,0.0,0.0,0.0,0.0,0.0,0.0,0.0,0.0,0.0,0.0,0.0,0.0,0.0,0.0,0.0,0.0,-0.1441,-0.1015,-0.0643,-0.0514,-0.066,-0.1323,-0.2038,0.0,0.0,0.0,0.0,0.0,0.0,0.0,0.0,0.0,0.0,0.0,0.0,0.0,0.0,0.0,0.0,0.0,0.0,0.0,0.0,0.0,0.0,0.0,0.0,0.0,0.0,0.0,0.0,0.0,0.0,0.0,0.0,0.0,0.0,0.0,0.0,0.0,0.0,0.0,0.0,0.0,0.0,0.0,0.0,0.0,0.0,0.0,0.0,0.0,0.0,0.0,0.0,0.0,0.0,0.0,0.0,0.0,0.0,0.0,0.0,0.0,0.0,0.0,0.0,0.0,0.0,0.0,0.0,0.0,0.0,0.0,0.0,0.0,0.0,0.0,0.0,0.0,0.0,0.0,0.0,0.0,0.0,0.0,0.0,0.0,0.0,0.0,0.0,0.0,0.0,0.0,0.0,0.0,0.0,0.0,0.0,0.0,0.0,0.0,0.0,0.0,0.0,0.0,0.0,0.0,0.0,0.0,0.0,-0.1258,-0.0278,-0.0373,-0.0541,-0.0619,-0.1228,-0.1828,0.0,0.0,0.0,0.0,0.0,0.0,0.0,0.0,0.0,0.0,0.0,0.0,0.0,0.0,0.0,0.0,0.0,0.0,0.0,0.0,0.0,0.0,0.0,0.0,0.0,0.0,0.0,0.0,0.0,0.0,0.0,0.0,0.0,0.0,0.0,0.0,0.0,0.0,0.0,0.0,0.0,0.0,0.0,0.0,0.0,0.0,0.0,0.0,-0.5939,0.0,0.0,0.0,0.0,0.0,0.0,0.0,0.0,0.0,0.0,0.0,0.0,0.0,0.0,0.0,0.0,0.0,0.0,0.0,0.0,0.0,0.0,0.0,0.0,0.0,0.0,0.0,0.0,0.0,0.0,0.0,0.0,0.0,0.0,0.0,0.0,0.0,0.0,0.0,0.0,0.0,0.0,0.0,0.0,0.0,0.0,0.0,0.0,0.0,0.0,0.0,0.0,0.0,0.0,0.0,0.0,0.0,0.0,0.0,-0.0948,-0.0071,-0.0152,-0.0393,-0.0627,-0.1257,-0.1812,0.0,0.0,0.0,0.0,0.0,0.0,0.0,0.0,0.0,0.0,0.0,0.0,0.0,0.0,0.0,0.0,0.0,0.0,0.0,0.0,0.0,0.0,0.0,0.0,0.0,0.0,0.0,0.0,0.0,0.0,0.0,0.0,0.0,0.0,0.0,0.0,0.0,0.0,0.0,0.0,0.0,0.0,0.0,0.0,0.0,0.0,0.0,0.0,0.0,0.0,0.0,0.0,0.0,0.0,0.0,0.0,0.0,0.0,0.0,0.0,0.0,0.0,0.0,0.0,0.0,0.0,0.0,0.0,0.0,0.0,0.0,0.0,0.0,0.0,0.0,0.0,0.0,0.0,0.0,0.0,0.0,0.0,0.0,0.0,0.0,0.0,0.0,0.0,0.0,0.0,0.0,0.0,0.0,0.0,0.0,0.0,0.0,0.0,0.0,0.0,0.0,0.0,0.0,0.0,0.0,0.0,0.0,-0.0786,-0.0554,-0.0,-0.0,-0.0236,-0.0628,-0.1278,-0.1857,-0.2157,0.0,0.0,0.0,0.0,0.0,0.0,0.0,0.0,0.0,0.0,0.0,0.0,0.0,0.0,0.0,0.0,0.0,0.0,0.0,0.0,0.0,0.0,0.0,0.0,0.0,0.0,0.0,0.0,0.0,0.0,0.0,0.0,0.0,0.0,0.0,0.0,0.0,0.0,-0.4968,-0.5122,0.0,0.0,0.0,0.0,0.0,0.0,0.0,0.0,-0.5453,0.0,0.0,0.0,0.0,0.0,0.0,0.0,0.0,0.0,0.0,0.0,0.0,0.0,0.0,0.0,0.0,0.0,0.0,0.0,0.0,0.0,0.0,0.0,0.0,0.0,0.0,0.0,0.0,0.0,0.0,0.0,0.0,0.0,0.0,0.0,0.0,0.0,0.0,0.0,0.0,0.0,0.0,0.0,0.0,0.0,0.0,0.0,0.0,0.0,0.0,0.0,0.0,0.0,0.0,0.0,0.0,-0.0123,-0.0131,-0.0069,-0.0,-0.0,-0.016,-0.0629,-0.1299,-0.1819,-0.2026,0.0,0.0,0.0,0.0,0.0,0.0,0.0,0.0,0.0,0.0,0.0,0.0,0.0,0.0,0.0,0.0,0.0,0.0,0.0,0.0,0.0,0.0,0.0,0.0,0.0,0.0,0.0,0.0,0.0,0.0,0.0,0.0,0.0,0.0,0.0,0.0,0.0,0.0,0.0,-0.4495,-0.4709,0.0,0.0,0.0,0.0,0.0,0.0,0.0,0.0,-0.528,0.0,0.0,0.0,0.0,0.0,0.0,0.0,0.0,0.0,0.0,0.0,0.0,0.0,0.0,0.0,0.0,0.0,0.0,0.0,0.0,0.0,0.0,0.0,0.0,0.0,0.0,0.0,0.0,0.0,0.0,0.0,0.0,0.0,0.0,0.0,0.0,0.0,0.0,0.0,0.0,0.0,0.0,0.0,0.0,0.0,0.0,0.0,0.0,0.0,0.0,0.0,0.0,0.0,0.0,0.0,-0.0,-0.0,-0.0,-0.0,-0.0,-0.0156,-0.054,-0.1279,-0.1791,0.0,0.0,0.0,0.0,0.0,0.0,0.0,0.0,0.0,0.0,0.0,0.0,0.0,0.0,0.0,0.0,0.0,0.0,0.0,0.0,0.0,0.0,0.0,0.0,0.0,0.0,0.0,0.0,0.0,0.0,0.0,0.0,0.0,0.0,0.0,0.0,0.0,0.0,0.0,0.0,-0.4152,-0.4368,-0.4368,0.0,0.0,0.0,0.0,0.0,0.0,-0.5116,-0.5096,0.0,0.0,0.0,0.0,0.0,0.0,0.0,0.0,0.0,0.0,0.0,0.0,0.0,0.0,0.0,0.0,0.0,0.0,0.0,0.0,0.0,0.0,0.0,0.0,0.0,0.0,0.0,0.0,0.0,0.0,0.0,0.0,0.0,0.0,0.0,0.0,0.0,0.0,0.0,0.0,0.0,0.0,0.0,0.0,0.0,0.0,0.0,0.0,0.0,0.0,0.0,0.0,0.0,0.0,0.0,-0.0,-0.0,-0.0,-0.0,-0.0,-0.0151,-0.053,-0.1257,-0.1756,0.0,0.0,0.0,0.0,0.0,0.0,0.0,0.0,0.0,0.0,0.0,0.0,0.0,0.0,0.0,0.0,0.0,0.0,0.0,0.0,0.0,0.0,0.0,0.0,0.0,0.0,0.0,0.0,0.0,0.0,0.0,0.0,0.0,0.0,0.0,0.0,0.0,0.0,0.0,0.0,0.0,-0.411,-0.424,-0.4395,0.0,0.0,0.0,0.0,-0.5067,-0.4935,0.0,0.0,0.0,0.0,0.0,0.0,0.0,0.0,0.0,0.0,0.0,0.0,0.0,0.0,0.0,0.0,0.0,0.0,0.0,0.0,0.0,0.0,0.0,0.0,0.0,0.0,0.0,0.0,0.0,0.0,0.0,0.0,0.0,0.0,0.0,0.0,0.0,0.0,0.0,0.0,0.0,0.0,0.0,0.0,0.0,0.0,0.0,0.0,0.0,0.0,0.0,0.0,0.0,0.0,0.0,0.0,-0.0,-0.0,-0.0,-0.0,-0.0,-0.0151,-0.0454,-0.1257,-0.1687,0.0,0.0,0.0,0.0,0.0,0.0,0.0,0.0,0.0,0.0,0.0,0.0,0.0,0.0,0.0,0.0,0.0,0.0,0.0,0.0,0.0,0.0,0.0,0.0,0.0,0.0,0.0,0.0,0.0,0.0,0.0,0.0,0.0,0.0,0.0,0.0,0.0,0.0,0.0,0.0,0.0,-0.4004,-0.4051,-0.4286,-0.4538,0.0,0.0,-0.4709,-0.4614,-0.4546,0.0,0.0,0.0,0.0,0.0,0.0,0.0,0.0,0.0,0.0,0.0,0.0,0.0,0.0,0.0,0.0,0.0,0.0,0.0,0.0,0.0,0.0,0.0,0.0,0.0,0.0,0.0,0.0,0.0,0.0,0.0,0.0,0.0,0.0,0.0,0.0,0.0,0.0,0.0,0.0,0.0,0.0,0.0,0.0,0.0,0.0,0.0,0.0,0.0,0.0,0.0,0.0,0.0,0.0,0.0,-0.0,-0.0,-0.0,-0.0,-0.0,-0.0,-0.0145,-0.0507,-0.122,-0.1716,0.0,0.0,0.0,0.0,0.0,0.0,0.0,0.0,0.0,0.0,0.0,0.0,0.0,0.0,0.0,0.0,0.0,0.0,0.0,0.0,0.0,0.0,0.0,0.0,0.0,0.0,0.0,0.0,0.0,0.0,0.0,0.0,0.0,0.0,0.0,0.0,0.0,0.0,0.0,0.0,0.0,0.0,-0.4107,-0.4379,0.0,0.0,0.0,-0.5087,-0.5031,0.0,0.0,0.0,0.0,0.0,0.0,0.0,0.0,0.0,0.0,0.0,0.0,0.0,0.0,0.0,0.0,0.0,0.0,0.0,0.0,0.0,0.0,0.0,0.0,0.0,0.0,0.0,0.0,0.0,0.0,0.0,0.0,0.0,0.0,0.0,0.0,0.0,0.0,0.0,0.0,0.0,0.0,0.0,0.0,0.0,0.0,0.0,0.0,0.0,0.0,0.0,0.0,0.0,0.0,0.0,0.0,0.0,-0.0,-0.0,-0.0,-0.0,-0.0,-0.028,-0.077,-0.1401,0.0,0.0,0.0,0.0,0.0,0.0,0.0,0.0,0.0,0.0,0.0,0.0,0.0,0.0,0.0,0.0,0.0,0.0,0.0,0.0,0.0,0.0,0.0,0.0,0.0,0.0,0.0,-0.3185,0.0,0.0,0.0,0.0,0.0,0.0,0.0,0.0,0.0,0.0,0.0,0.0,0.0,0.0,-0.4052,-0.4219,-0.4551,-0.4809,0.0,0.0,-0.5282,-0.5282,-0.5046,-0.4863,0.0,0.0,0.0,0.0,0.0,0.0,0.0,0.0,0.0,0.0,0.0,0.0,0.0,0.0,0.0,0.0,0.0,0.0,0.0,0.0,0.0,0.0,0.0,0.0,0.0,0.0,0.0,0.0,0.0,0.0,0.0,0.0,0.0,0.0,0.0,0.0,0.0,0.0,0.0,0.0,0.0,0.0,0.0,0.0,0.0,0.0,0.0,0.0,0.0,0.0,0.0,0.0,0.0,0.0,0.0,-0.0,-0.0,-0.0,-0.0,-0.0,-0.049,-0.1472,-0.1964,-0.2225,0.0,0.0,0.0,0.0,0.0,0.0,0.0,0.0,0.0,0.0,0.0,0.0,0.0,0.0,0.0,0.0,0.0,0.0,0.0,0.0,0.0,0.0,0.0,0.0,0.0,0.0,0.0,0.0,0.0,0.0,0.0,0.0,0.0,0.0,0.0,0.0,0.0,0.0,0.0,0.0,0.0,-0.4474,-0.4488,-0.4694,-0.4887,0.0,0.0,-0.4918,-0.4921,-0.4785,-0.4677,-0.4735,0.0,0.0,0.0,0.0,0.0,0.0,0.0,0.0,0.0,0.0,0.0,0.0,0.0,0.0,0.0,0.0,0.0,0.0,0.0,0.0,0.0,0.0,0.0,0.0,0.0,0.0,0.0,0.0,0.0,0.0,0.0,0.0,0.0,0.0,0.0,0.0,0.0,0.0,0.0,0.0,0.0,0.0,0.0,0.0,0.0,0.0,0.0,0.0,0.0,0.0,0.0,0.0,0.0,-0.0775,-0.0616,-0.0432,-0.0193,-0.0,-0.042,-0.1051,-0.1964,-0.2524,-0.2696,0.0,0.0,0.0,0.0,0.0,0.0,0.0,0.0,0.0,0.0,0.0,0.0,0.0,0.0,0.0,0.0,0.0,0.0,0.0,0.0,0.0,0.0,0.0,0.0,0.0,0.0,0.0,0.0,-0.3544,-0.3578,-0.3578,0.0,0.0,0.0,0.0,0.0,0.0,0.0,0.0,0.0,0.0,-0.4528,-0.4718,-0.4918,0.0,0.0,-0.5128,-0.5192,-0.5192,-0.5064,-0.4931,-0.4847,-0.4582,0.0,0.0,0.0,0.0,0.0,0.0,0.0,0.0,0.0,0.0,0.0,0.0,0.0,0.0,0.0,0.0,0.0,0.0,0.0,0.0,0.0,0.0,0.0,0.0,0.0,0.0,0.0,0.0,0.0,0.0,0.0,0.0,0.0,0.0,0.0,0.0,0.0,0.0,0.0,0.0,0.0,0.0,0.0,0.0,0.0,0.0,0.0,0.0,0.0,0.0,0.0,0.0,-0.1019,-0.1111,-0.088,-0.0655,-0.035,-0.1129,-0.1837,-0.2524,-0.3083,-0.3246,0.0,0.0,0.0,0.0,0.0,0.0,0.0,0.0,0.0,0.0,0.0,0.0,0.0,0.0,0.0,0.0,0.0,0.0,0.0,0.0,0.0,0.0,0.0,0.0,0.0,0.0,0.0,0.0,-0.3578,-0.3578,-0.3578,0.0,0.0,0.0,0.0,0.0,0.0,0.0,0.0,0.0,0.0,-0.4691,-0.4948,-0.5104,-0.5199,-0.5199,-0.5291,-0.5428,-0.5428,-0.523,-0.5098,-0.4999,0.0,0.0,0.0,0.0,0.0,0.0,0.0,0.0,0.0,0.0,0.0,0.0,0.0,0.0,0.0,0.0,0.0,0.0,0.0,0.0,0.0,0.0,0.0,0.0,0.0,0.0,0.0,0.0,0.0,0.0,-0.0,0.0,0.0,0.0,0.0,0.0,0.0,0.0,0.0,0.0,0.0,0.0,0.0,0.0,0.0,0.0,0.0,0.0,0.0,0.0,0.0,0.0,0.0,-0.1333,-0.1297,-0.1436,-0.1361,-0.1121,-0.2014,-0.2738,-0.3373,-0.3648,-0.3825,-0.3793,0.0,0.0,0.0,0.0,0.0,0.0,0.0,0.0,0.0,0.0,0.0,0.0,0.0,0.0,0.0,0.0,0.0,0.0,0.0,0.0,0.0,0.0,0.0,0.0,0.0,0.0,-0.3568,-0.3578,-0.3581,0.0,0.0,0.0,0.0,0.0,0.0,0.0,0.0,0.0,0.0,-0.4724,-0.4962,-0.5108,-0.5257,-0.5415,-0.5352,-0.5422,-0.5428,-0.5428,-0.5233,-0.5068,0.0,0.0,0.0,0.0,0.0,0.0,0.0,0.0,0.0,0.0,0.0,0.0,0.0,0.0,0.0,0.0,0.0,0.0,0.0,0.0,0.0,0.0,0.0,0.0,0.0,0.0,0.0,-0.0,-0.0,0.0,0.0,0.0,0.0,0.0,0.0,0.0,0.0,0.0,0.0,0.0,-0.0,-0.0,0.0,0.0,0.0,0.0,0.0,0.0,0.0,0.0,0.0,0.0,0.0,0.0,-0.1674,-0.1841,-0.1914,-0.1856,-0.1579,-0.2138,-0.3051,-0.4426,-0.4493,-0.4516,-0.4513,0.0,0.0,0.0,0.0,0.0,0.0,0.0,0.0,0.0,0.0,0.0,0.0,0.0,0.0,0.0,0.0,0.0,0.0,0.0,0.0,0.0,0.0,0.0,0.0,0.0,-0.3524,0.0,0.0,0.0,0.0,0.0,0.0,0.0,0.0,0.0,0.0,0.0,-0.4484,-0.4731,-0.4935,-0.5111,-0.5264,-0.5328,-0.5428,0.0,0.0,0.0,0.0,0.0,0.0,0.0,0.0,0.0,0.0,0.0,0.0,0.0,0.0,-0.5382,-0.4989,-0.4918,-0.4948,-0.5043,0.0,0.0,0.0,0.0,0.0,0.0,0.0,0.0,0.0,0.0,0.0,0.0,0.0,0.0,-0.0,0.0,-0.0,0.0,0.0,0.0,0.0,0.0,0.0,0.0,0.0,-0.0,-0.0,-0.0,-0.0,-0.0,0.0,-0.0,-0.0345,0.0,0.0,0.0,0.0,0.0,0.0,0.0,0.0,-0.2242,-0.2486,-0.2512,-0.24,-0.2205,-0.234,-0.3349,-0.5133,-0.5041,-0.4945,-0.4968,-0.4882,-0.4799,0.0,0.0,0.0,0.0,0.0,0.0,0.0,0.0,0.0,0.0,0.0,0.0,0.0,0.0,0.0,0.0,0.0,0.0,0.0,0.0,0.0,0.0,0.0,-0.3731,0.0,0.0,0.0,0.0,0.0,0.0,0.0,0.0,0.0,-0.4321,-0.445,-0.4653,-0.4955,-0.5074,-0.5206,-0.5413,0.0,0.0,0.0,0.0,0.0,0.0,0.0,-0.5481,-0.5379,-0.5447,-0.5501,-0.545,-0.561,-0.5759,-0.5813,0.0,0.0,-0.5315,-0.5226,-0.5254,-0.5345,-0.5406,-0.5474,-0.5572,-0.5706,-0.5657,0.0,0.0,0.0,0.0,0.0,0.0,0.0,0.0,-0.0,-0.0,0.0,-0.0,0.0,0.0,0.0,0.0,0.0,-0.0,0.0,0.0,-0.0,-0.0,-0.0,-0.0,-0.0,-0.0,-0.0,-0.0228,-0.0679,-0.1029,0.0,0.0,0.0,0.0,0.0,0.0,-0.3073,-0.3307,-0.3119,-0.3015,-0.3008,-0.2697,-0.3548,-0.551,-0.5464,-0.5248,-0.51,-0.5087,-0.507,-0.4928,-0.4664,0.0,0.0,0.0,0.0,0.0,0.0,0.0,0.0,0.0,0.0,0.0,0.0,0.0,0.0,0.0,0.0,0.0,0.0,0.0,0.0,-0.4019,0.0,0.0,0.0,0.0,0.0,0.0,0.0,0.0,0.0,0.0,-0.4563,-0.4623,-0.4813,-0.5098,0.0,0.0,0.0,0.0,-0.5644,-0.5776,-0.58,-0.5796,-0.5796,-0.5796,-0.5796,-0.58,0.0,0.0,-0.6023,-0.6047,-0.6101,-0.6247,-0.6271,-0.6179,-0.5884,-0.581,-0.5806,-0.5823,-0.5928,-0.6034,-0.6057,-0.6152,-0.621,-0.0,0.0,0.0,0.0,0.0,-0.0,-0.0,-0.0,-0.0,-0.0,-0.0,-0.0,0.0,0.0,0.0,0.0,0.0,0.0,-0.0,-0.0,-0.0,-0.0,-0.0,-0.0773,-0.1116,-0.1016,-0.0336,-0.0494,-0.1436,-0.2017,-0.2133,-0.1831,0.0,0.0,0.0,0.0,-0.3869,-0.4265,-0.4113,-0.3891,-0.3759,-0.3542,-0.4243,-0.604,-0.5844,-0.5601,-0.546,-0.5376,-0.5226,-0.5077,-0.5095,0.0,0.0,0.0,0.0,0.0,0.0,0.0,0.0,0.0,0.0,0.0,0.0,0.0,0.0,0.0,0.0,0.0,0.0,0.0,-0.4019,-0.4019,-0.4019,0.0,0.0,0.0,0.0,0.0,0.0,0.0,0.0,0.0,-0.514,-0.5043,-0.5074,0.0,0.0,-0.5525,-0.5715,-0.5742,-0.5755,-0.5796,-0.58,0.0,0.0,-0.58,-0.5837,-0.5945,-0.6135,-0.6332,-0.6481,-0.6508,-0.6522,-0.6566,-0.6573,-0.6542,-0.6458,-0.6264,-0.6176,-0.6257,-0.6318,-0.6383,-0.6485,-0.6546,-0.6563,-0.0,-0.0,-0.0,-0.0,-0.0,-0.0,-0.0,-0.0,-0.0,-0.0,-0.0,-0.0,-0.0,-0.0,-0.0,0.0,0.0,0.0,-0.0,-0.0,-0.0431,-0.062,-0.0632,-0.1097,-0.1463,-0.1717,-0.0986,-0.1144,-0.2316,-0.3033,-0.317,-0.276,0.0,0.0,-0.3975,-0.4237,-0.4533,-0.509,-0.4906,-0.4732,-0.4801,-0.4825,-0.5274,-0.6201,-0.5988,-0.5759,-0.5674,-0.5474,-0.5318,-0.5226,-0.5297,-0.5224,0.0,0.0,0.0,0.0,0.0,0.0,0.0,0.0,0.0,0.0,0.0,-0.4246,-0.4314,0.0,0.0,0.0,-0.4541,-0.4599,-0.4375,-0.4375,0.0,0.0,0.0,0.0,0.0,0.0,0.0,-0.5081,-0.5154,-0.5331,-0.563,-0.5659,-0.5635,-0.5593,-0.5616,-0.5728,-0.5871,0.0,-0.5915,-0.5976,-0.6034,-0.6067,-0.6067,-0.6118,-0.619,-0.6281,-0.6437,-0.661,-0.6759,-0.679,-0.681,-0.6861,-0.6875,-0.6878,-0.6875,-0.6725,-0.6586,-0.6569,-0.6614,-0.6685,-0.678,-0.6834,-0.6861,-0.0,-0.0,-0.0,-0.0,-0.0,-0.0,-0.0,-0.0,-0.0,-0.0089,-0.0175,-0.0086,-0.0084,-0.0,-0.008,0.0,-0.0082,-0.0084,-0.0,-0.009,-0.1105,-0.1596,-0.1625,-0.1245,-0.1532,-0.2485,-0.1782,-0.2136,-0.3144,-0.4016,-0.4287,-0.4008,-0.3768,-0.3854,-0.4496,-0.4811,-0.5228,-0.5746,-0.5539,-0.5508,-0.5827,-0.6097,-0.6261,-0.6254,-0.5959,-0.58,-0.5793,-0.5518,-0.5428,-0.5422,-0.5424,-0.541,-0.5407,0.0,0.0,0.0,0.0,0.0,0.0,0.0,0.0,0.0,0.0,0.0,0.0,0.0,0.0,0.0,-0.4918,0.0,-0.4918,-0.4918,0.0,0.0,0.0,-0.4952,-0.4952,-0.4975,-0.5157,-0.5432,0.0,0.0,-0.6076,-0.6327,-0.6259,-0.5906,-0.5899,-0.5874,-0.6023,-0.6044,-0.6101,-0.6297,-0.6438,-0.6527,-0.651,-0.6569,-0.6678,-0.6688,-0.6729,-0.6793,-0.6912,-0.6943,-0.7,-0.7011,-0.7136,-0.7132,-0.7136,-0.7105,-0.7058,-0.6783,-0.6844,-0.6943,-0.6946,-0.7034,-0.7075,-0.0,-0.0,-0.0,-0.0,-0.0,-0.0,-0.0,-0.0,-0.0844,-0.1219,-0.1212,-0.1188,-0.0985,-0.0614,-0.0611,-0.0611,-0.0614,-0.0628,-0.0637,-0.0645,-0.1335,-0.1845,-0.2245,-0.2474,-0.2767,-0.3023,-0.2814,-0.3072,-0.3781,-0.4593,-0.509,-0.5177,-0.5172,-0.5233,-0.5359,-0.5695,-0.6048,-0.6433,-0.6381,-0.6339,-0.6227,-0.6254,-0.6261,-0.6257,-0.5962,-0.58,-0.5796,-0.5518,-0.5428,-0.5428,-0.5394,-0.5377,-0.537,-0.5424,0.0,0.0,0.0,0.0,0.0,0.0,0.0,0.0,0.0,-0.484,-0.4911,0.0,-0.4793,0.0,-0.4918,-0.4918,-0.4918,-0.4918,0.0,0.0,-0.5244,-0.551,-0.5513,-0.5791,-0.6106,-0.618,-0.6191,-0.6264,-0.6467,-0.6493,-0.6541,-0.6651,-0.6492,-0.6477,-0.6627,-0.6652,-0.6663,-0.6784,-0.6747,-0.6812,-0.6715,-0.6785,-0.6865,-0.6875,-0.6956,-0.7048,-0.7082,-0.7001,-0.7105,-0.7132,-0.7139,-0.7139,-0.7136,-0.7139,-0.7119,-0.7051,-0.7068,-0.7092,-0.7088,-0.7119,-0.7041,-0.0,-0.0,-0.0528,-0.0715,-0.0683,-0.0676,-0.0581,-0.0392,-0.0979,-0.1266,-0.1255,-0.1514,-0.1398,-0.1199,-0.1199,-0.1291,-0.1478,-0.1507,-0.1521,-0.1523,-0.2059,-0.2486,-0.2787,-0.3214,-0.3412,-0.3577,-0.3673,-0.4046,-0.4685,-0.5425,-0.5947,-0.6059,-0.6308,-0.6352,-0.6383,-0.6392,-0.6552,-0.6803,-0.68,-0.6642,-0.6322,-0.6347,-0.6325,-0.6261,-0.6027,-0.5901,-0.5901,-0.5681,-0.5559,-0.5555,-0.5487,-0.5415,-0.5411,-0.5406,-0.5426,0.0,0.0,0.0,0.0,0.0,0.0,0.0,0.0,0.0,0.0,0.0,-0.5176,-0.5311,-0.538,-0.5446,-0.5446,-0.5512,-0.5574,-0.5574,-0.5794,-0.6032,-0.6032,-0.6261,-0.6474,-0.6622,-0.6775,-0.6915,-0.7084,-0.7187,-0.7299,-0.7395,-0.7323,-0.7147,-0.6919,-0.6865,-0.6865,-0.6865,-0.6924,-0.7036,-0.7042,-0.7047,-0.708,-0.7088,-0.7062,-0.7025,-0.7028,-0.6943,-0.6943,-0.6943,-0.6946,-0.697,-0.7031,-0.6957,-0.7061,-0.7126,-0.7231,-0.7231,-0.7139,-0.7139,-0.7139,-0.0109,-0.0322,-0.1394,-0.1698,-0.1566,-0.1641,-0.142,-0.0909,-0.0909,-0.0901,-0.0984,-0.1452,-0.1729,-0.173,-0.1729,-0.1922,-0.2406,-0.2447,-0.2466,-0.2467,-0.3006,-0.3331,-0.3331,-0.3731,-0.393,-0.4232,-0.4429,-0.5031,-0.5734,-0.644,-0.6781,-0.6866,-0.712,-0.724,-0.7221,-0.6943,-0.6827,-0.6897,-0.6946,-0.677,-0.6443,-0.6468,-0.6403,-0.6342,-0.6108,-0.603,-0.6027,-0.5881,-0.58,-0.58,-0.5578,-0.5431,-0.5431,-0.5506,-0.5506,0.0,-0.5506,0.0,0.0,0.0,0.0,0.0,0.0,0.0,0.0,-0.5581,-0.5581,-0.5875,-0.6093,-0.6169,-0.6169,-0.6309,-0.6376,-0.6448,-0.6467,-0.655,-0.655,-0.6569,-0.6714,-0.7084,-0.7323,-0.753,-0.7829,-0.8021,-0.8178,-0.8178,-0.8093,-0.7931,-0.7322,-0.7169,-0.7096,-0.7022,-0.7081,-0.7224,-0.7275,-0.7345,-0.7289,-0.7289,-0.713,-0.7026,-0.7044,-0.6957,-0.6795,-0.6795,-0.6805,-0.6843,-0.6963,-0.6987,-0.7025,-0.7128,-0.7323,-0.7348,-0.7217,-0.7231,-0.7231,-0.0557,-0.1443,-0.1753,-0.174,-0.1731,-0.2019,-0.1869,-0.1415,-0.1415,-0.1613,-0.1909,-0.2201,-0.2196,-0.2196,-0.2296,-0.2297,-0.2397,-0.2607,-0.2711,-0.2711,-0.3525,-0.3831,-0.3932,-0.4834,-0.5236,-0.5336,-0.5734,-0.6237,-0.6539,-0.6719,-0.7009,-0.74,-0.7362,-0.7485,-0.7664,0.0,0.0,0.0,-0.696,-0.6939,-0.6957,-0.6637,-0.6403,-0.6264,-0.6112,0.0,-0.6027,-0.5881,-0.58,-0.58,-0.5728,0.0,0.0,0.0,0.0,0.0,0.0,0.0,0.0,0.0,0.0,0.0,-0.6079,-0.6013,-0.581,-0.5946,-0.6169,-0.6603,-0.6527,-0.6305,-0.6376,-0.6376,-0.6444,-0.6662,-0.6929,-0.7163,-0.7323,-0.7597,-0.7782,-0.7888,-0.804,-0.8206,-0.8313,-0.8475,-0.8627,-0.8627,-0.8551,-0.8551,-0.8394,-0.8093,-0.7868,-0.7885,-0.7708,-0.7597,-0.7641,-0.743,-0.7334,-0.7281,-0.7281,-0.727,-0.7263,-0.7184,-0.7191,-0.7184,-0.7195,-0.7199,-0.7242,-0.7242,-0.7174,-0.7286,-0.7293,-0.737,-0.7446,-0.7588,-0.7764,-0.1234,0.0,-0.178,-0.1875,0.0,-0.2166,-0.2234,-0.2282,-0.2158,-0.2139,-0.2323,-0.2522,-0.2623,-0.2623,-0.2725,-0.2825,-0.3025,-0.3228,-0.3429,-0.3632,-0.4336,-0.4634,-0.4832,-0.5634,-0.6037,-0.6237,-0.6537,-0.6839,-0.7144,-0.7144,-0.7344,-0.7743,-0.777,-0.773,-0.7919,-0.7777,-0.75,-0.7093,-0.7058,-0.7015,-0.7054,-0.6791,-0.6481,-0.6349,0.0,0.0,0.0,0.0,0.0,0.0,0.0,0.0,0.0,0.0,0.0,-0.6257,-0.6261,-0.6261,-0.6261,-0.6403,-0.6481,-0.6402,-0.6709,-0.657,-0.6105,-0.6318,-0.6779,-0.7389,-0.715,-0.699,-0.706,-0.7134,-0.729,-0.7364,-0.7667,-0.7873,-0.7961,-0.8263,-0.8399,-0.8551,-0.8627,-0.8775,-0.9013,-0.9089,-0.916,-0.9311,-0.9311,-0.9311,-0.9236,-0.878,-0.8403,-0.8255,-0.8172,-0.8013,-0.7943,-0.7766,-0.7684,-0.7676,-0.7597,-0.7513,-0.7437,-0.7358,-0.7202,-0.7118,-0.7118,-0.7137,-0.7226,-0.7241,-0.7267,-0.742,-0.7522,-0.7737,-0.7847,-0.7935,-0.7906,-0.1795,-0.1907,-0.1907,-0.2115,-0.2418,-0.2417,-0.2828,-0.3314,0.0,0.0,0.0,-0.2944,-0.304,-0.3141,-0.3335,-0.3531,-0.383,-0.4133,-0.4336,-0.4638,-0.514,-0.5539,-0.5834,-0.6337,-0.6739,-0.6945,-0.7138,-0.7338,-0.7646,-0.7643,-0.7743,-0.7939,-0.8038,-0.8038,-0.8028,-0.7885,-0.758,-0.723,-0.7165,-0.7131,-0.7097,-0.6826,-0.66,-0.6305,-0.6295,-0.6362,-0.6261,-0.6261,-0.6261,-0.6261,-0.6261,-0.6271,-0.6295,-0.6298,-0.6308,-0.6257,-0.626,-0.6335,-0.6342,-0.6527,-0.6757,-0.6921,-0.7289,-0.7241,-0.6478,-0.6861,-0.743,-0.8169,-0.7876,-0.7756,-0.7906,-0.8111,-0.8255,-0.8255,-0.8403,-0.8551,-0.8632,-0.878,-0.8932,-0.9155,-0.9231,-0.9306,-0.962,-0.9695,-0.9846,-0.9992,-0.9992,-0.9992,-0.9916,-0.9311,-0.8856,-0.8713,-0.8574,-0.8412,-0.8336,-0.8192,-0.8178,-0.8209,-0.8038,-0.7863,-0.7714,-0.7484,-0.733,-0.7208,-0.7099,-0.7165,-0.7277,-0.7307,-0.7358,-0.7651,-0.7923,-0.8085,-0.8269,-0.8238,-0.8207,-0.202,-0.2356,-0.2356,-0.2465,-0.2684,-0.3242,-0.3871,-0.4458,-0.3955,-0.3708,-0.3695,-0.3951,-0.4128,-0.433,-0.4266,-0.4336,-0.4634,-0.4939,-0.514,-0.5434,-0.5937,-0.6339,-0.6642,-0.7144,-0.7447,-0.7547,-0.7743,-0.7839,-0.7942,-0.7939,-0.7939,-0.8038,-0.8038,-0.8038,-0.8028,-0.7885,-0.7828,-0.7858,-0.7513,-0.7286,-0.7086,-0.6984,-0.6669,-0.6298,-0.6441,-0.6383,-0.6345,-0.6264,-0.6261,-0.6261,-0.6261,-0.6312,-0.6268,-0.6278,-0.625,-0.6289,-0.6299,-0.6384,-0.6637,-0.6658,-0.6833,-0.7334,-0.7765,-0.7659,-0.6944,-0.7523,-0.8114,-0.853,-0.8524,-0.8575,-0.8562,-0.8658,-0.8718,-0.8861,-0.8932,-0.9079,-0.9392,-0.9468,-0.9539,-0.9765,-0.9916,-1.0062,-1.0143,-1.0288,-1.0368,-1.0438,-1.0519,-1.0438,-1.0363,-0.9841,-0.9468,-0.9392,-0.916,-0.8922,-0.8851,-0.8699,-0.8627,-0.8627,-0.8479,-0.8322,-0.8246,-0.8102,-0.7949,-0.7949,-0.7868,-0.7885,-0.7923,-0.7987,-0.7944,-0.8069,-0.8225,-0.8367,-0.8462,-0.8769,-0.9071,-0.2037,-0.2469,-0.2917,-0.3141,-0.3251,-0.4145,-0.4906,-0.5312,-0.5271,-0.4982,-0.4682,-0.4851,-0.4936,-0.4932,-0.5209,-0.55,-0.5808,-0.6017,-0.622,-0.6529,-0.6944,-0.7217,-0.7456,-0.7655,-0.7815,-0.7849,-0.7942,-0.8038,-0.8038,-0.8038,-0.8038,-0.8038,-0.8038,-0.8038,-0.8035,-0.797,-0.7962,-0.8009,-0.7585,-0.732,-0.7118,-0.6932,-0.6824,-0.677,-0.6597,-0.6563,-0.6505,-0.6502,-0.6498,-0.6502,-0.6502,-0.6445,-0.6339,-0.6597,-0.6713,-0.6695,-0.6702,-0.6785,-0.6871,-0.7111,-0.7359,-0.7788,-0.8227,-0.8479,-0.8223,-0.8296,-0.8773,-0.962,-0.9337,-0.9261,-0.9572,-0.9463,-0.9488,-0.972,-0.9687,-0.9765,-0.9916,-0.9992,-1.0137,-1.0218,-1.0368,-1.0588,-1.0663,-1.0887,-1.1037,-1.1111,-1.1111,-1.1111,-1.1111,-1.0743,-1.0293,-0.9992,-0.976,-0.9609,-0.9533,-0.9387,-0.9311,-0.9236,-0.9089,-0.8932,-0.8775,-0.8627,-0.8556,-0.8479,-0.8399,-0.8403,-0.8399,-0.8403,-0.8475,-0.8551,-0.8627,-0.878,-0.9037,-0.9566,-0.9951,-0.2278,-0.2692,-0.3363,-0.3698,-0.4035,-0.5039,-0.5708,-0.6156,-0.6381,-0.6289,-0.5819,-0.5892,-0.5665,-0.5448,-0.6068,-0.6482,-0.6907,-0.7015,-0.7118,-0.7431,-0.7644,-0.7903,-0.8007,-0.7971,-0.7998,-0.8096,-0.8058,-0.8038,-0.8038,-0.8038,-0.8038,-0.8038,-0.8038,-0.8038,-0.8038,-0.8038,-0.7967,-0.8007,-0.7681,-0.7416,-0.7131,-0.6907,-0.6905,-0.7028,-0.6836,-0.6736,-0.6702,-0.6702,-0.6702,-0.6698,-0.6615,-0.6546,-0.6408,-0.6753,-0.7024,-0.714,-0.7147,-0.7147,-0.7242,-0.7506,-0.7801,-0.8185,-0.8732,-0.9087,-0.9248,-0.9164,-0.9493,-1.044,-1.0125,-0.9973,-1.035,-1.0413,-1.0353,-1.0494,-1.0584,-1.0571,-1.0619,-1.072,-1.0831,-1.0901,-1.0929,-1.1111,-1.1186,-1.1335,-1.1484,-1.1632,-1.1706,-1.1706,-1.1632,-1.1409,-1.1037,-1.0663,-1.0368,-1.0218,-1.0067,-0.9997,-0.9916,-0.9771,-0.9771,-0.9614,-0.9382,-0.9231,-0.9079,-0.8932,-0.8856,-0.8856,-0.8856,-0.8932,-0.9003,-0.9155,-0.9231,-0.9382,-0.97,-1.0259,-1.0622,-0.3073,-0.3479,-0.3587,-0.4257,-0.526,-0.5599,-0.6265,-0.7043,-0.7154,-0.7368,-0.7543,-0.6901,-0.6418,-0.6295,-0.685,-0.7235,-0.7446,-0.7548,-0.7762,-0.7973,-0.8065,-0.8164,-0.8452,-0.8333,-0.8262,-0.8228,-0.8106,-0.8038,-0.8038,-0.8038,-0.8038,-0.8038,-0.8038,-0.8038,-0.8038,-0.8038,-0.7967,-0.8018,-0.7883,-0.753,-0.7158,-0.7101,-0.7054,-0.7093,-0.7083,-0.6929,-0.6725,-0.6702,-0.6702,-0.6702,-0.6709,-0.6682,-0.6714,-0.6731,-0.6877,-0.7082,-0.7095,-0.7285,-0.7735,-0.783,-0.8006,-0.8197,-0.8903,-0.9253,-0.9331,-0.9817,-1.0245,-1.0656,-1.0831,-1.0872,-1.0934,-1.1067,-1.1169,-1.1244,-1.1438,-1.1621,-1.1714,-1.1786,-1.187,-1.2037,-1.1746,-1.1639,-1.1664,-1.1726,-1.1706,-1.1781,-1.1781,-1.1781,-1.1781,-1.1706,-1.1626,-1.1409,-1.0968,-1.0519,-1.0519,-1.0443,-1.0438,-1.0438,-1.0288,-1.0137,-0.9986,-0.9765,-0.9544,-0.9539,-0.9392,-0.9392,-0.9468,-0.9544,-0.962,-0.9765,-0.9911,-1.0137,-1.0396,-1.0871,-1.1155,-0.3673,-0.4147,-0.4929,-0.5708,-0.6485,-0.6599,-0.7043,-0.7709,-0.7709,-0.782,-0.8039,-0.7764,-0.752,-0.7298,-0.7574,-0.7883,-0.832,-0.8208,-0.8317,-0.8537,-0.8534,-0.8598,-0.8608,-0.8465,-0.8357,-0.8262,-0.8116,-0.8038,-0.8038,-0.8038,-0.8038,-0.8038,-0.8038,-0.8038,-0.8038,-0.8038,-0.8007,-0.7946,-0.7855,-0.7753,-0.7617,-0.7302,-0.7115,-0.7075,-0.7145,-0.7027,-0.697,-0.6963,-0.6963,-0.6959,-0.6959,-0.6903,-0.696,-0.6964,-0.6991,-0.7136,-0.7139,-0.7319,-0.786,-0.7944,-0.8116,-0.8556,-0.8995,-0.934,-0.9318,-1.0193,-1.0911,-1.1354,-1.1257,-1.1357,-1.1843,-1.1975,-1.1992,-1.2219,-1.2265,-1.2258,-1.2326,-1.2311,-1.2315,-1.2387,-1.2305,-1.2207,-1.2168,-1.2114,-1.2096,-1.2077,-1.2077,-1.2009,-1.2083,-1.1935,-1.1855,-1.1855,-1.1484,-1.126,-1.1186,-1.1186,-1.1111,-1.0887,-1.0812,-1.0663,-1.0443,-1.0293,-1.0143,-1.0148,-1.0067,-0.9992,-1.0143,-1.0148,-1.0148,-1.0293,-1.0594,-1.0812,-1.0968,-1.1487,-1.1762,-0.4254,-0.4936,-0.6047,-0.6826,-0.7268,-0.7379,-0.7709,-0.8152,-0.8156,-0.8156,-0.8266,-0.8491,-0.8488,-0.8269,-0.8266,-0.8494,-0.8826,-0.8709,-0.8709,-0.8937,-0.8937,-0.8879,-0.876,-0.8567,-0.8428,-0.8313,-0.8133,-0.8038,-0.8038,-0.8038,-0.8038,-0.8038,-0.8038,-0.8038,-0.8038,-0.8038,-0.8038,-0.8028,-0.7926,-0.7952,-0.789,-0.76,-0.7305,-0.7128,-0.7071,-0.7139,-0.7139,-0.7139,-0.7139,-0.7139,-0.7139,-0.7139,-0.7139,-0.7139,-0.7139,-0.7139,-0.7139,-0.7319,-0.7856,-0.7944,-0.8204,-0.8823,-0.9174,-0.9331,-0.9483,-1.0361,-1.1343,-1.2072,-1.1871,-1.2003,-1.251,-1.262,-1.2683,-1.2997,-1.299,-1.2881,-1.2894,-1.2911,-1.284,-1.2901,-1.2759,-1.2698,-1.2593,-1.243,-1.2305,-1.2305,-1.2305,-1.2305,-1.2305,-1.2157,-1.2083,-1.2077,-1.1929,-1.1774,-1.1706,-1.1632,-1.1558,-1.1403,-1.1254,-1.1186,-1.0893,-1.0812,-1.0738,-1.0743,-1.0743,-1.0738,-1.0738,-1.0743,-1.0743,-1.0893,-1.1037,-1.126,-1.1409,-1.1929,-1.2382,-0.5113,-0.5828,-0.6824,-0.7268,-0.7607,-0.7823,-0.8152,-0.8484,-0.8488,-0.8598,-0.8826,-0.8826,-0.8826,-0.883,-0.8826,-0.8826,-0.8937,-0.8826,-0.8826,-0.8937,-0.8937,-0.8933,-0.8906,-0.8625,-0.8476,-0.8428,-0.817,-0.8038,-0.8038,-0.8038,-0.8038,-0.8038,-0.8038,-0.8038,-0.8038,-0.8038,-0.8038,-0.8035,-0.8021,-0.796,-0.8032,-0.7994,-0.7641,-0.7204,-0.7128,-0.7153,-0.7146,-0.7143,-0.7139,-0.7139,-0.7139,-0.7139,-0.7139,-0.7139,-0.7139,-0.7139,-0.7139,-0.7319,-0.7764,-0.7944,-0.8208,-0.8823,-0.917,-0.9331,-0.947,-1.0438,-1.1521,-1.2525,-1.2564,-1.2619,-1.2705,-1.2923,-1.3171,-1.3347,-1.3516,-1.3574,-1.3665,-1.35,-1.3559,-1.3506,-1.3293,-1.3001,-1.2786,-1.2485,-1.2345,-1.2311,-1.2305,-1.2305,-1.2305,-1.2305,-1.2231,-1.2231,-1.2231,-1.215,-1.1781,-1.1781,-1.1781,-1.1626,-1.1626,-1.1632,-1.1558,-1.149,-1.1416,-1.1341,-1.1192,-1.1186,-1.126,-1.1409,-1.1409,-1.1484,-1.1558,-1.1706,-1.1706,-1.2344,-1.2792,-0.6023,-0.7276,-0.7601,-0.7931,-0.8156,-0.8263,-0.8488,-0.8712,-0.8712,-0.8823,-0.8937,-0.8937,-0.8937,-0.8937,-0.8937,-0.8937,-0.8937,-0.8937,-0.8937,-0.8937,-0.8937,-0.8937,-0.8906,-0.8628,-0.8482,-0.8438,-0.8184,-0.8038,-0.8038,-0.8038,-0.8038,-0.8038,-0.8038,-0.8038,-0.8038,-0.8038,-0.8038,-0.8038,-0.8038,-0.8011,-0.795,-0.7962,-0.7856,-0.7651,-0.7322,-0.7192,-0.7288,-0.7197,-0.7139,-0.7139,-0.7139,-0.7139,-0.7139,-0.7139,-0.7139,-0.7139,-0.7139,-0.7319,-0.7764,-0.7948,-0.8388,-0.9082,-0.9345,-0.9589,-0.9908,-1.0788,-1.1785,-1.2514,-1.2918,-1.2966,-1.3137,-1.3398,-1.3561,-1.3828,-1.3913,-1.3913,-1.3984,-1.3904,-1.3928,-1.3888,-1.3667,-1.3307,-1.2899,-1.2728,-1.2512,-1.2345,-1.2311,-1.2311,-1.2305,-1.2305,-1.2305,-1.2305,-1.2305,-1.2231,-1.215,-1.2077,-1.2077,-1.1929,-1.1848,-1.1781,-1.1713,-1.1706,-1.1632,-1.1632,-1.1484,-1.1558,-1.1632,-1.1632,-1.1706,-1.1855,-1.1929,-1.1929,-1.2077,-1.2582,-1.2929,-0.7009,-0.8171,-0.8159,-0.8377,-0.8598,-0.8598,-0.8712,-0.8937,-0.8937,-0.8937,-0.8937,-0.8937,-0.8937,-0.8937,-0.8937,-0.8937,-0.8937,-0.8937,-0.8937,-0.8937,-0.8937,-0.8937,-0.8896,-0.8676,-0.8526,-0.8442,-0.818,-0.8038,-0.8038,-0.8038,-0.8038,-0.8038,-0.8038,-0.8038,-0.8038,-0.8038,-0.8038,-0.8038,-0.8038,-0.8038,-0.8028,-0.8041,-0.7986,-0.7949,-0.7641,-0.7369,-0.7377,-0.7272,-0.7187,-0.7149,-0.7139,-0.7139,-0.7139,-0.7139,-0.7139,-0.7139,-0.7139,-0.7319,-0.7852,-0.8036,-0.8476,-0.917,-0.9515,-0.9763,-1.0178,-1.1144,-1.2043,-1.2765,-1.3089,-1.3307,-1.3476,-1.3737,-1.3913,-1.4088,-1.4088,-1.4088,-1.4088,-1.4088,-1.4082,-1.4035,-1.3801,-1.3454,-1.312,-1.2973,-1.2766,-1.2485,-1.2445,-1.2425,-1.2331,-1.2305,-1.2305,-1.2305,-1.2305,-1.2305,-1.2231,-1.2231,-1.2231,-1.215,-1.2077,-1.2009,-1.1935,-1.1855,-1.1855,-1.1855,-1.1855,-1.1929,-1.1929,-1.1855,-1.1929,-1.2077,-1.2077,-1.215,-1.2423,-1.2729,-1.2988,-0.8054,-0.8826,-0.8598,-0.8602,-0.8826,-0.8826,-0.8937,-0.8937,-0.8937,-0.8937,-0.8937,-0.8937,-0.8937,-0.8937,-0.8937,-0.8937,-0.8937,-0.8937,-0.8937,-0.8937,-0.8937,-0.8937,-0.8927,-0.8767,-0.8608,-0.8472,-0.8187,-0.8052,-0.8062,-0.8048,-0.8038,-0.8038,-0.8038,-0.8038,-0.8038,-0.8038,-0.8038,-0.8038,-0.8038,-0.8038,-0.8038,-0.8024,-0.8018,-0.8011,-0.7976,-0.7767,-0.7411,-0.7373,-0.7285,-0.716,-0.7139,-0.7139,-0.7139,-0.7139,-0.7139,-0.7139,-0.7139,-0.7408,-0.7856,-0.8036,-0.848,-0.9174,-0.9519,-0.9951,-1.0636,-1.1332,-1.2215,-1.3114,-1.3345,-1.3476,-1.3652,-1.3913,-1.4082,-1.4088,-1.4088,-1.4088,-1.4088,-1.4088,-1.4088,-1.4048,-1.3848,-1.3661,-1.3574,-1.3367,-1.3093,-1.2846,-1.2788,-1.2694,-1.2412,-1.2345,-1.2305,-1.2305,-1.2305,-1.2305,-1.2305,-1.2305,-1.2305,-1.2305,-1.2231,-1.2231,-1.2157,-1.2157,-1.2083,-1.2157,-1.2083,-1.2157,-1.2083,-1.2083,-1.2157,-1.2231,-1.2231,-1.2271,-1.2585,-1.2846,-1.3113,-0.8491,-0.8826,-0.8823,-0.8823,-0.8937,-0.8937,-0.8937,-0.8937,-0.8937,-0.8937,-0.8937,-0.8937,-0.8937,-0.8937,-0.8937,-0.8937,-0.8937,-0.8937,-0.8937,-0.8937,-0.8937,-0.8937,-0.891,-0.8781,-0.8632,-0.8476,-0.8292,-0.8197,-0.818,-0.8096,-0.8038,-0.8038,-0.8041,-0.8038,-0.8038,-0.8038,-0.8038,-0.8038,-0.8038,-0.8038,-0.8038,-0.8038,-0.8038,-0.8035,-0.7994,-0.7872,-0.7682,-0.7482,-0.7302,-0.7153,-0.7139,-0.7139,-0.7139,-0.7139,-0.7139,-0.7139,-0.7139,-0.7319,-0.7856,-0.822,-0.8664,-0.9262,-0.9607,-1.0299,-1.0997,-1.1602,-1.2301,-1.3101,-1.3332,-1.3476,-1.373,-1.3906,-1.4082,-1.4088,-1.4088,-1.4088,-1.4088,-1.4088,-1.4088,-1.4082,-1.4001,-1.3868,-1.3694,-1.3527,-1.3394,-1.3106,-1.2913,-1.2726,-1.2612,-1.2432,-1.2305,-1.2305,-1.2305,-1.2305,-1.2305,-1.2305,-1.2305,-1.2305,-1.2305,-1.2305,-1.2305,-1.2305,-1.2305,-1.2305,-1.2305,-1.2305,-1.2305,-1.2305,-1.2305,-1.2305,-1.2305,-1.2425,-1.2605,-1.2859,-1.3153,-0.8709,-0.8937,-0.8937,-0.8937,-0.8937,-0.8937,-0.8937,-0.8937,-0.8937,-0.8937,-0.8937,-0.8937,-0.8937,-0.8937,-0.8937,-0.8937,-0.8937,-0.8937,-0.8937,-0.8937,-0.8937,-0.8937,-0.8916,-0.8784,-0.8669,-0.8557,-0.8418,-0.8347,-0.834,-0.8099,-0.8022,-0.8123,-0.8069,-0.8038,-0.8038,-0.8038,-0.8038,-0.8038,-0.8038,-0.8038,-0.8038,-0.8038,-0.8038,-0.8038,-0.8038,-0.796,-0.7807,-0.7577,-0.7387,-0.7244,-0.7177,-0.7143,-0.7139,-0.7139,-0.7139,-0.7139,-0.7143,-0.7319,-0.7856,-0.8312,-0.8844,-0.9262,-0.9694,-1.0304,-1.1176,-1.1699,-1.2307,-1.3083,-1.3326,-1.3483,-1.3652,-1.3913,-1.4088,-1.4088,-1.4088,-1.4088,-1.4088,-1.4088,-1.4088,-1.4082,-1.4075,-1.3981,-1.3868,-1.3794,-1.3687,-1.3414,-1.3206,-1.2926,-1.2896,-1.2667,-1.2472,-1.2365,-1.2305,-1.2305,-1.2305,-1.2305,-1.2305,-1.2305,-1.2305,-1.2305,-1.2305,-1.2305,-1.2305,-1.2305,-1.2305,-1.2305,-1.2305,-1.2305,-1.2305,-1.2305,-1.2318,-1.2458,-1.2639,-1.2953,-1.3253,-0.8709,-0.8937,-0.8937,-0.8937,-0.8937,-0.8937,-0.8937,-0.8937,-0.8937,-0.8937,-0.8937,-0.8937,-0.8937,-0.8937,-0.8937,-0.8937,-0.8937,-0.8937,-0.8937,-0.8937,-0.8937,-0.8937,-0.8916,-0.8808,-0.8743,-0.8703,-0.8461,-0.8391,-0.8489,-0.8243,-0.817,-0.8238,-0.813,-0.8045,-0.8045,-0.8038,-0.8038,-0.8038,-0.8038,-0.8038,-0.8038,-0.8038,-0.8038,-0.8038,-0.8035,-0.7977,-0.7851,-0.7672,-0.7506,-0.736,-0.72,-0.7139,-0.7139,-0.7139,-0.7139,-0.7139,-0.7139,-0.7408,-0.7856,-0.8312,-0.8844,-0.9262,-0.9689,-1.0294,-1.117,-1.1693,-1.2307,-1.2997,-1.3326,-1.3483,-1.373,-1.3913,-1.4088,-1.4088,-1.4088,-1.4088,-1.4088,-1.4088,-1.4088,-1.4088,-1.4088,-1.4082,-1.4048,-1.4041,-1.3915,-1.3741,-1.3607,-1.332,-1.3026,-1.2812,-1.2612,-1.2492,-1.2392,-1.2305,-1.2305,-1.2305,-1.2305,-1.2305,-1.2305,-1.2305,-1.2305,-1.2305,-1.2305,-1.2305,-1.2305,-1.2305,-1.2305,-1.2305,-1.2305,-1.2305,-1.2371,-1.2478,-1.2746,-1.31,-1.3407,-0.8823,-0.8937,-0.8937,-0.8937,-0.8937,-0.8937,-0.8937,-0.8937,-0.8937,-0.8937,-0.8937,-0.8937,-0.8937,-0.8937,-0.8937,-0.8937,-0.8937,-0.8937,-0.8937,-0.8937,-0.8937,-0.8937,-0.8937,-0.8903,-0.8872,-0.8849,-0.8723,-0.8762,-0.8749,-0.8713,-0.8484,-0.8272,-0.8228,-0.8143,-0.8062,-0.8038,-0.8038,-0.8038,-0.8038,-0.8038,-0.8038,-0.8038,-0.8038,-0.8038,-0.8038,-0.8018,-0.7953,-0.7729,-0.7472,-0.7224,-0.7166,-0.7139,-0.7139,-0.7139,-0.7139,-0.7139,-0.7139,-0.7319,-0.7856,-0.8312,-0.8844,-0.9262,-0.9689,-1.0294,-1.0987,-1.1602,-1.2209,-1.2802,-1.3137,-1.3483,-1.3652,-1.3913,-1.4088,-1.4088,-1.4088,-1.4088,-1.4088,-1.4088,-1.4088,-1.4088,-1.4088,-1.4088,-1.4088,-1.4082,-1.4048,-1.3941,-1.3788,-1.3519,-1.3313,-1.3013,-1.2806,-1.2625,-1.2505,-1.2378,-1.2305,-1.2305,-1.2305,-1.2305,-1.2305,-1.2305,-1.2305,-1.2305,-1.2305,-1.2305,-1.2305,-1.2305,-1.2305,-1.2305,-1.2305,-1.2338,-1.2492,-1.2659,-1.3006,-1.3353,-1.3621,-0.8937,-0.8937,-0.8937,-0.8937,-0.8937,-0.8937,-0.8937,-0.8937,-0.8937,-0.8937,-0.8937,-0.8937,-0.8937,-0.8937,-0.8937,-0.8937,-0.8937,-0.8937,-0.8937,-0.8937,-0.8937,-0.8937,-0.8937,-0.8937,-0.8937,-0.8933,-0.8961,-0.8924,-0.8893,-0.8876,-0.872,-0.8481,-0.8299,-0.8191,-0.8048,-0.8038,-0.8038,-0.8038,-0.8038,-0.8038,-0.8038,-0.8038,-0.8038,-0.8038,-0.8035,-0.8018,-0.7923,-0.7719,-0.7485,-0.7282,-0.718,-0.7139,-0.7139,-0.7139,-0.7139,-0.7139,-0.7139,-0.7319,-0.7856,-0.8312,-0.884,-0.9262,-0.9781,-1.0294,-1.0901,-1.1596,-1.2118,-1.2534,-1.2869,-1.3209,-1.3561,-1.3913,-1.4088,-1.4088,-1.4088,-1.4088,-1.4088,-1.4088,-1.4088,-1.4088,-1.4088,-1.4088,-1.4088,-1.4088,-1.4088,-1.4055,-1.3948,-1.3788,-1.3594,-1.3287,-1.2999,-1.2826,-1.2659,-1.2525,-1.2385,-1.2345,-1.2318,-1.2318,-1.2305,-1.2305,-1.2305,-1.2305,-1.2305,-1.2305,-1.2305,-1.2305,-1.2305,-1.2338,-1.2405,-1.2485,-1.2728,-1.2913,-1.326,-1.3514,-1.3794,-0.896,-0.8964,-0.8964,-0.896,-0.8964,-0.8947,-0.8937,-0.8937,-0.8937,-0.8937,-0.8937,-0.8937,-0.8937,-0.8937,-0.8937,-0.8937,-0.8937,-0.8937,-0.8937,-0.8937,-0.8937,-0.8937,-0.8937,-0.8937,-0.8937,-0.8937,-0.8937,-0.8927,-0.8886,-0.8896,-0.8769,-0.8513,-0.8374,-0.8225,-0.8109,-0.8058,-0.8038,-0.8038,-0.8038,-0.8038,-0.8038,-0.8038,-0.8038,-0.8038,-0.8038,-0.7984,-0.7868,-0.7712,-0.7563,-0.7431,-0.7244,-0.7149,-0.7139,-0.7139,-0.7139,-0.7139,-0.7139,-0.7319,-0.7856,-0.8312,-0.884,-0.9262,-0.9694,-1.0212,-1.0901,-1.1419,-1.1849,-1.2283,-1.2601,-1.2948,-1.3392,-1.3828,-1.4004,-1.4088,-1.4088,-1.4088,-1.4088,-1.4088,-1.4088,-1.4088,-1.4088,-1.4088,-1.4088,-1.4088,-1.4088,-1.4088,-1.4015,-1.3941,-1.3788,-1.3561,-1.328,-1.3039,-1.2866,-1.2692,-1.2532,-1.2392,-1.2351,-1.2325,-1.2311,-1.2305,-1.2305,-1.2305,-1.2305,-1.2305,-1.2305,-1.2305,-1.2305,-1.2365,-1.2505,-1.2679,-1.2866,-1.3166,-1.3487,-1.3667,-1.3908,-0.9222,-0.9226,-0.9222,-0.9106,-0.9089,-0.8991,-0.8937,-0.8937,-0.8937,-0.8937,-0.8937,-0.8937,-0.8937,-0.8937,-0.8937,-0.8937,-0.8937,-0.8937,-0.8937,-0.8937,-0.8937,-0.8937,-0.8937,-0.8937,-0.8937,-0.8937,-0.8937,-0.8937,-0.892,-0.8889,-0.8811,-0.8652,-0.8506,-0.8364,-0.8225,-0.8106,-0.8038,-0.8038,-0.8038,-0.8038,-0.8038,-0.8038,-0.8038,-0.8038,-0.8038,-0.8024,-0.797,-0.7848,-0.7753,-0.7634,-0.7373,-0.7177,-0.716,-0.7146,-0.7139,-0.7139,-0.7139,-0.7319,-0.7852,-0.8312,-0.8756,-0.9262,-0.9519,-0.9951,-1.0727,-1.1144,-1.158,-1.202,-1.2437,-1.2948,-1.3476,-1.3737,-1.3913,-1.4004,-1.4082,-1.4088,-1.4088,-1.4088,-1.4088,-1.4088,-1.4088,-1.4088,-1.4088,-1.4088,-1.4088,-1.4088,-1.4075,-1.4055,-1.3935,-1.3788,-1.3561,-1.3287,-1.316,-1.2993,-1.2759,-1.2592,-1.2485,-1.2398,-1.2351,-1.2305,-1.2305,-1.2358,-1.2378,-1.2351,-1.2305,-1.2325,-1.2398,-1.2572,-1.2746,-1.2913,-1.3106,-1.3394,-1.3661,-1.3834,-1.3941,-0.9171,-0.9395,-0.9167,-0.9052,-0.9042,-0.8971,-0.8937,-0.8937,-0.8937,-0.8937,-0.8937,-0.8937,-0.8937,-0.8937,-0.8937,-0.8937,-0.8937,-0.8937,-0.8937,-0.8937,-0.8937,-0.8937,-0.8937,-0.8937,-0.8937,-0.8937,-0.8937,-0.8937,-0.8937,-0.8927,-0.8855,-0.872,-0.8625,-0.8465,-0.8299,-0.8184,-0.8113,-0.8048,-0.8038,-0.8038,-0.8038,-0.8038,-0.8038,-0.8038,-0.8038,-0.8038,-0.8021,-0.7889,-0.7824,-0.7736,-0.7522,-0.7225,-0.7148,-0.7088,-0.7143,-0.7139,-0.7139,-0.7228,-0.7588,-0.822,-0.8752,-0.9087,-0.9432,-0.9951,-1.0554,-1.1058,-1.1494,-1.1946,-1.246,-1.296,-1.3392,-1.3652,-1.3737,-1.3913,-1.3997,-1.4088,-1.4088,-1.4088,-1.4088,-1.4088,-1.4088,-1.4088,-1.4088,-1.4088,-1.4088,-1.4088,-1.4088,-1.4068,-1.4075,-1.3928,-1.3788,-1.3594,-1.348,-1.33,-1.3033,-1.2832,-1.2659,-1.2532,-1.2412,-1.2351,-1.2305,-1.2385,-1.2472,-1.2445,-1.2418,-1.2518,-1.2688,-1.2876,-1.3026,-1.3253,-1.3467,-1.3667,-1.3821,-1.3955,-1.4021,-0.9089,-0.9318,-0.9085,-0.8971,-0.8967,-0.895,-0.8937,-0.8937,-0.8937,-0.8937,-0.8937,-0.8937,-0.8937,-0.8937,-0.8937,-0.8937,-0.8937,-0.8937,-0.8937,-0.8937,-0.8937,-0.8937,-0.8937,-0.8937,-0.8937,-0.8937,-0.8937,-0.8937,-0.8937,-0.893,-0.8882,-0.876,-0.8713,-0.8564,-0.8357,-0.8265,-0.8184,-0.8058,-0.8038,-0.8038,-0.8038,-0.8038,-0.8038,-0.8038,-0.8038,-0.8038,-0.8018,-0.7929,-0.7855,-0.7838,-0.7709,-0.748,-0.7342,-0.7088,-0.7084,-0.7088,-0.7074,-0.7228,-0.7496,-0.804,-0.8576,-0.8911,-0.9257,-0.9951,-1.0554,-1.0982,-1.1419,-1.186,-1.2381,-1.2717,-1.3052,-1.3392,-1.3652,-1.3737,-1.3906,-1.4082,-1.4088,-1.4088,-1.4088,-1.4088,-1.4088,-1.4088,-1.4088,-1.4088,-1.4088,-1.4088,-1.4088,-1.4088,-1.4088,-1.4062,-1.3921,-1.3868,-1.3761,-1.3587,-1.3327,-1.3066,-1.2893,-1.2799,-1.2619,-1.2559,-1.2498,-1.2645,-1.2752,-1.2592,-1.2585,-1.2795,-1.2893,-1.3093,-1.3333,-1.3587,-1.3741,-1.3861,-1.3968,-1.4068,-1.4115,-0.9229,-0.9233,-0.9233,-0.9117,-0.9093,-0.8991,-0.8937,-0.8937,-0.8937,-0.8937,-0.8937,-0.8937,-0.8937,-0.8937,-0.8937,-0.8937,-0.8937,-0.8937,-0.8937,-0.8937,-0.8937,-0.8937,-0.8937,-0.8937,-0.8937,-0.8937,-0.8937,-0.8937,-0.8937,-0.8933,-0.8913,-0.8872,-0.8781,-0.8615,-0.8465,-0.8336,-0.8218,-0.8085,-0.8048,-0.8038,-0.8038,-0.8038,-0.8038,-0.8038,-0.8038,-0.8038,-0.8038,-0.8018,-0.8001,-0.7987,-0.7955,-0.7873,-0.7682,-0.7386,-0.7174,-0.7128,-0.7148,-0.7282,-0.7709,-0.7871,-0.848,-0.8999,-0.9345,-0.9777,-1.0467,-1.0804,-1.1154,-1.1688,-1.2203,-1.254,-1.2796,-1.3222,-1.3476,-1.3652,-1.3913,-1.4088,-1.4088,-1.4088,-1.4088,-1.4088,-1.4088,-1.4088,-1.4088,-1.4088,-1.4088,-1.4088,-1.4088,-1.4088,-1.4088,-1.4088,-1.4041,-1.4028,-1.4028,-1.3834,-1.3621,-1.3353,-1.3146,-1.3133,-1.3026,-1.2973,-1.2966,-1.3053,-1.3053,-1.2933,-1.2933,-1.3073,-1.3247,-1.34,-1.3547,-1.3734,-1.3874,-1.4008,-1.4068,-1.4128,-1.4269,-0.9042,-0.9042,-0.9042,-0.9042,-0.9032,-0.8971,-0.8937,-0.8937,-0.8937,-0.8937,-0.8937,-0.8937,-0.8937,-0.8937,-0.8937,-0.8937,-0.8937,-0.8937,-0.8937,-0.8937,-0.8937,-0.8937,-0.8937,-0.8937,-0.8937,-0.8937,-0.8937,-0.8937,-0.8937,-0.8937,-0.8937,-0.8923,-0.8855,-0.875,-0.8601,-0.8455,-0.8306,-0.818,-0.8085,-0.8041,-0.8038,-0.8038,-0.8038,-0.8038,-0.8038,-0.8038,-0.8038,-0.8038,-0.8038,-0.8024,-0.797,-0.8038,-0.7865,-0.774,-0.7373,-0.721,-0.7129,-0.7326,-0.7822,-0.8072,-0.8589,-0.9012,-0.9183,-0.9689,-1.0294,-1.0641,-1.1003,-1.1521,-1.2112,-1.2448,-1.254,-1.2991,-1.3307,-1.3568,-1.375,-1.3926,-1.4095,-1.4095,-1.4088,-1.4088,-1.4088,-1.4088,-1.4088,-1.4088,-1.4088,-1.4088,-1.4088,-1.4088,-1.4088,-1.4088,-1.4088,-1.4082,-1.4082,-1.4001,-1.3821,-1.3621,-1.344,-1.342,-1.338,-1.3333,-1.332,-1.3367,-1.3373,-1.3313,-1.3373,-1.3434,-1.3527,-1.3654,-1.3768,-1.3861,-1.3968,-1.4062,-1.4115,-1.4195,-1.4355,-0.8937,-0.8937,-0.8937,-0.8937,-0.8937,-0.8937,-0.8937,-0.8937,-0.8937,-0.8937,-0.8937,-0.8937,-0.8937,-0.8937,-0.8937,-0.8937,-0.8937,-0.8937,-0.8937,-0.8937,-0.8937,-0.8937,-0.8937,-0.8937,-0.8937,-0.8937,-0.8937,-0.8937,-0.8937,-0.8937,-0.8937,-0.8933,-0.8937,-0.8862,-0.8699,-0.8581,-0.8442,-0.8279,-0.816,-0.7982,-0.7945,-0.8038,-0.8038,-0.8038,-0.8038,-0.8038,-0.8038,-0.8038,-0.8038,-0.8038,-0.8031,-0.8031,-0.8018,-0.8024,-0.7804,-0.741,-0.7253,-0.7619,-0.8015,-0.8436,-0.8848,-0.9191,-0.9309,-0.9823,-1.045,-1.0936,-1.1164,-1.1472,-1.2105,-1.2482,-1.2604,-1.2984,-1.3336,-1.3582,-1.3728,-1.3907,-1.4083,-1.4155,-1.4088,-1.4088,-1.4088,-1.4095,-1.4108,-1.4088,-1.4088,-1.4088,-1.4088,-1.4088,-1.4088,-1.4088,-1.4088,-1.4088,-1.4088,-1.4088,-1.3988,-1.3874,-1.3754,-1.3734,-1.3667,-1.3607,-1.3601,-1.3614,-1.3621,-1.3641,-1.3694,-1.3748,-1.3834,-1.3874,-1.3935,-1.3995,-1.4062,-1.4148,-1.4255,-1.4382,-1.4536,-0.8937,-0.8937,-0.8937,-0.8937,-0.8937,-0.8937,-0.8937,-0.8937,-0.8937,-0.8937,-0.8937,-0.8937,-0.8937,-0.8937,-0.8937,-0.8937,-0.8937,-0.8937,-0.8937,-0.8937,-0.8937,-0.8937,-0.8937,-0.8937,-0.8937,-0.8937,-0.8937,-0.8937,-0.8937,-0.8937,-0.8937,-0.8937,-0.8927,-0.8869,-0.875,-0.8679,-0.854,-0.8323,-0.8139,-0.7958,-0.7962,-0.8038,-0.8038,-0.8038,-0.8038,-0.8038,-0.8038,-0.8038,-0.8038,-0.8038,-0.8038,-0.8038,-0.8035,-0.8028,-0.8011,-0.7916,-0.7969,-0.8164,-0.852,-0.8991,-0.9237,-0.953,-0.9714,-1.0209,-1.0889,-1.1424,-1.1791,-1.1962,-1.2479,-1.271,-1.2777,-1.3375,-1.3758,-1.4008,-1.4038,-1.4228,-1.4362,-1.4396,-1.4309,-1.4222,-1.4269,-1.4182,-1.4142,-1.4108,-1.4088,-1.4088,-1.4088,-1.4088,-1.4088,-1.4088,-1.4088,-1.4088,-1.4088,-1.4088,-1.4082,-1.3981,-1.3961,-1.3961,-1.3908,-1.3841,-1.3841,-1.3841,-1.3928,-1.3961,-1.3988,-1.4008,-1.4068,-1.4095,-1.4102,-1.4135,-1.4195,-1.4315,-1.4449,-1.4589,-1.4776,-0.8937,-0.8937,-0.8937,-0.8937,-0.8937,-0.8937,-0.8937,-0.8937,-0.8937,-0.8937,-0.8937,-0.8937,-0.8937,-0.8937,-0.8937,-0.8937,-0.8937,-0.8937,-0.8937,-0.8937,-0.8937,-0.8937,-0.8937,-0.8937,-0.8937,-0.8937,-0.8937,-0.8937,-0.8937,-0.8937,-0.8937,-0.8937,-0.8937,-0.8916,-0.8815,-0.875,-0.8594,-0.8401,-0.8133,-0.8009,-0.7955,-0.8038,-0.8038,-0.8038,-0.8038,-0.8038,-0.8038,-0.8038,-0.8038,-0.8038,-0.8038,-0.8038,-0.8038,-0.8038,-0.8035,-0.8018,-0.8024,-0.8204,-0.8798,-0.9461,-0.9785,-0.9868,-1.0027,-1.0366,-1.1216,-1.1697,-1.2167,-1.2437,-1.2694,-1.2797,-1.2991,-1.3519,-1.3876,-1.4186,-1.4321,-1.455,-1.4668,-1.4696,-1.4629,-1.4529,-1.4436,-1.4376,-1.4302,-1.4235,-1.4182,-1.4088,-1.4088,-1.4088,-1.4088,-1.4088,-1.4088,-1.4088,-1.4088,-1.4088,-1.4088,-1.4048,-1.4035,-1.4035,-1.4035,-1.3988,-1.4028,-1.4062,-1.4102,-1.4102,-1.4062,-1.4128,-1.4262,-1.4242,-1.4182,-1.4249,-1.4335,-1.4516,-1.471,-1.4983,-1.519,-0.8825,-0.8832,-0.8906,-0.8937,-0.8937,-0.8937,-0.8937,-0.8937,-0.8937,-0.8937,-0.8937,-0.8937,-0.8937,-0.8937,-0.8937,-0.8937,-0.8937,-0.8937,-0.8937,-0.8937,-0.8937,-0.8937,-0.8937,-0.8937,-0.8937,-0.8937,-0.8937,-0.8937,-0.8937,-0.8937,-0.8937,-0.8937,-0.8937,-0.893,-0.8906,-0.8828,-0.8686,-0.8462,-0.8241,-0.8113,-0.8052,-0.8038,-0.8038,-0.8038,-0.8038,-0.8038,-0.8038,-0.8038,-0.8038,-0.8038,-0.8038,-0.8038,-0.8038,-0.8035,-0.8031,-0.8124,-0.828,-0.8849,-0.9377,-0.9925,-1.0232,-1.0328,-1.0538,-1.1164,-1.151,-1.1848,-1.2242,-1.2884,-1.3141,-1.3113,-1.3257,-1.3749,-1.4149,-1.4498,-1.4585,-1.4825,-1.505,-1.4963,-1.487,-1.477,-1.4689,-1.4663,-1.4569,-1.4436,-1.4302,-1.4135,-1.4088,-1.4095,-1.4095,-1.4108,-1.4088,-1.4088,-1.4088,-1.4088,-1.4088,-1.4088,-1.4088,-1.4088,-1.4088,-1.4102,-1.4108,-1.4122,-1.4142,-1.4135,-1.4182,-1.4362,-1.4563,-1.4402,-1.4275,-1.4476,-1.4663,-1.481,-1.501,-1.5291,-1.5498,-0.8513,-0.8537,-0.8818,-0.8927,-0.893,-0.8937,-0.8933,-0.8937,-0.8937,-0.8937,-0.8937,-0.8937,-0.8937,-0.8937,-0.8937,-0.8937,-0.8937,-0.8937,-0.8937,-0.8937,-0.8937,-0.8937,-0.8937,-0.8937,-0.8937,-0.8937,-0.8937,-0.8937,-0.8937,-0.8937,-0.8937,-0.8937,-0.8937,-0.8937,-0.892,-0.8866,-0.8737,-0.8526,-0.8316,-0.8167,-0.8089,-0.7952,-0.8038,-0.8038,-0.8038,-0.8038,-0.8038,-0.8038,-0.8038,-0.8038,-0.8038,-0.8038,-0.8035,-0.8031,-0.8024,-0.8425,-0.8924,-0.9505,-1.0186,-1.048,-1.069,-1.1156,-1.1599,-1.1925,-1.1884,-1.2555,-1.3086,-1.3431,-1.3547,-1.3683,-1.3903,-1.4244,-1.4596,-1.4903,-1.4974,-1.5107,-1.5219,-1.517,-1.5084,-1.499,-1.4943,-1.493,-1.4863,-1.4736,-1.4569,-1.4409,-1.4222,-1.4222,-1.4162,-1.4148,-1.4102,-1.4088,-1.4088,-1.4088,-1.4088,-1.4088,-1.4088,-1.4088,-1.4088,-1.4115,-1.4142,-1.4162,-1.4242,-1.4402,-1.4509,-1.4689,-1.4816,-1.473,-1.4716,-1.485,-1.499,-1.5097,-1.5271,-1.5524,-1.5665,-0.8371,-0.8492,-0.8501,-0.8602,-0.8798,-0.8798,-0.8852,-0.893,-0.8937,-0.8937,-0.8933,-0.8937,-0.8937,-0.8937,-0.8937,-0.8937,-0.8937,-0.8937,-0.8937,-0.8937,-0.8937,-0.8937,-0.8937,-0.8937,-0.8937,-0.8937,-0.8937,-0.8937,-0.8937,-0.8937,-0.8937,-0.8937,-0.8937,-0.8937,-0.8923,-0.8866,-0.8737,-0.8718,-0.8404,-0.8228,-0.8083,-0.7979,-0.8038,-0.8038,-0.8038,-0.8038,-0.8038,-0.8038,-0.8038,-0.8038,-0.8038,-0.8035,-0.8031,-0.8024,-0.8421,-0.8821,-0.9426,-1.0229,-1.1133,-1.1339,-1.1521,-1.1893,-1.2365,-1.2452,-1.2231,-1.2834,-1.3454,-1.3852,-1.3955,-1.4033,-1.4202,-1.458,-1.5032,-1.5317,-1.5461,-1.547,-1.5478,-1.5424,-1.5391,-1.5344,-1.5277,-1.5231,-1.5144,-1.5044,-1.487,-1.4689,-1.4502,-1.4349,-1.4322,-1.4255,-1.4229,-1.4168,-1.4168,-1.4102,-1.4095,-1.4095,-1.4095,-1.4115,-1.4128,-1.4235,-1.4329,-1.4355,-1.4462,-1.4636,-1.4823,-1.497,-1.5064,-1.5084,-1.5137,-1.5204,-1.5277,-1.5357,-1.5551,-1.5738,-1.5785,-0.8137,-0.835,-0.8247,-0.8357,-0.8632,-0.8642,-0.8703,-0.8788,-0.8794,-0.8835,-0.8872,-0.891,-0.8937,-0.8937,-0.8937,-0.8937,-0.8937,-0.8937,-0.8937,-0.8937,-0.8937,-0.8937,-0.8937,-0.8937,-0.8937,-0.8937,-0.8937,-0.8937,-0.8937,-0.8937,-0.8937,-0.8937,-0.8937,-0.8937,-0.8913,-0.8845,-0.876,-0.8766,-0.8598,-0.8196,-0.8051,-0.8019,-0.8038,-0.8038,-0.8038,-0.8038,-0.8038,-0.8038,-0.8038,-0.8137,-0.8137,-0.8131,-0.8124,-0.8319,-0.8924,-0.9426,-1.0023,-1.0721,-1.1624,-1.2217,-1.2299,-1.2473,-1.2861,-1.2743,-1.2727,-1.313,-1.3846,-1.4461,-1.434,-1.4214,-1.449,-1.4975,-1.5261,-1.5432,-1.5622,-1.5752,-1.5758,-1.5671,-1.5705,-1.5712,-1.5625,-1.5518,-1.5484,-1.5384,-1.5144,-1.4957,-1.477,-1.4656,-1.4636,-1.4549,-1.4429,-1.4355,-1.4275,-1.4195,-1.4108,-1.4215,-1.4315,-1.4355,-1.4402,-1.4522,-1.4603,-1.4629,-1.475,-1.4983,-1.5144,-1.5251,-1.5344,-1.5424,-1.5471,-1.5524,-1.5565,-1.5578,-1.5645,-1.5792,-1.5805,-0.7962,-0.8045,-0.8062,-0.8225,-0.8465,-0.8486,-0.8499,-0.854,-0.8537,-0.8598,-0.8726,-0.8838,-0.8899,-0.8896,-0.8862,-0.8859,-0.8876,-0.8896,-0.891,-0.8903,-0.893,-0.8933,-0.8937,-0.8937,-0.8937,-0.8937,-0.8937,-0.8937,-0.8937,-0.8937,-0.8937,-0.8937,-0.8937,-0.8937,-0.8937,-0.8933,-0.8859,-0.8828,-0.8557,-0.83,-0.808,-0.8036,-0.7952,-0.8038,-0.8137,-0.8137,-0.8038,-0.8137,-0.8233,-0.8333,-0.8535,-0.8428,-0.8209,-0.892,-0.9426,-0.9723,-1.0605,-1.1311,-1.2026,-1.2494,-1.2867,-1.2958,-1.3346,-1.3431,-1.3528,-1.3829,-1.4232,-1.484,-1.4719,-1.479,-1.507,-1.5261,-1.5452,-1.554,-1.573,-1.5825,-1.5825,-1.5825,-1.5825,-1.5825,-1.5825,-1.5805,-1.5798,-1.5718,-1.5444,-1.5231,-1.5037,-1.495,-1.4943,-1.481,-1.4656,-1.4596,-1.4509,-1.4462,-1.4422,-1.4462,-1.4536,-1.4583,-1.4656,-1.477,-1.4877,-1.4937,-1.5097,-1.5331,-1.5424,-1.5484,-1.5638,-1.5792,-1.5738,-1.5685,-1.5738,-1.5772,-1.5818,-1.5825,-1.5825,-0.8038,-0.8038,-0.8038,-0.8096,-0.8201,-0.8299,-0.8394,-0.8472,-0.8486,-0.8513,-0.8557,-0.8621,-0.8635,-0.8635,-0.8652,-0.8655,-0.8662,-0.8767,-0.8784,-0.8798,-0.8876,-0.893,-0.8937,-0.893,-0.8937,-0.8937,-0.8937,-0.8937,-0.8937,-0.8937,-0.8937,-0.8937,-0.8937,-0.8937,-0.8937,-0.8937,-0.8899,-0.8825,-0.8638,-0.8344,-0.8063,-0.7975,-0.8038,-0.8038,-0.834,-0.8439,-0.8336,-0.8435,-0.8531,-0.873,-0.8832,-0.8821,-0.8707,-0.932,-0.992,-1.0408,-1.1194,-1.1795,-1.2689,-1.346,-1.3636,-1.3732,-1.3829,-1.401,-1.4094,-1.4496,-1.4802,-1.5006,-1.5,-1.5077,-1.5356,-1.5452,-1.5547,-1.573,-1.5825,-1.5825,-1.5825,-1.5825,-1.5825,-1.5825,-1.5825,-1.5825,-1.5825,-1.5825,-1.5625,-1.5518,-1.5344,-1.5264,-1.5251,-1.5037,-1.4863,-1.485,-1.4803,-1.477,-1.475,-1.477,-1.4796,-1.4843,-1.4903,-1.499,-1.509,-1.5224,-1.5378,-1.5571,-1.5645,-1.5718,-1.5778,-1.5825,-1.5825,-1.5818,-1.5825,-1.5825,-1.5825,-1.5825,-1.5825,-0.8038,-0.8038,-0.8038,-0.8038,-0.8055,-0.8147,-0.8248,-0.8333,-0.8381,-0.8408,-0.8418,-0.8455,-0.8598,-0.8598,-0.8587,-0.8479,-0.8492,-0.8574,-0.8632,-0.8655,-0.8791,-0.8832,-0.8859,-0.8913,-0.8937,-0.8937,-0.8937,-0.8937,-0.8937,-0.8937,-0.8937,-0.9047,-0.9047,-0.9158,-0.9158,-0.9158,-0.8933,-0.8842,-0.8659,-0.8367,-0.8063,-0.8018,-0.8134,-0.8333,-0.8535,-0.8737,-0.863,-0.8726,-0.9023,-0.9126,-0.9225,-0.9316,-0.9308,-0.96,-1.0301,-1.0993,-1.1893,-1.2683,-1.3767,-1.4033,-1.4214,-1.4316,-1.4496,-1.4586,-1.4573,-1.4885,-1.5083,-1.528,-1.5274,-1.5363,-1.5547,-1.5547,-1.5635,-1.5825,-1.5825,-1.5825,-1.5825,-1.5825,-1.5825,-1.5825,-1.5825,-1.5825,-1.5825,-1.5825,-1.5765,-1.5712,-1.5658,-1.5591,-1.5524,-1.5337,-1.5144,-1.5117,-1.5084,-1.503,-1.5023,-1.5044,-1.5077,-1.511,-1.519,-1.5284,-1.5404,-1.5551,-1.5685,-1.5765,-1.5765,-1.5772,-1.5798,-1.5825,-1.5825,-1.5825,-1.5825,-1.5825,-1.5825,-1.5825,-1.5825,-0.8038,-0.8038,-0.8038,-0.8038,-0.8041,-0.8055,-0.8058,-0.8065,-0.8201,-0.8262,-0.8272,-0.8387,-0.8411,-0.8546,-0.8448,-0.8428,-0.833,-0.8455,-0.8476,-0.8523,-0.8635,-0.8686,-0.8771,-0.8849,-0.8896,-0.8927,-0.8937,-0.8937,-0.8937,-0.9047,-0.9268,-0.9379,-0.9379,-0.9485,-0.9489,-0.9268,-0.9044,-0.8849,-0.8759,-0.8394,-0.8095,-0.8086,-0.846,-0.8836,-0.9034,-0.9031,-0.9027,-0.9229,-0.9426,-0.9624,-0.9916,-0.9801,-0.9887,-1.0173,-1.0676,-1.1482,-1.2689,-1.3876,-1.4557,-1.4514,-1.4688,-1.4885,-1.5077,-1.5077,-1.507,-1.5172,-1.5369,-1.556,-1.5553,-1.5642,-1.5737,-1.573,-1.573,-1.5825,-1.5825,-1.5825,-1.5825,-1.5825,-1.5825,-1.5825,-1.5825,-1.5825,-1.5825,-1.5825,-1.5825,-1.5798,-1.5752,-1.5752,-1.5698,-1.5712,-1.5531,-1.5411,-1.5364,-1.5277,-1.5284,-1.5337,-1.5371,-1.5411,-1.5545,-1.5645,-1.5765,-1.5772,-1.5785,-1.5798,-1.5818,-1.5825,-1.5825,-1.5825,-1.5825,-1.5825,-1.5825,-1.5825,-1.5825,-1.5825,-1.5825,-0.8038,-0.8038,-0.8038,-0.8038,-0.8038,-0.8038,-0.8038,-0.8048,-0.8096,-0.8106,-0.8109,-0.8147,-0.8197,-0.8167,-0.8167,-0.8073,-0.8214,-0.8269,-0.8316,-0.8387,-0.8482,-0.8598,-0.8693,-0.8767,-0.8842,-0.8906,-0.8937,-0.9051,-0.9268,-0.9375,-0.9596,-0.9706,-0.9816,-0.9812,-0.9816,-0.9596,-0.9361,-0.9054,-0.9041,-0.8618,-0.8391,-0.8376,-0.8984,-0.9541,-0.9842,-0.9834,-0.9723,-0.992,-1.0216,-1.0408,-1.0507,-1.0489,-1.0258,-1.044,-1.0835,-1.2349,-1.3653,-1.4762,-1.5044,-1.5096,-1.5166,-1.5356,-1.5452,-1.5343,-1.5337,-1.5343,-1.5648,-1.5737,-1.5737,-1.5737,-1.573,-1.5825,-1.5825,-1.5825,-1.5825,-1.5825,-1.5825,-1.5825,-1.5825,-1.5825,-1.5825,-1.5825,-1.5825,-1.5825,-1.5825,-1.5825,-1.5825,-1.5825,-1.5825,-1.5825,-1.5798,-1.5658,-1.5611,-1.5518,-1.5591,-1.5645,-1.5678,-1.5725,-1.5798,-1.5825,-1.5812,-1.5805,-1.5818,-1.5825,-1.5825,-1.5825,-1.5825,-1.5825,-1.5825,-1.5825,-1.5825,-1.5825,-1.5825,-1.5825,-1.5825,-0.8038,-0.8038,-0.8038,-0.8038,-0.8038,-0.8038,-0.8038,-0.8038,-0.8038,-0.8038,-0.8038,-0.8045,-0.8038,-0.8052,-0.8055,-0.8055,-0.8065,-0.8133,-0.8177,-0.8214,-0.8333,-0.8472,-0.8581,-0.8693,-0.8808,-0.8886,-0.9047,-0.9268,-0.9489,-0.9816,-1.0036,-1.0143,-1.0253,-1.0363,-1.0472,-1.0574,-1.0194,-0.9742,-0.9367,-0.9035,-0.887,-0.8787,-0.9383,-1.0246,-1.065,-1.0739,-1.0413,-1.0708,-1.0998,-1.1194,-1.1194,-1.1277,-1.1351,-1.1546,-1.2124,-1.3539,-1.434,-1.5032,-1.5408,-1.5471,-1.5547,-1.5635,-1.5737,-1.5635,-1.5534,-1.5635,-1.573,-1.5825,-1.5825,-1.5825,-1.5825,-1.5825,-1.5825,-1.5825,-1.5825,-1.5825,-1.5825,-1.5825,-1.5825,-1.5825,-1.5825,-1.5825,-1.5825,-1.5825,-1.5825,-1.5825,-1.5825,-1.5825,-1.5825,-1.5825,-1.5825,-1.5765,-1.5765,-1.5758,-1.5825,-1.5825,-1.5805,-1.5785,-1.5805,-1.5825,-1.5825,-1.5825,-1.5825,-1.5825,-1.5825,-1.5825,-1.5825,-1.5825,-1.5825,-1.5825,-1.5825,-1.5825,-1.5825,-1.5825,-1.5825,-0.8038,-0.8038,-0.8038,-0.8038,-0.8038,-0.8038,-0.8038,-0.8038,-0.8038,-0.8038,-0.8038,-0.8038,-0.8038,-0.8038,-0.8038,-0.8038,-0.8041,-0.8069,-0.8082,-0.8048,-0.818,-0.833,-0.8476,-0.8618,-0.873,-0.8965,-0.9265,-0.9489,-0.9706,-1.0147,-1.0582,-1.0802,-1.1017,-1.1236,-1.1455,-1.1402,-1.1099,-1.0642,-1.014,-0.9665,-0.9484,-0.9299,-0.9406,-1.0516,-1.133,-1.1732,-1.1306,-1.1389,-1.1683,-1.1883,-1.2073,-1.2257,-1.2646,-1.3158,-1.3841,-1.4322,-1.4821,-1.5306,-1.558,-1.5648,-1.5642,-1.573,-1.5825,-1.573,-1.573,-1.573,-1.5825,-1.5825,-1.5825,-1.5825,-1.5825,-1.5825,-1.5825,-1.5825,-1.5825,-1.5825,-1.5825,-1.5825,-1.5825,-1.5825,-1.5825,-1.5825,-1.5825,-1.5825,-1.5825,-1.5825,-1.5825,-1.5825,-1.5825,-1.5825,-1.5825,-1.5825,-1.5825,-1.5825,-1.5825,-1.5825,-1.5825,-1.5825,-1.5825,-1.5825,-1.5825,-1.5825,-1.5825,-1.5825,-1.5825,-1.5825,-1.5825,-1.5825,-1.5825,-1.5825,-1.5825,-1.5825,-1.5825,-1.5825,-1.5825,-0.8038,-0.8038,-0.8038,-0.8038,-0.8038,-0.8038,-0.8038,-0.8038,-0.8038,-0.8038,-0.8038,-0.8038,-0.8038,-0.8038,-0.8038,-0.8038,-0.8038,-0.8038,-0.8038,-0.8041,-0.8102,-0.8211,-0.8326,-0.8479,-0.8731,-0.9082,-0.9399,-0.9816,-1.0363,-1.0798,-1.1236,-1.1678,-1.1782,-1.2001,-1.2177,-1.2089,-1.1732,-1.1375,-1.1165,-1.0476,-0.9973,-1.0154,-1.0493,-1.1404,-1.2217,-1.2407,-1.2186,-1.2273,-1.2565,-1.2764,-1.2856,-1.3028,-1.3182,-1.3913,-1.4298,-1.4465,-1.5172,-1.5573,-1.5668,-1.5743,-1.5737,-1.573,-1.5825,-1.5825,-1.5825,-1.5825,-1.5825,-1.5825,-1.5825,-1.5825,-1.5825,-1.5825,-1.5825,-1.5825,-1.5825,-1.5825,-1.5825,-1.5825,-1.5825,-1.5825,-1.5825,-1.5825,-1.5825,-1.5825,-1.5825,-1.5825,-1.5825,-1.5825,-1.5825,-1.5825,-1.5825,-1.5825,-1.5825,-1.5825,-1.5825,-1.5825,-1.5825,-1.5825,-1.5825,-1.5825,-1.5825,-1.5825,-1.5825,-1.5825,-1.5825,-1.5825,-1.5825,-1.5825,-1.5825,-1.5825,-1.5825,-1.5825,-1.5825,-1.5825,-1.5825,-0.8038,-0.8038,-0.8038,-0.8038,-0.8038,-0.8038,-0.8038,-0.8038,-0.8038,-0.8038,-0.8038,-0.8038,-0.8038,-0.8038,-0.8038,-0.8038,-0.8038,-0.8038,-0.8038,-0.8038,-0.8055,-0.815,-0.8255,-0.8464,-0.8853,-0.9223,-0.9828,-1.0363,-1.1126,-1.1564,-1.2005,-1.2323,-1.254,-1.2601,-1.2632,-1.2476,-1.2312,-1.2019,-1.2001,-1.1558,-1.0848,-1.103,-1.1487,-1.2402,-1.2899,-1.2986,-1.2872,-1.2958,-1.3244,-1.3323,-1.3307,-1.3488,-1.3866,-1.4592,-1.4987,-1.5159,-1.5458,-1.5858,-1.5845,-1.5838,-1.5825,-1.5825,-1.5825,-1.5825,-1.5825,-1.5825,-1.5825,-1.5825,-1.5825,-1.5825,-1.5825,-1.5825,-1.5825,-1.5825,-1.5825,-1.5825,-1.5825,-1.5825,-1.5825,-1.5825,-1.5825,-1.5825,-1.5825,-1.5825,-1.5825,-1.5825,-1.5825,-1.5825,-1.5825,-1.5825,-1.5825,-1.5825,-1.5825,-1.5825,-1.5825,-1.5825,-1.5825,-1.5825,-1.5825,-1.5825,-1.5825,-1.5825,-1.5825,-1.5825,-1.5825,-1.5825,-1.5825,-1.5825,-1.5825,-1.5825,-1.5825,-1.5825,-1.5825,-1.5825,-1.5825,-0.8018,-0.8035,-0.8038,-0.8038,-0.8038,-0.8038,-0.8038,-0.8038,-0.8038,-0.8038,-0.8038,-0.8038,-0.8038,-0.8038,-0.8038,-0.8038,-0.8038,-0.8038,-0.8038,-0.8038,-0.8038,-0.8102,-0.8379,-0.8586,-0.8996,-0.961,-1.0221,-1.1076,-1.1891,-1.2332,-1.2654,-1.3073,-1.3229,-1.3367,-1.3198,-1.3054,-1.2993,-1.2744,-1.2746,-1.2838,-1.2428,-1.2037,-1.2467,-1.2986,-1.3591,-1.3556,-1.3448,-1.3539,-1.3823,-1.3902,-1.3968,-1.4148,-1.4453,-1.5077,-1.5471,-1.5662,-1.5648,-1.5845,-1.5838,-1.5832,-1.5825,-1.5825,-1.5825,-1.5825,-1.5825,-1.5825,-1.5825,-1.5825,-1.5825,-1.5825,-1.5825,-1.5825,-1.5825,-1.5825,-1.5825,-1.5825,-1.5825,-1.5825,-1.5825,-1.5825,-1.5825,-1.5825,-1.5825,-1.5825,-1.5825,-1.5825,-1.5825,-1.5825,-1.5825,-1.5825,-1.5825,-1.5825,-1.5825,-1.5825,-1.5825,-1.5825,-1.5825,-1.5825,-1.5825,-1.5825,-1.5825,-1.5825,-1.5825,-1.5825,-1.5825,-1.5825,-1.5825,-1.5825,-1.5825,-1.5825,-1.5825,-1.5825,-1.5825,-1.5825,-1.5825,-0.8031,-0.8038,-0.8038,-0.8038,-0.8038,-0.8038,-0.8038,-0.8038,-0.8038,-0.8038,-0.8038,-0.8038,-0.8038,-0.8038,-0.8038,-0.8038,-0.8038,-0.8038,-0.8038,-0.8038,-0.8038,-0.8161,-0.8421,-0.874,-0.9376,-0.9977,-1.0659,-1.1401,-1.2346,-1.3053,-1.3439,-1.3609,-1.3895,-1.397,-1.394,-1.3796,-1.3635,-1.343,-1.3417,-1.3499,-1.3397,-1.3141,-1.2942,-1.3653,-1.4569,-1.4437,-1.4316,-1.4598,-1.479,-1.4885,-1.4777,-1.4848,-1.5045,-1.5458,-1.5662,-1.5852,-1.5838,-1.5838,-1.5825,-1.5825,-1.5825,-1.5825,-1.5825,-1.5825,-1.5825,-1.5825,-1.5825,-1.5825,-1.5825,-1.5825,-1.5825,-1.5825,-1.5825,-1.5825,-1.5825,-1.5825,-1.5825,-1.5825,-1.5825,-1.5825,-1.5825,-1.5825,-1.5825,-1.5825,-1.5825,-1.5825,-1.5825,-1.5825,-1.5825,-1.5825,-1.5825,-1.5825,-1.5825,-1.5825,-1.5825,-1.5825,-1.5825,-1.5825,-1.5825,-1.5825,-1.5825,-1.5825,-1.5825,-1.5825,-1.5825,-1.5825,-1.5825,-1.5825,-1.5825,-1.5825,-1.5825,-1.5825,-1.5825,-1.5825,-1.5825]},{"header":{"parameterUnit":"m.s-1","parameterCategory":1,"la1":31.0,"la2":29.5877,"lo1":-88.7671,"lo2":-86.6584,"dy":0.0162,"dx":0.0185,"nx":115,"ny":88,"refTime":"2023-06-06T00:00:00:Z","depth":0,"parameterNumber":3,"parameterNumberName":"V-component_of_WINDS"},"data":[0.0,0.0,0.0,0.0,0.0,0.0,0.0,0.0,0.0,0.0,0.0,0.0,0.0,0.0,0.0,0.0,0.0,0.0,0.0,0.0,0.0,0.0,0.0,0.0,0.0,0.0,0.0,0.0,0.0,0.0,0.0,0.0,0.0,0.0,0.0,0.0,0.0,0.0,0.0,0.0,0.0,0.0,0.0,0.0,0.0,0.0,0.0,0.0,0.0,0.0,0.0,0.0,0.0,0.0,0.0,0.0,0.0,0.0,0.0,0.0,0.0,0.0,0.0,0.0,0.0,0.0,0.0,0.0,0.0,0.0,0.0,0.0,0.0,0.0,0.0,0.0,0.0,0.0,0.0,0.0,0.0,0.0,0.0,0.0,0.0,0.0,0.0,0.0,0.0,0.0,0.0,0.0,0.0,0.0,0.0,0.0,0.0,0.0,0.0,0.0,0.0,0.0,0.0,0.0,0.0,0.0,0.0,0.0,0.0,0.0,0.0,0.0,0.0,0.0,0.0,0.0,0.0,0.0,0.0,0.0,0.0,0.0,0.0,0.0,0.0,0.0,0.0,0.0,0.0,0.0,0.0,0.0,0.0,0.0,0.0,0.0,0.0,0.0,0.0,0.0,0.0,0.0,0.0,0.0,0.0,0.0,0.0,0.0,0.0,0.0,0.0,0.0,0.0,0.0,0.0,0.0,0.0,0.0,0.0,0.0,0.0,0.0,0.0,0.0,0.0,0.0,0.0,0.0,0.0,0.0,0.0,0.0,0.0,0.0,0.0,0.0,0.0,0.0,0.0,0.0,0.0,0.0,0.0,0.0,0.0,0.0,0.0,0.0,0.0,0.0,0.0,0.0,0.0,0.0,0.0,0.0,0.0,0.0,0.0,0.0,0.0,0.0,0.0,0.0,0.0,0.0,0.0,0.0,0.0,0.0,0.0,0.0,0.0,0.0,0.0,0.0,0.0,0.0,0.0,0.0,0.0,0.0,0.0,0.0,0.0,0.0,0.0,0.0,0.0,0.0,0.0,0.0,0.0,0.0,0.0,0.0,0.0,0.0,0.0,0.0,0.0,0.0,0.0,0.0,0.0,0.0,0.0,0.0,0.0,0.0,0.0,0.0,0.0,0.0,0.0,0.0,0.0,0.0,0.0,0.0,0.0,0.0,0.0,0.0,0.0,0.0,0.0,0.0,0.0,0.0,0.0,0.0,0.0,0.0,0.0,0.0,0.0,0.0,0.0,0.0,0.0,0.0,0.0,0.0,0.0,0.0,0.0,0.0,0.0,0.0,0.0,0.0,0.0,0.0,0.0,0.0,0.0,0.0,0.0,0.0,0.0,0.0,0.0,0.0,0.0,0.0,0.0,0.0,0.0,0.0,0.0,0.0,0.0,0.0,0.0,0.0,0.0,0.0,0.0,0.0,0.0,0.0,0.0,0.0,0.0,0.0,0.0,0.0,0.0,0.0,0.0,0.0,0.0,0.0,0.0,0.0,0.0,0.0,0.0,0.0,0.0,0.0,0.0,0.0,0.0,0.0,0.0,0.0,0.0,0.0,0.0,0.0,0.0,0.0,0.0,0.0,0.0,0.0,0.0,0.0,0.0,0.0,0.0,0.0,0.0,0.0,0.0,0.0,0.0,0.0,0.0,0.0,0.0,0.0,0.0,0.0,0.0,0.0,0.0,0.0,0.0,0.0,0.0,0.0,0.0,0.0,0.0,0.0,0.0,0.0,0.0,0.0,0.0,0.0,0.0,0.0,0.0,0.0,0.0,0.0,0.0,0.0,0.0,0.0,0.0,0.0,0.0,0.0,0.0,0.0,0.0,0.0,0.0,0.0,0.0,0.0,0.0,0.0,0.0,0.0,0.0,0.0,0.0,0.0,0.0,0.0,0.0,0.0,0.0,0.0,0.0,0.0,0.0,0.0,0.0,0.0,0.0,0.0,0.0,0.0,0.0,0.0,0.0,0.0,0.0,0.0,0.0,0.0,0.0,0.0,0.0,0.0,0.0,0.0,0.0,0.0,0.0,0.0,0.0,0.0,0.0,0.0,0.0,0.0,0.0,0.0,0.0,0.0,0.0,0.0,0.0,0.0,0.0,0.0,0.0,0.0,0.0,0.0,0.0,0.0,0.0,0.0,0.0,0.0,0.0,0.0,0.0,0.0,0.0,0.0,0.0,0.0,0.0,0.0,0.0,0.0,0.0,0.0,0.0,0.0,0.0,0.0,0.0,0.0,0.0,0.0,0.0,0.0,0.0,0.0,0.0,0.0,0.0,0.0,0.0,0.0,0.0,0.0,0.0,0.0,0.0,0.0,0.0,0.0,0.0,0.0,0.0,0.0,0.0,0.0,0.0,0.0,0.0,0.0,0.0,0.0,0.0,0.0,0.0,0.0,0.0,0.0,0.0,0.0,0.0,0.0,0.0,0.0,0.0,0.0,0.0,0.0,0.0,0.0,0.0,0.0,0.0,0.0,0.0,0.0,0.0,0.0,0.0,0.0,0.0,0.0,0.0,0.0,0.0,0.0,0.0,0.0,0.0,0.0,0.0,0.0,0.0,0.0,0.0,0.0,0.0,0.0,0.0,0.0,0.0,0.0,0.0,0.0,0.0,0.0,0.0,0.0,0.0,0.0,0.0,0.0,0.0,0.0,0.0,0.0,0.0,0.0,0.0,0.0,0.0,0.0,0.0,0.0,0.0,0.0,0.0,0.0,0.0,0.0,0.0,0.0,0.0,0.0,0.0,0.0,0.0,0.0,0.0,0.0,0.0,0.0,0.0,0.0,0.0,0.0,0.0,0.0,0.0,0.0,0.0,0.0,0.0,0.0,0.0,0.0,0.0,0.0,0.0,0.0,0.0,0.0,0.0,0.0,0.0,0.0,0.0,0.0,0.0,0.0,0.0,0.0,0.0,0.0,0.0,0.0,0.0,0.0,0.0,0.0,0.0,0.0,0.0,0.0,0.0,0.0,0.0,0.0,0.0,0.0,0.0,0.0,0.0,0.0,0.0,0.0,0.0,0.0,0.0,0.0,0.0,0.0,0.0,0.0,0.0,0.0,0.0,0.0,0.0,0.0,0.0,0.0,0.0,0.0,0.0,0.0,0.0,0.0,0.0,0.0,0.0,0.0,0.0,0.0,0.0,0.0,0.0,0.0,0.0,0.0,0.0,0.0,0.0,0.0,0.0,0.0,0.0,0.0,0.0,0.0,0.0,0.0,0.0,0.0,0.0,0.0,0.0,0.0,0.0,0.0,0.0,0.0,0.0,0.0,0.0,0.0,0.0,0.0,0.0,0.0,0.0,0.0,0.0,0.0,0.0,0.0,0.0,0.0,0.0,0.0,0.0,0.0,0.0,0.0,0.0,0.0,0.0,0.0,0.0,0.0,0.0,0.0,0.0,0.0,0.0,0.0,0.0,0.0,0.0,0.0,0.0,0.0,0.0,0.0,0.0,0.0,0.0,0.0,0.0,0.0,0.0,0.0,0.0,0.0,0.0,0.0,0.0,0.0,0.0,0.0,0.0,0.0,0.0,0.0,0.0,0.0,0.0,0.0,0.0,0.0,0.0,0.0,0.0,0.0,0.0,0.0,0.0,0.0,0.0,0.0,0.0,0.0,0.0,0.0,0.0,0.0,0.0,0.0,0.0,0.0,0.0,0.0,0.0,0.0,0.0,0.0,0.0,0.0,0.0,0.0,0.0,0.0,0.0,0.0,0.0,0.0,0.0,0.0,0.0,0.0,0.0,0.0,0.0,0.0,0.0,0.0,0.0,0.0,0.0,0.0,0.0,0.0,0.0,0.0,0.0,0.0,0.0,0.0,0.0,0.0,0.0,0.0,0.0,0.0,0.0,0.0,0.0,0.0,0.0,0.0,0.0,0.0,0.0,0.0,0.0,0.0,0.0,0.0,0.0,0.0,0.0,0.0,0.0,0.0,0.0,0.0,0.0,0.0,0.0,0.0,0.0,0.0,0.0,0.0,0.0,0.0,0.0,0.0,0.0,0.0,0.0,0.0,0.0,0.0,0.0,0.0,0.0,0.0,0.0,0.0,0.0,0.0,0.0,0.0,0.0,0.0,0.0,0.0,0.0,0.0,0.0,0.0,0.0,0.0,0.0,0.0,0.0,0.0,0.0,0.0,0.0,0.0,0.0,0.0,0.0,0.0,0.0,0.0,0.0,0.0,0.0,0.0,0.0,0.0,0.0,0.0,0.0,0.0,0.0,0.0,0.0,0.0,0.0,0.0,0.0,0.0,0.0,0.0,0.0,0.0,0.0,0.0,-1.7014,0.0,0.0,0.0,0.0,0.0,0.0,0.0,0.0,0.0,0.0,0.0,0.0,0.0,0.0,0.0,0.0,0.0,0.0,0.0,0.0,0.0,0.0,0.0,0.0,0.0,0.0,0.0,0.0,0.0,0.0,0.0,0.0,0.0,0.0,0.0,0.0,0.0,0.0,0.0,0.0,0.0,0.0,0.0,0.0,0.0,0.0,0.0,0.0,0.0,0.0,0.0,0.0,0.0,0.0,0.0,0.0,0.0,0.0,0.0,0.0,0.0,0.0,0.0,0.0,0.0,0.0,0.0,0.0,0.0,0.0,0.0,0.0,0.0,0.0,0.0,0.0,0.0,0.0,0.0,0.0,0.0,0.0,0.0,0.0,0.0,0.0,0.0,0.0,0.0,0.0,0.0,0.0,0.0,0.0,0.0,0.0,0.0,0.0,0.0,0.0,0.0,0.0,0.0,0.0,0.0,0.0,0.0,0.0,0.0,0.0,-1.9407,-1.898,-1.8962,-1.8763,-1.8397,0.0,0.0,0.0,0.0,0.0,0.0,0.0,0.0,0.0,0.0,0.0,0.0,0.0,0.0,0.0,0.0,0.0,0.0,0.0,0.0,0.0,0.0,0.0,0.0,0.0,0.0,0.0,0.0,0.0,0.0,0.0,0.0,0.0,0.0,0.0,0.0,0.0,0.0,0.0,0.0,0.0,0.0,0.0,0.0,0.0,0.0,0.0,0.0,0.0,0.0,0.0,0.0,0.0,0.0,0.0,0.0,0.0,0.0,0.0,0.0,0.0,0.0,0.0,0.0,0.0,0.0,0.0,0.0,0.0,0.0,0.0,0.0,0.0,0.0,0.0,0.0,0.0,0.0,0.0,0.0,0.0,0.0,0.0,0.0,0.0,0.0,0.0,0.0,0.0,0.0,0.0,0.0,0.0,0.0,0.0,0.0,0.0,0.0,0.0,0.0,0.0,0.0,0.0,0.0,0.0,0.0,0.0,0.0,0.0,0.0,0.0,0.0,-2.0206,-2.0079,-1.982,0.0,0.0,0.0,0.0,0.0,0.0,0.0,0.0,0.0,0.0,0.0,0.0,0.0,0.0,0.0,0.0,0.0,0.0,0.0,0.0,0.0,0.0,0.0,0.0,0.0,0.0,0.0,0.0,0.0,0.0,0.0,0.0,0.0,0.0,0.0,0.0,0.0,0.0,0.0,0.0,0.0,0.0,0.0,0.0,0.0,0.0,0.0,0.0,0.0,0.0,0.0,0.0,0.0,0.0,0.0,0.0,0.0,0.0,0.0,0.0,0.0,0.0,0.0,0.0,0.0,0.0,0.0,0.0,0.0,0.0,0.0,0.0,0.0,0.0,0.0,0.0,0.0,0.0,0.0,0.0,0.0,0.0,0.0,0.0,0.0,0.0,0.0,0.0,0.0,0.0,0.0,0.0,0.0,0.0,0.0,0.0,0.0,0.0,0.0,0.0,0.0,0.0,0.0,0.0,0.0,0.0,0.0,0.0,0.0,0.0,-2.1312,-2.2035,-2.2035,0.0,-2.0821,0.0,0.0,0.0,0.0,0.0,0.0,0.0,0.0,0.0,0.0,0.0,0.0,0.0,0.0,0.0,0.0,0.0,0.0,0.0,0.0,0.0,0.0,0.0,0.0,0.0,0.0,0.0,0.0,0.0,0.0,0.0,0.0,0.0,0.0,0.0,0.0,0.0,0.0,0.0,0.0,0.0,0.0,0.0,0.0,0.0,0.0,0.0,0.0,0.0,0.0,0.0,0.0,0.0,0.0,0.0,0.0,0.0,0.0,0.0,0.0,0.0,0.0,0.0,0.0,0.0,0.0,0.0,0.0,0.0,0.0,0.0,0.0,0.0,0.0,0.0,0.0,0.0,0.0,0.0,0.0,0.0,0.0,0.0,0.0,0.0,0.0,0.0,0.0,0.0,0.0,0.0,0.0,0.0,0.0,0.0,0.0,0.0,0.0,0.0,0.0,0.0,0.0,0.0,0.0,0.0,0.0,0.0,0.0,0.0,0.0,-2.1604,-2.2407,-2.1928,-2.1463,0.0,0.0,0.0,0.0,0.0,0.0,0.0,0.0,0.0,0.0,0.0,0.0,0.0,0.0,0.0,0.0,0.0,0.0,0.0,0.0,0.0,0.0,0.0,0.0,0.0,0.0,0.0,0.0,0.0,0.0,0.0,0.0,0.0,0.0,0.0,0.0,0.0,0.0,0.0,0.0,0.0,0.0,0.0,0.0,0.0,0.0,0.0,0.0,0.0,0.0,0.0,0.0,0.0,0.0,0.0,0.0,0.0,0.0,0.0,0.0,0.0,0.0,0.0,0.0,0.0,0.0,0.0,0.0,0.0,0.0,0.0,0.0,0.0,0.0,0.0,0.0,0.0,0.0,0.0,0.0,0.0,0.0,0.0,0.0,0.0,0.0,0.0,0.0,0.0,0.0,0.0,0.0,0.0,0.0,0.0,0.0,0.0,0.0,0.0,0.0,0.0,0.0,0.0,0.0,0.0,0.0,0.0,0.0,0.0,0.0,-2.1687,-2.2159,-2.3084,-2.2156,-2.154,-2.1474,0.0,0.0,0.0,0.0,0.0,0.0,0.0,0.0,0.0,0.0,0.0,0.0,0.0,0.0,0.0,0.0,0.0,0.0,0.0,0.0,0.0,0.0,0.0,0.0,0.0,0.0,0.0,0.0,0.0,0.0,0.0,0.0,0.0,0.0,0.0,0.0,0.0,0.0,0.0,0.0,0.0,0.0,0.0,0.0,0.0,0.0,0.0,0.0,0.0,0.0,0.0,0.0,0.0,0.0,0.0,0.0,0.0,0.0,0.0,0.0,0.0,0.0,0.0,0.0,0.0,0.0,0.0,0.0,0.0,0.0,0.0,0.0,0.0,0.0,0.0,0.0,0.0,0.0,0.0,0.0,0.0,0.0,0.0,0.0,0.0,0.0,0.0,0.0,0.0,0.0,0.0,0.0,0.0,0.0,0.0,0.0,0.0,0.0,0.0,0.0,0.0,0.0,0.0,0.0,0.0,0.0,0.0,0.0,-2.2546,-2.2647,-2.3397,-2.4864,-2.3386,-2.2511,0.0,0.0,0.0,0.0,0.0,0.0,0.0,0.0,0.0,0.0,0.0,0.0,0.0,0.0,0.0,0.0,0.0,0.0,0.0,0.0,0.0,0.0,0.0,0.0,0.0,0.0,0.0,0.0,0.0,0.0,0.0,0.0,0.0,0.0,0.0,0.0,0.0,0.0,0.0,0.0,0.0,0.0,0.0,0.0,0.0,0.0,0.0,0.0,0.0,0.0,0.0,0.0,0.0,0.0,0.0,0.0,0.0,0.0,0.0,0.0,0.0,0.0,0.0,0.0,0.0,0.0,0.0,0.0,0.0,0.0,0.0,0.0,0.0,0.0,0.0,0.0,0.0,0.0,0.0,0.0,0.0,0.0,0.0,0.0,0.0,0.0,0.0,0.0,0.0,0.0,0.0,0.0,0.0,0.0,0.0,0.0,0.0,0.0,0.0,0.0,0.0,0.0,0.0,0.0,0.0,0.0,0.0,0.0,0.0,-2.2707,-2.3813,-2.4629,-2.5159,-2.3602,-2.2681,0.0,0.0,0.0,0.0,0.0,0.0,0.0,0.0,0.0,0.0,0.0,0.0,0.0,0.0,0.0,0.0,0.0,0.0,0.0,0.0,0.0,0.0,0.0,0.0,0.0,0.0,0.0,0.0,0.0,0.0,0.0,0.0,0.0,0.0,0.0,0.0,0.0,0.0,0.0,0.0,0.0,0.0,0.0,0.0,0.0,0.0,0.0,0.0,0.0,0.0,0.0,0.0,0.0,0.0,0.0,0.0,0.0,0.0,0.0,0.0,0.0,0.0,0.0,0.0,0.0,0.0,0.0,0.0,0.0,0.0,0.0,0.0,0.0,0.0,0.0,0.0,0.0,0.0,0.0,0.0,0.0,0.0,0.0,0.0,0.0,0.0,0.0,0.0,0.0,0.0,0.0,0.0,0.0,0.0,0.0,0.0,0.0,0.0,0.0,0.0,0.0,0.0,0.0,0.0,0.0,0.0,0.0,0.0,0.0,-2.2799,0.0,-2.505,0.0,-2.3722,-2.2784,0.0,0.0,0.0,0.0,0.0,0.0,0.0,0.0,0.0,0.0,0.0,0.0,0.0,0.0,0.0,0.0,0.0,0.0,0.0,0.0,0.0,0.0,0.0,0.0,0.0,0.0,0.0,0.0,0.0,0.0,0.0,0.0,0.0,0.0,0.0,0.0,0.0,0.0,0.0,0.0,0.0,0.0,0.0,0.0,0.0,0.0,0.0,0.0,0.0,0.0,0.0,0.0,0.0,0.0,0.0,0.0,0.0,0.0,0.0,0.0,0.0,0.0,0.0,0.0,0.0,0.0,0.0,0.0,0.0,0.0,0.0,0.0,0.0,0.0,0.0,0.0,0.0,0.0,0.0,0.0,0.0,0.0,0.0,0.0,0.0,0.0,0.0,0.0,0.0,0.0,0.0,0.0,0.0,0.0,0.0,0.0,0.0,0.0,0.0,0.0,0.0,0.0,0.0,0.0,0.0,0.0,0.0,0.0,-2.1163,-2.2848,-2.3775,-2.466,-2.5337,-2.3813,-2.2887,0.0,0.0,0.0,0.0,0.0,0.0,0.0,0.0,0.0,0.0,0.0,0.0,0.0,0.0,0.0,0.0,0.0,0.0,0.0,0.0,0.0,0.0,0.0,0.0,0.0,0.0,0.0,0.0,0.0,0.0,0.0,0.0,0.0,0.0,0.0,0.0,0.0,0.0,0.0,0.0,0.0,0.0,0.0,0.0,0.0,0.0,0.0,0.0,0.0,0.0,0.0,0.0,0.0,0.0,0.0,0.0,0.0,0.0,0.0,0.0,0.0,0.0,0.0,0.0,0.0,0.0,0.0,0.0,0.0,0.0,0.0,0.0,0.0,0.0,0.0,0.0,0.0,0.0,0.0,0.0,0.0,0.0,0.0,0.0,0.0,0.0,0.0,0.0,0.0,0.0,0.0,0.0,0.0,0.0,0.0,0.0,0.0,0.0,0.0,0.0,0.0,0.0,0.0,0.0,0.0,0.0,0.0,0.0,0.0,-2.2957,-2.4406,-2.5279,-2.5428,-2.4393,-2.3499,0.0,0.0,0.0,0.0,0.0,0.0,0.0,0.0,0.0,0.0,0.0,0.0,0.0,0.0,0.0,0.0,0.0,0.0,0.0,0.0,0.0,0.0,0.0,0.0,0.0,0.0,0.0,0.0,0.0,0.0,0.0,0.0,0.0,0.0,0.0,0.0,0.0,0.0,0.0,0.0,0.0,0.0,0.0,0.0,0.0,0.0,0.0,0.0,0.0,0.0,0.0,0.0,0.0,0.0,0.0,0.0,0.0,0.0,0.0,0.0,0.0,0.0,0.0,0.0,0.0,0.0,0.0,0.0,0.0,0.0,0.0,0.0,0.0,0.0,0.0,0.0,0.0,0.0,0.0,0.0,0.0,0.0,0.0,0.0,0.0,0.0,0.0,0.0,0.0,0.0,0.0,0.0,0.0,0.0,0.0,0.0,0.0,0.0,0.0,0.0,0.0,0.0,0.0,0.0,0.0,0.0,0.0,0.0,0.0,-2.4014,-2.5031,-2.5731,-2.6028,-2.5174,-2.4297,-2.3404,0.0,0.0,0.0,0.0,0.0,0.0,0.0,0.0,0.0,0.0,0.0,0.0,0.0,0.0,0.0,0.0,0.0,0.0,0.0,0.0,0.0,0.0,0.0,0.0,0.0,0.0,0.0,0.0,0.0,0.0,0.0,0.0,0.0,0.0,0.0,0.0,0.0,0.0,0.0,0.0,0.0,0.0,0.0,0.0,0.0,0.0,0.0,0.0,0.0,0.0,0.0,0.0,0.0,0.0,0.0,0.0,0.0,0.0,0.0,0.0,0.0,0.0,0.0,0.0,0.0,0.0,0.0,0.0,0.0,0.0,0.0,0.0,0.0,0.0,0.0,0.0,0.0,0.0,0.0,0.0,0.0,0.0,0.0,0.0,0.0,0.0,0.0,0.0,0.0,0.0,0.0,0.0,0.0,0.0,0.0,0.0,0.0,0.0,0.0,0.0,0.0,0.0,0.0,0.0,0.0,0.0,0.0,0.0,-2.5898,-2.5894,-2.6264,-2.695,-2.6184,-2.5282,0.0,0.0,0.0,0.0,0.0,0.0,0.0,0.0,0.0,0.0,0.0,0.0,0.0,0.0,0.0,0.0,0.0,0.0,0.0,0.0,0.0,0.0,0.0,0.0,0.0,0.0,0.0,0.0,0.0,0.0,0.0,0.0,0.0,0.0,0.0,0.0,0.0,0.0,0.0,0.0,0.0,0.0,0.0,0.0,0.0,0.0,0.0,0.0,0.0,0.0,0.0,0.0,0.0,0.0,0.0,0.0,0.0,0.0,0.0,0.0,0.0,0.0,0.0,0.0,0.0,0.0,0.0,0.0,0.0,0.0,0.0,0.0,0.0,0.0,0.0,0.0,0.0,0.0,0.0,0.0,0.0,0.0,0.0,0.0,0.0,0.0,0.0,0.0,0.0,0.0,0.0,0.0,0.0,0.0,0.0,0.0,0.0,0.0,0.0,0.0,0.0,0.0,0.0,0.0,0.0,0.0,0.0,0.0,0.0,-2.8427,-2.9116,-2.8934,-2.792,-2.7634,-2.6796,0.0,0.0,0.0,0.0,0.0,0.0,0.0,0.0,0.0,0.0,0.0,0.0,0.0,0.0,0.0,0.0,0.0,0.0,0.0,0.0,0.0,0.0,0.0,0.0,0.0,0.0,0.0,0.0,0.0,0.0,0.0,0.0,0.0,0.0,0.0,0.0,0.0,0.0,0.0,0.0,0.0,0.0,0.0,0.0,0.0,0.0,0.0,0.0,0.0,0.0,0.0,0.0,0.0,0.0,0.0,0.0,0.0,0.0,0.0,0.0,0.0,0.0,0.0,0.0,0.0,0.0,0.0,0.0,0.0,0.0,0.0,0.0,0.0,0.0,0.0,0.0,0.0,0.0,0.0,0.0,0.0,0.0,0.0,0.0,0.0,0.0,0.0,0.0,0.0,0.0,0.0,0.0,0.0,0.0,0.0,0.0,0.0,0.0,0.0,0.0,0.0,0.0,0.0,0.0,0.0,0.0,0.0,0.0,-2.82,-3.0057,-3.1276,-3.1413,-3.0426,-2.9691,-2.8457,0.0,0.0,0.0,0.0,0.0,0.0,0.0,0.0,0.0,0.0,0.0,0.0,0.0,0.0,0.0,0.0,0.0,0.0,0.0,0.0,0.0,0.0,0.0,0.0,0.0,0.0,0.0,0.0,0.0,0.0,0.0,0.0,0.0,0.0,0.0,0.0,0.0,0.0,0.0,0.0,0.0,0.0,0.0,0.0,0.0,0.0,0.0,0.0,0.0,0.0,0.0,0.0,0.0,0.0,0.0,0.0,0.0,0.0,0.0,0.0,0.0,0.0,0.0,0.0,0.0,0.0,0.0,0.0,0.0,0.0,0.0,0.0,0.0,0.0,0.0,0.0,0.0,0.0,0.0,0.0,0.0,0.0,0.0,0.0,0.0,0.0,0.0,0.0,0.0,0.0,0.0,0.0,0.0,0.0,0.0,0.0,0.0,0.0,0.0,0.0,0.0,0.0,0.0,0.0,0.0,0.0,0.0,0.0,-3.0004,-3.1018,-3.2767,-3.3668,-3.3607,-3.1906,-3.0087,0.0,0.0,0.0,0.0,0.0,0.0,0.0,0.0,0.0,0.0,0.0,0.0,0.0,0.0,0.0,0.0,0.0,0.0,0.0,0.0,0.0,0.0,0.0,0.0,0.0,0.0,0.0,0.0,0.0,0.0,0.0,0.0,0.0,0.0,0.0,0.0,0.0,0.0,0.0,0.0,0.0,0.0,0.0,0.0,0.0,0.0,0.0,0.0,0.0,0.0,0.0,0.0,0.0,0.0,0.0,0.0,0.0,0.0,0.0,0.0,0.0,0.0,0.0,0.0,0.0,0.0,0.0,0.0,0.0,0.0,0.0,0.0,0.0,0.0,0.0,0.0,0.0,0.0,0.0,0.0,0.0,0.0,0.0,0.0,0.0,0.0,0.0,0.0,0.0,0.0,0.0,0.0,0.0,0.0,0.0,0.0,0.0,0.0,0.0,0.0,0.0,0.0,0.0,0.0,0.0,0.0,0.0,0.0,-3.0325,-3.1854,-3.4197,-3.5445,-3.5444,-3.3083,-3.1001,0.0,0.0,0.0,0.0,0.0,0.0,0.0,0.0,0.0,0.0,0.0,0.0,0.0,0.0,0.0,0.0,0.0,0.0,0.0,0.0,0.0,0.0,0.0,0.0,0.0,0.0,0.0,0.0,0.0,0.0,0.0,0.0,0.0,0.0,0.0,0.0,0.0,0.0,0.0,0.0,0.0,0.0,0.0,0.0,0.0,0.0,0.0,0.0,-1.9425,0.0,0.0,0.0,0.0,0.0,0.0,0.0,0.0,0.0,0.0,0.0,0.0,0.0,0.0,0.0,0.0,0.0,0.0,0.0,0.0,0.0,0.0,0.0,0.0,0.0,0.0,0.0,0.0,0.0,0.0,0.0,0.0,0.0,0.0,0.0,0.0,0.0,0.0,0.0,0.0,0.0,0.0,0.0,0.0,0.0,0.0,0.0,0.0,0.0,0.0,0.0,0.0,0.0,0.0,0.0,0.0,0.0,0.0,0.0,-3.104,-3.2695,-3.4843,-3.6013,-3.5932,-3.3863,-3.1902,0.0,0.0,0.0,0.0,0.0,0.0,0.0,0.0,0.0,0.0,0.0,0.0,0.0,0.0,0.0,0.0,0.0,0.0,0.0,0.0,0.0,0.0,0.0,0.0,0.0,0.0,0.0,0.0,0.0,0.0,0.0,0.0,0.0,0.0,0.0,0.0,0.0,0.0,0.0,0.0,0.0,0.0,0.0,0.0,0.0,0.0,0.0,0.0,0.0,0.0,0.0,0.0,0.0,0.0,0.0,0.0,0.0,0.0,0.0,0.0,0.0,0.0,0.0,0.0,0.0,0.0,0.0,0.0,0.0,0.0,0.0,0.0,0.0,0.0,0.0,0.0,0.0,0.0,0.0,0.0,0.0,0.0,0.0,0.0,0.0,0.0,0.0,0.0,0.0,0.0,0.0,0.0,0.0,0.0,0.0,0.0,0.0,0.0,0.0,0.0,0.0,0.0,0.0,0.0,0.0,0.0,0.0,-3.0009,-3.1714,-3.3379,-3.5234,-3.6132,-3.5971,-3.4429,-3.2701,-3.0843,0.0,0.0,0.0,0.0,0.0,0.0,0.0,0.0,0.0,0.0,0.0,0.0,0.0,0.0,0.0,0.0,0.0,0.0,0.0,0.0,0.0,0.0,0.0,0.0,0.0,0.0,0.0,0.0,0.0,0.0,0.0,0.0,0.0,0.0,0.0,0.0,0.0,0.0,-1.7045,-1.8787,0.0,0.0,0.0,0.0,0.0,0.0,0.0,0.0,-1.983,0.0,0.0,0.0,0.0,0.0,0.0,0.0,0.0,0.0,0.0,0.0,0.0,0.0,0.0,0.0,0.0,0.0,0.0,0.0,0.0,0.0,0.0,0.0,0.0,0.0,0.0,0.0,0.0,0.0,0.0,0.0,0.0,0.0,0.0,0.0,0.0,0.0,0.0,0.0,0.0,0.0,0.0,0.0,0.0,0.0,0.0,0.0,0.0,0.0,0.0,0.0,0.0,0.0,0.0,0.0,0.0,-2.8261,-3.0019,-3.1719,-3.3379,-3.5801,-3.6738,-3.601,-3.5015,-3.331,-3.091,0.0,0.0,0.0,0.0,0.0,0.0,0.0,0.0,0.0,0.0,0.0,0.0,0.0,0.0,0.0,0.0,0.0,0.0,0.0,0.0,0.0,0.0,0.0,0.0,0.0,0.0,0.0,0.0,0.0,0.0,0.0,0.0,0.0,0.0,0.0,0.0,0.0,0.0,0.0,-1.8906,-2.0,0.0,0.0,0.0,0.0,0.0,0.0,0.0,0.0,-1.9877,0.0,0.0,0.0,0.0,0.0,0.0,0.0,0.0,0.0,0.0,0.0,0.0,0.0,0.0,0.0,0.0,0.0,0.0,0.0,0.0,0.0,0.0,0.0,0.0,0.0,0.0,0.0,0.0,0.0,0.0,0.0,0.0,0.0,0.0,0.0,0.0,0.0,0.0,0.0,0.0,0.0,0.0,0.0,0.0,0.0,0.0,0.0,0.0,0.0,0.0,0.0,0.0,0.0,0.0,0.0,-2.8184,-2.957,-3.1269,-3.3359,-3.5059,-3.5742,-3.5328,-3.4468,-3.2803,0.0,0.0,0.0,0.0,0.0,0.0,0.0,0.0,0.0,0.0,0.0,0.0,0.0,0.0,0.0,0.0,0.0,0.0,0.0,0.0,0.0,0.0,0.0,0.0,0.0,0.0,0.0,0.0,0.0,0.0,0.0,0.0,0.0,0.0,0.0,0.0,0.0,0.0,0.0,0.0,-1.9325,-2.0117,-2.0117,0.0,0.0,0.0,0.0,0.0,0.0,-2.0907,-2.063,0.0,0.0,0.0,0.0,0.0,0.0,0.0,0.0,0.0,0.0,0.0,0.0,0.0,0.0,0.0,0.0,0.0,0.0,0.0,0.0,0.0,0.0,0.0,0.0,0.0,0.0,0.0,0.0,0.0,0.0,0.0,0.0,0.0,0.0,0.0,0.0,0.0,0.0,0.0,0.0,0.0,0.0,0.0,0.0,0.0,0.0,0.0,0.0,0.0,0.0,0.0,0.0,0.0,0.0,0.0,-2.8184,-2.9141,-3.082,-3.3301,-3.4258,-3.4707,-3.4683,-3.3863,-3.2159,0.0,0.0,0.0,0.0,0.0,0.0,0.0,0.0,0.0,0.0,0.0,0.0,0.0,0.0,0.0,0.0,0.0,0.0,0.0,0.0,0.0,0.0,0.0,0.0,0.0,0.0,0.0,0.0,0.0,0.0,0.0,0.0,0.0,0.0,0.0,0.0,0.0,0.0,0.0,0.0,0.0,-2.043,-2.0384,-2.113,0.0,0.0,0.0,0.0,-2.2623,-2.2032,0.0,0.0,0.0,0.0,0.0,0.0,0.0,0.0,0.0,0.0,0.0,0.0,0.0,0.0,0.0,0.0,0.0,0.0,0.0,0.0,0.0,0.0,0.0,0.0,0.0,0.0,0.0,0.0,0.0,0.0,0.0,0.0,0.0,0.0,0.0,0.0,0.0,0.0,0.0,0.0,0.0,0.0,0.0,0.0,0.0,0.0,0.0,0.0,0.0,0.0,0.0,0.0,0.0,0.0,0.0,0.0,-2.8184,-2.916,-3.082,-3.3301,-3.4238,-3.4707,-3.4684,-3.3863,-3.2182,0.0,0.0,0.0,0.0,0.0,0.0,0.0,0.0,0.0,0.0,0.0,0.0,0.0,0.0,0.0,0.0,0.0,0.0,0.0,0.0,0.0,0.0,0.0,0.0,0.0,0.0,0.0,0.0,0.0,0.0,0.0,0.0,0.0,0.0,0.0,0.0,0.0,0.0,0.0,0.0,0.0,-2.1346,-2.1338,-2.2048,-2.2556,0.0,0.0,-2.264,-2.268,-2.2594,0.0,0.0,0.0,0.0,0.0,0.0,0.0,0.0,0.0,0.0,0.0,0.0,0.0,0.0,0.0,0.0,0.0,0.0,0.0,0.0,0.0,0.0,0.0,0.0,0.0,0.0,0.0,0.0,0.0,0.0,0.0,0.0,0.0,0.0,0.0,0.0,0.0,0.0,0.0,0.0,0.0,0.0,0.0,0.0,0.0,0.0,0.0,0.0,0.0,0.0,0.0,0.0,0.0,0.0,0.0,-2.4844,-2.8164,-2.8672,-3.0098,-3.2617,-3.3047,-3.3222,-3.3219,-3.2868,-3.1437,0.0,0.0,0.0,0.0,0.0,0.0,0.0,0.0,0.0,0.0,0.0,0.0,0.0,0.0,0.0,0.0,0.0,0.0,0.0,0.0,0.0,0.0,0.0,0.0,0.0,0.0,0.0,0.0,0.0,0.0,0.0,0.0,0.0,0.0,0.0,0.0,0.0,0.0,0.0,0.0,0.0,0.0,-2.2162,-2.3343,0.0,0.0,0.0,-2.5573,-2.5584,0.0,0.0,0.0,0.0,0.0,0.0,0.0,0.0,0.0,0.0,0.0,0.0,0.0,0.0,0.0,0.0,0.0,0.0,0.0,0.0,0.0,0.0,0.0,0.0,0.0,0.0,0.0,0.0,0.0,0.0,0.0,0.0,0.0,0.0,0.0,0.0,0.0,0.0,0.0,0.0,0.0,0.0,0.0,0.0,0.0,0.0,0.0,0.0,0.0,0.0,0.0,0.0,0.0,0.0,0.0,0.0,0.0,-2.8203,-2.8281,-2.9551,-3.2051,-3.2129,-3.2108,-3.21,-3.2098,0.0,0.0,0.0,0.0,0.0,0.0,0.0,0.0,0.0,0.0,0.0,0.0,0.0,0.0,0.0,0.0,0.0,0.0,0.0,0.0,0.0,0.0,0.0,0.0,0.0,0.0,0.0,-1.8061,0.0,0.0,0.0,0.0,0.0,0.0,0.0,0.0,0.0,0.0,0.0,0.0,0.0,0.0,-2.2688,-2.3332,-2.486,-2.5945,0.0,0.0,-2.7823,-2.7823,-2.6576,-2.5617,0.0,0.0,0.0,0.0,0.0,0.0,0.0,0.0,0.0,0.0,0.0,0.0,0.0,0.0,0.0,0.0,0.0,0.0,0.0,0.0,0.0,0.0,0.0,0.0,0.0,0.0,0.0,0.0,0.0,0.0,0.0,0.0,0.0,0.0,0.0,0.0,0.0,0.0,0.0,0.0,0.0,0.0,0.0,0.0,0.0,0.0,0.0,0.0,0.0,0.0,0.0,0.0,0.0,0.0,0.0,-2.8164,-2.8281,-2.9531,-3.1992,-3.2109,-3.2106,-3.2115,-3.2108,-3.0857,0.0,0.0,0.0,0.0,0.0,0.0,0.0,0.0,0.0,0.0,0.0,0.0,0.0,0.0,0.0,0.0,0.0,0.0,0.0,0.0,0.0,0.0,0.0,0.0,0.0,0.0,0.0,0.0,0.0,0.0,0.0,0.0,0.0,0.0,0.0,0.0,0.0,0.0,0.0,0.0,0.0,-2.5053,-2.513,-2.6621,-2.7717,0.0,0.0,-2.789,-2.7909,-2.714,-2.6524,-2.6514,0.0,0.0,0.0,0.0,0.0,0.0,0.0,0.0,0.0,0.0,0.0,0.0,0.0,0.0,0.0,0.0,0.0,0.0,0.0,0.0,0.0,0.0,0.0,0.0,0.0,0.0,0.0,0.0,0.0,0.0,0.0,0.0,0.0,0.0,0.0,0.0,0.0,0.0,0.0,0.0,0.0,0.0,0.0,0.0,0.0,0.0,0.0,0.0,0.0,0.0,0.0,0.0,0.0,-2.5359,-2.8235,-2.8297,-2.9531,-3.1973,-3.2107,-3.2112,-3.2108,-3.2069,-3.082,0.0,0.0,0.0,0.0,0.0,0.0,0.0,0.0,0.0,0.0,0.0,0.0,0.0,0.0,0.0,0.0,0.0,0.0,0.0,0.0,0.0,0.0,0.0,0.0,0.0,0.0,0.0,0.0,-2.01,-2.0292,-2.0292,0.0,0.0,0.0,0.0,0.0,0.0,0.0,0.0,0.0,0.0,-2.5678,-2.6755,-2.789,0.0,0.0,-2.9083,-2.9448,-2.9448,-2.8717,-2.7967,-2.7486,-2.5986,0.0,0.0,0.0,0.0,0.0,0.0,0.0,0.0,0.0,0.0,0.0,0.0,0.0,0.0,0.0,0.0,0.0,0.0,0.0,0.0,0.0,0.0,0.0,0.0,0.0,0.0,0.0,0.0,0.0,0.0,0.0,0.0,0.0,0.0,0.0,0.0,0.0,0.0,0.0,0.0,0.0,0.0,0.0,0.0,0.0,0.0,0.0,0.0,0.0,0.0,0.0,0.0,-2.5937,-2.8279,-2.8795,-3.0032,-3.2049,-3.2343,-3.235,-3.2069,-3.202,-3.0884,0.0,0.0,0.0,0.0,0.0,0.0,0.0,0.0,0.0,0.0,0.0,0.0,0.0,0.0,0.0,0.0,0.0,0.0,0.0,0.0,0.0,0.0,0.0,0.0,0.0,0.0,0.0,0.0,-2.0292,-2.0292,-2.0292,0.0,0.0,0.0,0.0,0.0,0.0,0.0,0.0,0.0,0.0,-2.6601,-2.8063,-2.8948,-2.9486,-2.9486,-3.0006,-3.0398,-3.0398,-2.966,-2.8909,-2.8352,0.0,0.0,0.0,0.0,0.0,0.0,0.0,0.0,0.0,0.0,0.0,0.0,0.0,0.0,0.0,0.0,0.0,0.0,0.0,0.0,0.0,0.0,0.0,0.0,0.0,0.0,0.0,0.0,0.0,0.0,-2.3105,0.0,0.0,0.0,0.0,0.0,0.0,0.0,0.0,0.0,0.0,0.0,0.0,0.0,0.0,0.0,0.0,0.0,0.0,0.0,0.0,0.0,0.0,-2.6549,-2.8291,-2.9887,-3.1162,-3.2109,-3.2927,-3.2953,-3.2089,-3.2019,-3.1153,-2.9306,0.0,0.0,0.0,0.0,0.0,0.0,0.0,0.0,0.0,0.0,0.0,0.0,0.0,0.0,0.0,0.0,0.0,0.0,0.0,0.0,0.0,0.0,0.0,0.0,0.0,0.0,-2.0235,-2.0292,-2.0312,0.0,0.0,0.0,0.0,0.0,0.0,0.0,0.0,0.0,0.0,-2.6794,-2.814,-2.8967,-2.9813,-3.0321,-3.0352,-3.0359,-3.0398,-3.0398,-2.9679,-2.9113,0.0,0.0,0.0,0.0,0.0,0.0,0.0,0.0,0.0,0.0,0.0,0.0,0.0,0.0,0.0,0.0,0.0,0.0,0.0,0.0,0.0,0.0,0.0,0.0,0.0,0.0,0.0,-2.4824,-2.4844,0.0,0.0,0.0,0.0,0.0,0.0,0.0,0.0,0.0,0.0,0.0,-3.0019,-3.0039,0.0,0.0,0.0,0.0,0.0,0.0,0.0,0.0,0.0,0.0,0.0,0.0,-2.7371,-2.9063,-3.0213,-3.1469,-3.2872,-3.3741,-3.4024,-3.3616,-3.3016,-3.1632,-2.9323,0.0,0.0,0.0,0.0,0.0,0.0,0.0,0.0,0.0,0.0,0.0,0.0,0.0,0.0,0.0,0.0,0.0,0.0,0.0,0.0,0.0,0.0,0.0,0.0,0.0,-1.9985,0.0,0.0,0.0,0.0,0.0,0.0,0.0,0.0,0.0,0.0,0.0,-2.5428,-2.6832,-2.7986,-2.8986,-2.9852,-3.0217,-3.0398,0.0,0.0,0.0,0.0,0.0,0.0,0.0,0.0,0.0,0.0,0.0,0.0,0.0,0.0,-3.0525,-2.8294,-2.789,-2.8063,-2.8602,0.0,0.0,0.0,0.0,0.0,0.0,0.0,0.0,0.0,0.0,0.0,0.0,0.0,0.0,-2.75,0.0,-2.7187,0.0,0.0,0.0,0.0,0.0,0.0,0.0,0.0,-3.0918,-3.1562,-3.2656,-3.2656,-3.2676,0.0,-3.2363,-3.1639,0.0,0.0,0.0,0.0,0.0,0.0,0.0,0.0,-2.8486,-2.9916,-3.1051,-3.2294,-3.3639,-3.455,-3.478,-3.4345,-3.3233,-3.1667,-2.9685,-2.8788,-2.793,0.0,0.0,0.0,0.0,0.0,0.0,0.0,0.0,0.0,0.0,0.0,0.0,0.0,0.0,0.0,0.0,0.0,0.0,0.0,0.0,0.0,0.0,0.0,-2.1158,0.0,0.0,0.0,0.0,0.0,0.0,0.0,0.0,0.0,-2.4505,-2.5236,-2.639,-2.8102,-2.8775,-2.9525,-3.0698,0.0,0.0,0.0,0.0,0.0,0.0,0.0,-3.1083,-3.0506,-3.0891,-3.1198,-3.091,-3.1814,-3.266,-3.2968,0.0,0.0,-3.014,-2.964,-2.9794,-3.0314,-3.066,-3.1044,-3.1602,-3.1955,-3.2083,0.0,0.0,0.0,0.0,0.0,0.0,0.0,0.0,-3.0684,-3.1055,0.0,-3.0156,0.0,0.0,0.0,0.0,0.0,-2.9766,0.0,0.0,-3.3535,-3.4453,-3.6055,-3.6152,-3.6133,-3.6074,-3.5273,-3.4823,-3.4564,-3.1448,0.0,0.0,0.0,0.0,0.0,0.0,-2.9862,-3.0819,-3.2389,-3.3615,-3.438,-3.5248,-3.5232,-3.4306,-3.2651,-3.1361,-3.0475,-2.9605,-2.8756,-2.7948,-2.7141,0.0,0.0,0.0,0.0,0.0,0.0,0.0,0.0,0.0,0.0,0.0,0.0,0.0,0.0,0.0,0.0,0.0,0.0,0.0,0.0,-2.2793,0.0,0.0,0.0,0.0,0.0,0.0,0.0,0.0,0.0,0.0,-2.5553,-2.6217,-2.7294,-2.8909,0.0,0.0,0.0,0.0,-3.2006,-3.2756,-3.2891,-3.2872,-3.2872,-3.2872,-3.2872,-3.2891,0.0,0.0,-3.416,-3.4295,-3.4603,-3.543,-3.5565,-3.5045,-3.3372,-3.2949,-3.2929,-3.3026,-3.3622,-3.4218,-3.4353,-3.4891,-3.5218,-3.5137,0.0,0.0,0.0,0.0,-3.1973,-3.2676,-3.3301,-3.416,-3.4551,-3.4492,-3.3633,0.0,0.0,0.0,0.0,0.0,0.0,-3.3965,-3.5312,-3.6543,-3.7715,-3.8789,-3.9367,-3.934,-3.8795,-3.8534,-3.777,-3.6554,-3.5529,-3.3663,-3.104,0.0,0.0,0.0,0.0,-3.095,-3.2396,-3.3498,-3.4154,-3.4326,-3.5174,-3.5194,-3.4257,-3.3141,-3.2172,-3.1364,-3.0487,-2.964,-2.8794,-2.8533,0.0,0.0,0.0,0.0,0.0,0.0,0.0,0.0,0.0,0.0,0.0,0.0,0.0,0.0,0.0,0.0,0.0,0.0,0.0,-2.2793,-2.2793,-2.2793,0.0,0.0,0.0,0.0,0.0,0.0,0.0,0.0,0.0,-2.8783,-2.8602,-2.8775,0.0,0.0,-3.1333,-3.241,-3.2564,-3.2641,-3.2872,-3.2891,0.0,0.0,-3.2891,-3.3103,-3.3718,-3.4795,-3.5911,-3.6757,-3.6911,-3.6988,-3.7238,-3.7276,-3.7103,-3.6622,-3.5526,-3.5026,-3.5488,-3.5834,-3.6199,-3.6776,-3.7123,-3.7219,-3.9961,-3.6855,-3.5371,-3.4726,-3.4805,-3.5625,-3.6289,-3.6816,-3.7676,-3.7871,-3.748,-3.6621,-3.5762,-3.4902,-3.4082,0.0,0.0,0.0,-3.6894,-3.8105,-3.947,-4.0581,-4.1401,-4.19,-4.1888,-4.141,-4.1062,-4.0335,-3.9268,-3.8533,-3.717,-3.5067,0.0,0.0,-3.2374,-3.2183,-3.2774,-3.4055,-3.4911,-3.5349,-3.528,-3.5454,-3.5292,-3.4724,-3.3532,-3.266,-3.2179,-3.1044,-3.016,-2.964,-2.9291,-2.8887,0.0,0.0,0.0,0.0,0.0,0.0,0.0,0.0,0.0,0.0,0.0,-2.4082,-2.4783,0.0,0.0,0.0,-2.4803,-2.4812,-2.4812,-2.4812,0.0,0.0,0.0,0.0,0.0,0.0,0.0,-2.8813,-2.886,-2.9483,-3.1136,-3.0912,-3.0777,-3.1321,-3.1852,-3.2487,-3.3295,0.0,-3.3545,-3.3891,-3.4218,-3.441,-3.441,-3.4699,-3.5103,-3.5622,-3.6507,-3.7488,-3.8334,-3.8507,-3.8623,-3.8911,-3.8988,-3.9008,-3.8988,-3.8142,-3.7353,-3.7257,-3.7507,-3.7911,-3.845,-3.8757,-3.8911,-4.4375,-4.2695,-4.0332,-3.916,-3.8984,-3.9766,-4.0117,-4.0273,-4.1035,-4.0957,-4.0136,-3.9277,-3.8418,-3.7559,-3.6777,0.0,-3.7637,-3.8496,-3.9746,-4.1328,-4.2192,-4.3017,-4.3798,-4.3869,-4.386,-4.3758,-4.2971,-4.2524,-4.2305,-4.0779,-3.9946,-3.9799,-3.6623,-3.4492,-3.3587,-3.4234,-3.4982,-3.5772,-3.6516,-3.6856,-3.6787,-3.5951,-3.5507,-3.5468,-3.3795,-3.2891,-3.2852,-3.1295,-3.0398,-3.0359,-2.9625,-2.919,-2.9171,0.0,0.0,0.0,0.0,0.0,0.0,0.0,0.0,0.0,0.0,0.0,0.0,0.0,0.0,0.0,-2.789,0.0,-2.789,-2.789,0.0,0.0,0.0,-2.8082,-2.8082,-2.8217,-2.8879,-3.0417,0.0,0.0,-3.2781,-3.2933,-3.2966,-3.3071,-3.3032,-3.3314,-3.416,-3.4276,-3.4603,-3.5262,-3.6051,-3.6551,-3.6454,-3.7257,-3.7873,-3.793,-3.8161,-3.8527,-3.92,-3.9373,-3.97,-4.0273,-4.0469,-4.045,-4.0469,-4.0296,-4.0027,-3.8469,-3.8815,-3.9373,-3.9392,-3.9892,-4.0123,-4.7734,-4.7246,-4.5976,-4.3945,-4.1543,-4.1719,-4.2187,-4.2793,-4.2999,-4.2971,-4.2737,-4.1878,-4.1023,-4.0191,-3.9976,-3.9995,-4.023,-4.1089,-4.1714,-4.2202,-4.369,-4.4473,-4.4709,-4.5323,-4.5247,-4.4624,-4.4423,-4.3936,-4.3214,-4.2801,-4.2214,-4.1416,-3.996,-3.8454,-3.6957,-3.6472,-3.6633,-3.7439,-3.7627,-3.7376,-3.6722,-3.5925,-3.5507,-3.5488,-3.3814,-3.2891,-3.2872,-3.1295,-3.0398,-3.0398,-3.0206,-3.011,-3.0071,-2.9267,0.0,0.0,0.0,0.0,0.0,0.0,0.0,0.0,0.0,-2.7448,-2.7852,0.0,-2.7892,0.0,-2.789,-2.789,-2.789,-2.789,0.0,0.0,-2.9002,-2.9728,-2.9747,-3.0868,-3.1782,-3.2166,-3.2223,-3.2607,-3.3662,-3.3796,-3.4045,-3.4621,-3.4194,-3.4117,-3.4904,-3.5038,-3.5096,-3.5311,-3.5537,-3.5882,-3.6675,-3.7993,-3.8931,-3.8988,-3.945,-3.9969,-4.0162,-4.0215,-4.0296,-4.045,-4.0489,-4.0489,-4.0469,-4.0489,-4.0373,-3.9988,-4.0085,-4.0219,-4.02,-4.0373,-4.0446,-4.9258,-4.8848,-4.8376,-4.683,-4.4702,-4.4292,-4.441,-4.4861,-4.4853,-4.463,-4.424,-4.3352,-4.2711,-4.2268,-4.2249,-4.2246,-4.2318,-4.3157,-4.3548,-4.3626,-4.4914,-4.5538,-4.5559,-4.5962,-4.5908,-4.5445,-4.5398,-4.5112,-4.4579,-4.418,-4.3699,-4.3111,-4.2207,-4.1272,-4.0298,-3.8714,-3.8132,-3.8584,-3.8565,-3.8157,-3.728,-3.6463,-3.5872,-3.5507,-3.418,-3.3468,-3.3468,-3.2218,-3.1525,-3.1506,-3.1518,-3.1511,-3.1492,-3.1056,-3.0775,0.0,0.0,0.0,0.0,0.0,0.0,0.0,0.0,0.0,0.0,0.0,-3.0125,-3.0121,-3.0129,-3.0117,-3.0117,-3.0105,-3.0074,-3.0074,-3.0887,-3.1398,-3.1398,-3.221,-3.2924,-3.3293,-3.3302,-3.3612,-3.4435,-3.4553,-3.471,-3.5168,-3.4824,-3.4741,-3.5185,-3.5315,-3.5315,-3.5315,-3.5622,-3.6197,-3.7091,-3.8024,-3.8674,-3.8712,-3.9054,-3.9339,-3.9358,-3.9373,-3.9373,-3.9373,-3.9392,-3.9527,-3.9873,-3.9965,-4.0046,-4.0412,-4.0492,-4.0492,-4.0489,-4.0489,-4.0489,-4.9902,-4.9218,-4.9121,-4.8623,-4.7845,-4.6983,-4.6482,-4.63,-4.63,-4.587,-4.5106,-4.4351,-4.4009,-4.4028,-4.4009,-4.402,-4.4075,-4.4816,-4.5167,-4.5187,-4.5859,-4.6189,-4.6189,-4.6119,-4.6083,-4.6056,-4.5998,-4.5936,-4.5873,-4.5109,-4.4703,-4.4611,-4.3721,-4.3265,-4.315,-4.0939,-3.973,-3.9619,-3.9392,-3.8888,-3.7993,-3.7156,-3.6315,-3.5512,-3.4641,-3.4199,-3.418,-3.3353,-3.2891,-3.2891,-3.289,-3.2894,-3.2894,-3.2902,-3.2902,0.0,-3.2902,0.0,0.0,0.0,0.0,0.0,0.0,0.0,0.0,-3.2909,-3.2909,-3.2897,-3.2878,-3.2883,-3.2883,-3.2837,-3.2804,-3.279,-3.2886,-3.2929,-3.2929,-3.3025,-3.3374,-3.4056,-3.4085,-3.432,-3.4954,-3.5091,-3.5075,-3.5075,-3.5054,-3.5051,-3.5203,-3.5235,-3.527,-3.5304,-3.601,-3.6738,-3.7424,-3.7789,-3.7939,-3.7939,-3.8009,-3.7909,-3.8005,-3.8001,-3.805,-3.805,-3.8108,-3.8319,-3.8992,-3.9127,-3.9339,-3.9915,-3.9999,-4.0134,-4.0415,-4.0492,-4.0492,-5.1071,-5.0858,-5.0204,-4.9833,-4.956,-4.8688,-4.7561,-4.6306,-4.6306,-4.6202,-4.6035,-4.5826,-4.5728,-4.5728,-4.5724,-4.5743,-4.5738,-4.5903,-4.5975,-4.5975,-4.6076,-4.6111,-4.6102,-4.5997,-4.5953,-4.5941,-4.5873,-4.5827,-4.5805,-4.5641,-4.5538,-4.5436,-4.4592,-4.4135,-4.4025,0.0,0.0,0.0,-3.9985,-3.8858,-3.8001,-3.7166,-3.6315,-3.5526,-3.4661,0.0,-3.418,-3.3353,-3.2891,-3.2891,-3.2904,0.0,0.0,0.0,0.0,0.0,0.0,0.0,0.0,0.0,0.0,0.0,-3.3615,-3.325,-3.2949,-3.2885,-3.2883,-3.2819,-3.2814,-3.2818,-3.2804,-3.2804,-3.2771,-3.2747,-3.331,-3.37,-3.3726,-3.4266,-3.4745,-3.4861,-3.4826,-3.4848,-3.4963,-3.4964,-3.4927,-3.4927,-3.4945,-3.4945,-3.4963,-3.5054,-3.5126,-3.5202,-3.588,-3.6523,-3.6733,-3.7354,-3.7731,-3.7901,-3.7901,-3.7843,-3.7805,-3.784,-3.7878,-3.784,-3.7897,-3.7916,-3.8147,-3.8147,-3.8239,-3.8377,-3.8415,-3.8818,-4.0175,-4.0447,-4.0413,-5.1391,0.0,-5.0965,-5.0532,0.0,-4.9621,-4.8718,-4.7504,-4.7079,-4.665,-4.625,-4.6201,-4.6195,-4.6195,-4.6209,-4.6183,-4.6151,-4.6157,-4.6142,-4.6146,-4.6085,-4.6017,-4.5977,-4.5886,-4.5854,-4.5827,-4.5786,-4.5761,-4.5754,-4.5754,-4.5722,-4.5657,-4.5216,-4.4985,-4.4913,-4.4105,-4.3082,-4.1825,-4.0543,-3.9281,-3.8063,-3.7555,-3.6757,-3.5551,0.0,0.0,0.0,0.0,0.0,0.0,0.0,0.0,0.0,0.0,0.0,-3.4178,-3.4197,-3.4197,-3.4197,-3.4548,-3.4971,-3.5402,-3.5763,-3.5451,-3.4186,-3.4087,-3.4078,-3.4031,-3.4002,-3.3976,-3.3941,-3.3926,-3.3933,-3.3917,-3.423,-3.4444,-3.4483,-3.4754,-3.4982,-3.4945,-3.4927,-3.487,-3.4849,-3.483,-3.4791,-3.4751,-3.4751,-3.4751,-3.4771,-3.4889,-3.5001,-3.5057,-3.5397,-3.5774,-3.5829,-3.6148,-3.6544,-3.6506,-3.6523,-3.652,-3.6556,-3.6572,-3.6623,-3.6619,-3.6619,-3.6715,-3.7175,-3.7252,-3.7386,-3.7734,-3.7814,-3.8029,-3.9004,-3.9444,-3.9749,-5.1394,-5.139,-5.139,-5.0991,-5.0332,-5.0313,-4.9802,-4.8931,0.0,0.0,0.0,-4.6469,-4.6385,-4.6378,-4.6247,-4.6154,-4.6091,-4.6084,-4.6085,-4.6056,-4.6003,-4.5937,-4.5861,-4.5814,-4.5776,-4.5785,-4.5715,-4.5684,-4.5693,-4.5673,-4.5657,-4.5603,-4.5586,-4.5586,-4.5528,-4.472,-4.3544,-4.2079,-4.1158,-3.9935,-3.8293,-3.8223,-3.743,-3.5757,-3.5699,-3.5628,-3.5507,-3.5507,-3.5507,-3.5507,-3.5507,-3.5565,-3.5699,-3.5718,-3.5776,-3.5944,-3.5963,-3.593,-3.5968,-3.6551,-3.6906,-3.6895,-3.7501,-3.7252,-3.5825,-3.5714,-3.572,-3.5738,-3.5524,-3.535,-3.5297,-3.5131,-3.5057,-3.5057,-3.5001,-3.4945,-3.4946,-3.4889,-3.485,-3.4772,-3.4752,-3.4732,-3.4687,-3.4666,-3.4623,-3.4561,-3.4561,-3.4561,-3.4583,-3.4751,-3.487,-3.4946,-3.504,-3.5039,-3.5058,-3.5132,-3.5075,-3.5208,-3.5167,-3.5107,-3.516,-3.5209,-3.5242,-3.5426,-3.5289,-3.5614,-3.617,-3.6323,-3.6572,-3.719,-3.7273,-3.7238,-3.7297,-3.7944,-3.861,-5.1406,-5.1391,-5.1391,-5.1327,-5.1219,-5.1167,-5.0594,-4.9703,-4.8883,-4.8472,-4.8296,-4.7551,-4.7183,-4.7126,-4.6425,-4.6085,-4.6017,-4.6025,-4.6003,-4.591,-4.5867,-4.5833,-4.581,-4.5754,-4.5726,-4.5709,-4.5657,-4.562,-4.5622,-4.5603,-4.5603,-4.5586,-4.5586,-4.5586,-4.5528,-4.472,-4.3838,-4.2919,-4.2069,-4.08,-3.9189,-3.9108,-3.831,-3.665,-3.6526,-3.6199,-3.5532,-3.5526,-3.5507,-3.5507,-3.5507,-3.5795,-3.6477,-3.6535,-3.6856,-3.7583,-3.7641,-3.7646,-3.7642,-3.7757,-3.7786,-3.7731,-3.7745,-3.7647,-3.7467,-3.7395,-3.7371,-3.7319,-3.6558,-3.6065,-3.6008,-3.5382,-3.4965,-3.4888,-3.485,-3.4792,-3.4749,-3.4728,-3.4689,-3.4626,-3.4583,-3.452,-3.4517,-3.4454,-3.445,-3.4409,-3.4404,-3.4409,-3.4431,-3.4604,-3.4728,-3.4749,-3.4791,-3.4812,-3.4851,-3.4889,-3.4927,-3.4927,-3.4983,-3.5001,-3.5019,-3.5092,-3.5127,-3.5127,-3.5126,-3.5202,-3.5373,-3.5299,-3.5469,-3.5661,-3.5625,-3.5532,-3.559,-3.6179,-3.707,-5.1835,-5.1405,-5.1362,-5.1349,-5.1323,-5.1239,-5.0956,-5.0542,-5.0153,-4.9476,-4.8623,-4.8174,-4.7969,-4.793,-4.7567,-4.7357,-4.7301,-4.7295,-4.7248,-4.7207,-4.7167,-4.6889,-4.6417,-4.6364,-4.608,-4.5678,-4.5622,-4.5586,-4.5586,-4.5586,-4.5586,-4.5586,-4.5586,-4.5586,-4.5566,-4.5201,-4.4587,-4.3745,-4.2473,-4.0992,-3.9362,-3.9315,-3.87,-3.744,-3.7411,-3.7219,-3.6892,-3.6873,-3.6853,-3.6873,-3.6873,-3.7021,-3.7376,-3.7411,-3.7589,-3.7969,-3.8007,-3.7993,-3.7997,-3.837,-3.8761,-3.9155,-3.9125,-3.9051,-3.9106,-3.8211,-3.7624,-3.7537,-3.7105,-3.6802,-3.6682,-3.5943,-3.5411,-3.5348,-3.4932,-3.4626,-3.4583,-3.4561,-3.4498,-3.4495,-3.445,-3.4363,-3.434,-3.4269,-3.4221,-3.4197,-3.4197,-3.4197,-3.4197,-3.4335,-3.4473,-3.4561,-3.4607,-3.4649,-3.467,-3.473,-3.4751,-3.4771,-3.483,-3.485,-3.487,-3.4927,-3.4964,-3.4983,-3.4982,-3.5001,-3.4982,-3.5001,-3.4964,-3.4945,-3.4927,-3.4889,-3.4944,-3.539,-3.65,-5.2177,-5.1375,-5.1316,-5.1273,-5.1267,-5.1159,-5.1088,-5.1056,-5.1048,-5.0311,-4.9168,-4.8865,-4.8774,-4.8759,-4.8548,-4.8416,-4.8377,-4.8381,-4.8346,-4.8279,-4.8265,-4.7868,-4.7216,-4.7005,-4.6544,-4.5913,-4.5701,-4.5586,-4.5586,-4.5586,-4.5586,-4.5586,-4.5586,-4.5586,-4.5586,-4.5586,-4.5182,-4.4282,-4.3011,-4.153,-3.9935,-3.9677,-3.9161,-3.8385,-3.8281,-3.82,-3.8007,-3.8007,-3.8007,-3.7988,-3.8003,-3.8094,-3.8296,-3.8296,-3.8366,-3.8524,-3.8562,-3.8562,-3.8604,-3.9071,-3.967,-4.023,-4.0215,-4.0157,-4.0059,-3.8916,-3.8073,-3.7966,-3.7788,-3.7546,-3.7322,-3.6614,-3.6104,-3.6002,-3.5446,-3.5123,-3.5007,-3.4792,-3.4614,-3.4572,-3.4399,-3.4197,-3.4173,-3.4124,-3.4074,-3.4023,-3.3998,-3.3998,-3.4023,-3.4099,-3.4221,-3.434,-3.445,-3.4495,-3.4539,-3.458,-3.4583,-3.4645,-3.4645,-3.4668,-3.4711,-3.4752,-3.4792,-3.485,-3.487,-3.487,-3.487,-3.485,-3.4812,-3.4772,-3.4752,-3.4711,-3.4685,-3.5195,-3.6147,-5.2116,-5.1367,-5.13,-5.123,-5.1117,-5.112,-5.1023,-5.0921,-5.0906,-5.0816,-5.0474,-4.9896,-4.9586,-4.9484,-4.874,-4.8408,-4.8376,-4.834,-4.8326,-4.8291,-4.8197,-4.8141,-4.7932,-4.7259,-4.6855,-4.6663,-4.597,-4.5586,-4.5586,-4.5586,-4.5586,-4.5586,-4.5586,-4.5586,-4.5586,-4.5586,-4.5182,-4.4339,-4.4145,-4.3256,-4.1655,-4.0793,-4.0008,-3.9227,-3.9169,-3.88,-3.8142,-3.8007,-3.8007,-3.8007,-3.8046,-3.8387,-3.9076,-3.9172,-3.9503,-4.0162,-4.0239,-4.0284,-4.026,-4.0281,-4.0247,-4.0288,-4.0158,-4.0078,-4.002,-3.9743,-3.9615,-3.9425,-3.8729,-3.823,-3.8131,-3.736,-3.682,-3.6777,-3.6553,-3.6577,-3.6322,-3.5743,-3.5221,-3.5206,-3.4604,-3.4042,-3.4116,-3.4053,-3.3998,-3.3972,-3.3972,-3.3972,-3.3972,-3.3998,-3.4005,-3.4099,-3.4264,-3.4404,-3.4404,-3.4427,-3.4409,-3.4409,-3.4454,-3.4498,-3.4542,-3.4626,-3.4708,-3.4689,-3.4749,-3.4749,-3.4728,-3.4708,-3.4687,-3.4626,-3.4564,-3.4498,-3.4544,-3.5011,-3.5925,-5.2528,-5.1258,-5.1189,-5.1088,-5.0976,-5.0981,-5.0921,-5.0825,-5.0825,-5.0808,-5.0754,-5.0441,-5.032,-5.0333,-4.9937,-4.977,-4.9719,-4.9717,-4.9699,-4.9682,-4.9663,-4.9394,-4.8817,-4.8009,-4.7394,-4.6855,-4.6028,-4.5586,-4.5586,-4.5586,-4.5586,-4.5586,-4.5586,-4.5586,-4.5586,-4.5586,-4.5413,-4.5066,-4.4547,-4.397,-4.3201,-4.1947,-4.087,-4.0123,-4.0011,-3.9854,-3.9527,-3.9488,-3.9488,-3.9469,-3.9469,-3.9657,-3.9985,-4.0004,-4.0158,-4.0469,-4.0489,-4.0476,-4.0435,-4.0398,-4.0344,-4.0253,-4.0157,-4.0058,-3.9963,-3.9769,-3.9679,-3.9596,-3.9258,-3.8964,-3.8738,-3.7981,-3.7463,-3.7328,-3.6922,-3.6636,-3.6572,-3.6268,-3.6019,-3.5974,-3.5237,-3.4713,-3.4602,-3.4207,-3.3923,-3.3868,-3.3868,-3.3913,-3.3887,-3.3939,-3.3947,-3.3947,-3.4074,-3.4148,-3.4173,-3.4173,-3.4197,-3.4269,-3.4293,-3.434,-3.4427,-3.4473,-3.4517,-3.4536,-3.4539,-3.4561,-3.4517,-3.4536,-3.4536,-3.4473,-3.4381,-3.4293,-3.4264,-3.4835,-3.5669,-5.2582,-5.1267,-5.1089,-5.099,-5.0909,-5.0893,-5.0825,-5.0756,-5.0775,-5.0775,-5.0757,-5.074,-5.072,-5.0776,-5.0757,-5.0759,-5.0702,-5.0683,-5.0683,-5.0683,-5.0683,-5.0356,-4.9683,-4.8586,-4.7798,-4.7144,-4.6124,-4.5586,-4.5586,-4.5586,-4.5586,-4.5586,-4.5586,-4.5586,-4.5586,-4.5586,-4.5586,-4.5528,-4.4951,-4.453,-4.4184,-4.3104,-4.1966,-4.0947,-4.062,-4.0489,-4.0489,-4.0489,-4.0489,-4.0489,-4.0489,-4.0489,-4.0489,-4.0489,-4.0489,-4.0489,-4.0489,-4.0476,-4.0415,-4.0398,-4.0326,-4.0215,-4.0137,-4.002,-3.9884,-3.9705,-3.9558,-3.9485,-3.9444,-3.9261,-3.9082,-3.8553,-3.8183,-3.8015,-3.746,-3.7146,-3.7183,-3.6971,-3.6768,-3.6684,-3.603,-3.5368,-3.5073,-3.4385,-3.3807,-3.3807,-3.3807,-3.3807,-3.3807,-3.386,-3.3887,-3.3868,-3.3921,-3.3954,-3.3998,-3.4023,-3.4049,-3.408,-3.413,-3.4173,-3.4288,-3.4293,-3.4316,-3.4335,-3.4335,-3.4316,-3.4316,-3.4335,-3.4335,-3.4288,-3.4221,-3.4148,-3.4099,-3.4892,-3.5707,-5.1917,-5.1153,-5.0971,-5.0909,-5.0899,-5.0827,-5.0756,-5.0701,-5.072,-5.0702,-5.0702,-5.0702,-5.0702,-5.0721,-5.0702,-5.0702,-5.0683,-5.0702,-5.0702,-5.0683,-5.0683,-5.0664,-5.051,-4.8913,-4.8067,-4.7798,-4.6336,-4.5586,-4.5586,-4.5586,-4.5586,-4.5586,-4.5586,-4.5586,-4.5586,-4.5586,-4.5586,-4.5566,-4.549,-4.5143,-4.4416,-4.4205,-4.3335,-4.1925,-4.0947,-4.0566,-4.0527,-4.0508,-4.0489,-4.0489,-4.0489,-4.0489,-4.0489,-4.0489,-4.0489,-4.0489,-4.0489,-4.0476,-4.0413,-4.0398,-4.0345,-4.0215,-4.0118,-4.002,-3.9827,-3.9645,-3.9527,-3.9425,-3.9249,-3.9129,-3.9101,-3.8906,-3.8802,-3.8762,-3.8704,-3.8601,-3.8589,-3.786,-3.7507,-3.736,-3.6772,-3.5964,-3.5128,-3.4302,-3.3917,-3.3825,-3.3807,-3.3807,-3.3807,-3.3807,-3.3834,-3.3834,-3.3834,-3.3842,-3.3972,-3.3972,-3.3972,-3.4005,-3.4005,-3.4023,-3.4049,-3.4092,-3.4117,-3.4142,-3.4191,-3.4173,-3.4148,-3.4099,-3.4099,-3.4074,-3.4049,-3.3998,-3.3998,-3.5348,-3.6122,-5.1858,-5.0967,-5.0861,-5.0791,-5.0775,-5.0738,-5.072,-5.0702,-5.0702,-5.0683,-5.0683,-5.0683,-5.0683,-5.0683,-5.0683,-5.0683,-5.0683,-5.0683,-5.0683,-5.0683,-5.0683,-5.0683,-5.051,-4.8933,-4.8105,-4.7855,-4.6413,-4.5586,-4.5586,-4.5586,-4.5586,-4.5586,-4.5586,-4.5586,-4.5586,-4.5586,-4.5586,-4.5586,-4.5586,-4.5432,-4.5086,-4.4587,-4.3991,-4.3393,-4.2063,-4.1312,-4.1335,-4.0816,-4.0489,-4.0489,-4.0489,-4.0489,-4.0489,-4.0489,-4.0489,-4.0489,-4.0489,-4.0476,-4.0413,-4.0417,-4.0328,-4.0138,-4.0077,-3.9939,-3.974,-3.9571,-3.9469,-3.9388,-3.9175,-3.9036,-3.8979,-3.891,-3.8833,-3.878,-3.875,-3.875,-3.8683,-3.8462,-3.8267,-3.8157,-3.7551,-3.656,-3.544,-3.4734,-3.4376,-3.3917,-3.3825,-3.3825,-3.3807,-3.3807,-3.3807,-3.3807,-3.3807,-3.3834,-3.3842,-3.3868,-3.3868,-3.3921,-3.3928,-3.3972,-3.4016,-3.3998,-3.4023,-3.4023,-3.4074,-3.4049,-3.4023,-3.4023,-3.3998,-3.3947,-3.3921,-3.3921,-3.3868,-3.5285,-3.6011,-5.1498,-5.0871,-5.0794,-5.0739,-5.0702,-5.0702,-5.0702,-5.0683,-5.0683,-5.0683,-5.0683,-5.0683,-5.0683,-5.0683,-5.0683,-5.0683,-5.0683,-5.0683,-5.0683,-5.0683,-5.0683,-5.0683,-5.0452,-4.9202,-4.8355,-4.7875,-4.6394,-4.5586,-4.5586,-4.5586,-4.5586,-4.5586,-4.5586,-4.5586,-4.5586,-4.5586,-4.5586,-4.5586,-4.5586,-4.5586,-4.5528,-4.503,-4.4722,-4.4511,-4.3335,-4.2332,-4.1835,-4.1239,-4.0758,-4.0546,-4.0489,-4.0489,-4.0489,-4.0489,-4.0489,-4.0489,-4.0489,-4.0476,-4.0396,-4.04,-4.031,-4.0118,-4.0017,-3.9897,-3.9712,-3.9513,-3.9391,-3.9287,-3.9118,-3.8921,-3.8862,-3.8792,-3.875,-3.8707,-3.8707,-3.8707,-3.8707,-3.8707,-3.8689,-3.856,-3.7918,-3.6964,-3.6046,-3.5642,-3.5073,-3.4302,-3.4192,-3.4137,-3.388,-3.3807,-3.3807,-3.3807,-3.3807,-3.3807,-3.3834,-3.3834,-3.3834,-3.3842,-3.3868,-3.3913,-3.3939,-3.3947,-3.3947,-3.3947,-3.3947,-3.3921,-3.3921,-3.3947,-3.3921,-3.3868,-3.3868,-3.3842,-3.4366,-3.5211,-3.5928,-5.085,-5.0702,-5.0702,-5.0721,-5.0702,-5.0702,-5.0683,-5.0683,-5.0683,-5.0683,-5.0683,-5.0683,-5.0683,-5.0683,-5.0683,-5.0683,-5.0683,-5.0683,-5.0683,-5.0683,-5.0683,-5.0683,-5.0625,-4.9721,-4.8817,-4.8048,-4.6432,-4.5663,-4.572,-4.5643,-4.5586,-4.5586,-4.5586,-4.5586,-4.5586,-4.5586,-4.5586,-4.5586,-4.5586,-4.5586,-4.5586,-4.5509,-4.547,-4.5432,-4.4664,-4.3492,-4.2027,-4.1816,-4.1316,-4.0604,-4.0489,-4.0489,-4.0489,-4.0489,-4.0489,-4.0489,-4.0489,-4.046,-4.0415,-4.04,-4.0329,-4.0137,-4.0036,-3.9911,-3.9693,-3.9521,-3.9339,-3.9192,-3.9032,-3.8862,-3.8822,-3.875,-3.8689,-3.8707,-3.8707,-3.8707,-3.8707,-3.8707,-3.8707,-3.8597,-3.8046,-3.7533,-3.7294,-3.6725,-3.5973,-3.5293,-3.4899,-3.4642,-3.41,-3.3917,-3.3807,-3.3807,-3.3807,-3.3807,-3.3807,-3.3807,-3.3807,-3.3807,-3.3834,-3.3834,-3.386,-3.386,-3.3887,-3.386,-3.3887,-3.386,-3.3887,-3.3887,-3.386,-3.3834,-3.3834,-3.3944,-3.4578,-3.5293,-3.6028,-5.074,-5.0702,-5.0683,-5.0683,-5.0683,-5.0683,-5.0683,-5.0683,-5.0683,-5.0683,-5.0683,-5.0683,-5.0683,-5.0683,-5.0683,-5.0683,-5.0683,-5.0683,-5.0683,-5.0683,-5.0683,-5.0683,-5.0529,-4.9798,-4.8952,-4.8067,-4.7028,-4.649,-4.6394,-4.5913,-4.5586,-4.5586,-4.5605,-4.5586,-4.5586,-4.5586,-4.5586,-4.5586,-4.5586,-4.5586,-4.5586,-4.5586,-4.5586,-4.5566,-4.5336,-4.4643,-4.3566,-4.2431,-4.1412,-4.0566,-4.0489,-4.0489,-4.0489,-4.0489,-4.0489,-4.0489,-4.0489,-4.0476,-4.0415,-4.0403,-4.033,-4.0117,-4.0015,-3.9823,-3.9656,-3.9483,-3.9312,-3.9155,-3.8995,-3.8862,-3.8773,-3.8732,-3.8689,-3.8707,-3.8707,-3.8707,-3.8707,-3.8707,-3.8707,-3.8689,-3.8469,-3.8102,-3.7624,-3.7165,-3.6798,-3.6009,-3.5477,-3.4963,-3.4651,-3.4156,-3.3807,-3.3807,-3.3807,-3.3807,-3.3807,-3.3807,-3.3807,-3.3807,-3.3807,-3.3807,-3.3807,-3.3807,-3.3807,-3.3807,-3.3807,-3.3807,-3.3807,-3.3807,-3.3807,-3.3807,-3.3807,-3.4137,-3.4633,-3.533,-3.6138,-5.0683,-5.0683,-5.0683,-5.0683,-5.0683,-5.0683,-5.0683,-5.0683,-5.0683,-5.0683,-5.0683,-5.0683,-5.0683,-5.0683,-5.0683,-5.0683,-5.0683,-5.0683,-5.0683,-5.0683,-5.0683,-5.0683,-5.0567,-4.9817,-4.9163,-4.8529,-4.774,-4.7336,-4.7298,-4.6527,-4.6084,-4.6067,-4.5759,-4.5586,-4.5586,-4.5586,-4.5586,-4.5586,-4.5586,-4.5586,-4.5586,-4.5586,-4.5586,-4.5586,-4.5586,-4.5143,-4.4278,-4.297,-4.1893,-4.1085,-4.07,-4.0508,-4.0489,-4.0489,-4.0489,-4.0489,-4.0508,-4.0476,-4.0415,-4.0404,-4.0311,-4.0117,-3.9994,-3.9841,-3.9626,-3.9495,-3.933,-3.91,-3.8976,-3.8881,-3.8822,-3.875,-3.8707,-3.8707,-3.8707,-3.8707,-3.8707,-3.8707,-3.8707,-3.8689,-3.867,-3.8414,-3.8102,-3.79,-3.7606,-3.6853,-3.6285,-3.5514,-3.5192,-3.4568,-3.4266,-3.3972,-3.3807,-3.3807,-3.3807,-3.3807,-3.3807,-3.3807,-3.3807,-3.3807,-3.3807,-3.3807,-3.3807,-3.3807,-3.3807,-3.3807,-3.3807,-3.3807,-3.3807,-3.3807,-3.3844,-3.4229,-3.4724,-3.5587,-3.6413,-5.0683,-5.0683,-5.0683,-5.0683,-5.0683,-5.0683,-5.0683,-5.0683,-5.0683,-5.0683,-5.0683,-5.0683,-5.0683,-5.0683,-5.0683,-5.0683,-5.0683,-5.0683,-5.0683,-5.0683,-5.0683,-5.0683,-5.0567,-4.9952,-4.9586,-4.9356,-4.8605,-4.8201,-4.8144,-4.7354,-4.6931,-4.6721,-4.6105,-4.5624,-4.5624,-4.5586,-4.5586,-4.5586,-4.5586,-4.5586,-4.5586,-4.5586,-4.5586,-4.5586,-4.5566,-4.524,-4.4528,-4.3508,-4.2566,-4.1739,-4.0835,-4.0489,-4.0489,-4.0489,-4.0489,-4.0489,-4.0489,-4.046,-4.0415,-4.0404,-4.0311,-4.0117,-3.9975,-3.9804,-3.9607,-3.9476,-3.933,-3.9128,-3.8976,-3.8881,-3.8773,-3.875,-3.8707,-3.8707,-3.8707,-3.8707,-3.8707,-3.8707,-3.8707,-3.8707,-3.8707,-3.8689,-3.8597,-3.8579,-3.823,-3.7753,-3.7386,-3.6597,-3.5789,-3.5202,-3.4651,-3.4321,-3.4045,-3.3807,-3.3807,-3.3807,-3.3807,-3.3807,-3.3807,-3.3807,-3.3807,-3.3807,-3.3807,-3.3807,-3.3807,-3.3807,-3.3807,-3.3807,-3.3807,-3.3807,-3.399,-3.4284,-3.5018,-3.5991,-3.6835,-5.0683,-5.0683,-5.0683,-5.0683,-5.0683,-5.0683,-5.0683,-5.0683,-5.0683,-5.0683,-5.0683,-5.0683,-5.0683,-5.0683,-5.0683,-5.0683,-5.0683,-5.0683,-5.0683,-5.0683,-5.0683,-5.0683,-5.0683,-5.0491,-5.0317,-5.0183,-4.9471,-4.9067,-4.899,-4.8183,-4.751,-4.6913,-4.6663,-4.6182,-4.572,-4.5586,-4.5586,-4.5586,-4.5586,-4.5586,-4.5586,-4.5586,-4.5586,-4.5586,-4.5586,-4.547,-4.5105,-4.3835,-4.2374,-4.0969,-4.0642,-4.0489,-4.0489,-4.0489,-4.0489,-4.0489,-4.0489,-4.0476,-4.0415,-4.0404,-4.0311,-4.0117,-3.9975,-3.9804,-3.9618,-3.9483,-3.932,-3.911,-3.8979,-3.8881,-3.8822,-3.875,-3.8707,-3.8707,-3.8707,-3.8707,-3.8707,-3.8707,-3.8707,-3.8707,-3.8707,-3.8707,-3.8707,-3.8689,-3.8597,-3.8303,-3.7881,-3.7397,-3.6578,-3.5752,-3.5183,-3.4688,-3.4357,-3.4009,-3.3807,-3.3807,-3.3807,-3.3807,-3.3807,-3.3807,-3.3807,-3.3807,-3.3807,-3.3807,-3.3807,-3.3807,-3.3807,-3.3807,-3.3807,-3.3899,-3.4321,-3.478,-3.5734,-3.6688,-3.7422,-5.0683,-5.0683,-5.0683,-5.0683,-5.0683,-5.0683,-5.0683,-5.0683,-5.0683,-5.0683,-5.0683,-5.0683,-5.0683,-5.0683,-5.0683,-5.0683,-5.0683,-5.0683,-5.0683,-5.0683,-5.0683,-5.0683,-5.0683,-5.0683,-5.0683,-5.0664,-5.0183,-4.9971,-4.9798,-4.9087,-4.8222,-4.7491,-4.7067,-4.6451,-4.5643,-4.5586,-4.5586,-4.5586,-4.5586,-4.5586,-4.5586,-4.5586,-4.5586,-4.5586,-4.5566,-4.547,-4.4932,-4.3778,-4.245,-4.1296,-4.0719,-4.0489,-4.0489,-4.0489,-4.0489,-4.0489,-4.0489,-4.0476,-4.0415,-4.0404,-4.0291,-4.0117,-3.9973,-3.9804,-3.9642,-3.9464,-3.9328,-3.9156,-3.9027,-3.8913,-3.8833,-3.875,-3.8707,-3.8707,-3.8707,-3.8707,-3.8707,-3.8707,-3.8707,-3.8707,-3.8707,-3.8707,-3.8707,-3.8707,-3.8707,-3.8615,-3.8322,-3.7881,-3.7349,-3.6505,-3.5716,-3.5238,-3.478,-3.4412,-3.4027,-3.3917,-3.3844,-3.3844,-3.3807,-3.3807,-3.3807,-3.3807,-3.3807,-3.3807,-3.3807,-3.3807,-3.3807,-3.3899,-3.4082,-3.4302,-3.4734,-3.5477,-3.6431,-3.7129,-3.79,-5.0818,-5.0837,-5.0837,-5.0818,-5.0837,-5.0741,-5.0683,-5.0683,-5.0683,-5.0683,-5.0683,-5.0683,-5.0683,-5.0683,-5.0683,-5.0683,-5.0683,-5.0683,-5.0683,-5.0683,-5.0683,-5.0683,-5.0683,-5.0683,-5.0683,-5.0683,-5.0683,-5.0625,-5.0394,-4.9817,-4.9106,-4.8279,-4.749,-4.6644,-4.599,-4.5701,-4.5586,-4.5586,-4.5586,-4.5586,-4.5586,-4.5586,-4.5586,-4.5586,-4.5586,-4.5278,-4.4624,-4.3739,-4.2893,-4.2143,-4.1085,-4.0546,-4.0489,-4.0489,-4.0489,-4.0489,-4.0489,-4.0476,-4.0415,-4.0404,-4.0291,-4.0117,-3.9994,-3.9845,-3.9642,-3.9496,-3.9369,-3.9256,-3.9073,-3.898,-3.8892,-3.878,-3.8738,-3.8707,-3.8707,-3.8707,-3.8707,-3.8707,-3.8707,-3.8707,-3.8707,-3.8707,-3.8707,-3.8707,-3.8707,-3.8707,-3.8505,-3.8303,-3.7881,-3.7257,-3.6486,-3.5826,-3.5349,-3.4871,-3.4431,-3.4045,-3.3935,-3.3862,-3.3825,-3.3807,-3.3807,-3.3807,-3.3807,-3.3807,-3.3807,-3.3807,-3.3807,-3.3972,-3.4357,-3.4835,-3.5349,-3.6174,-3.7055,-3.7551,-3.8212,-5.1644,-5.1663,-5.1644,-5.1645,-5.1548,-5.0991,-5.0683,-5.0683,-5.0683,-5.0683,-5.0683,-5.0683,-5.0683,-5.0683,-5.0683,-5.0683,-5.0683,-5.0683,-5.0683,-5.0683,-5.0683,-5.0683,-5.0683,-5.0683,-5.0683,-5.0683,-5.0683,-5.0683,-5.0587,-5.0414,-4.9971,-4.9067,-4.824,-4.7432,-4.6644,-4.597,-4.5586,-4.5586,-4.5586,-4.5586,-4.5586,-4.5586,-4.5586,-4.5586,-4.5586,-4.5509,-4.5201,-4.4509,-4.397,-4.3297,-4.1816,-4.07,-4.0604,-4.0527,-4.0489,-4.0489,-4.0489,-4.0476,-4.0396,-4.0404,-4.033,-4.0117,-4.0036,-3.9911,-3.9689,-3.9513,-3.9408,-3.9317,-3.9146,-3.898,-3.8862,-3.8792,-3.875,-3.8738,-3.8689,-3.8707,-3.8707,-3.8707,-3.8707,-3.8707,-3.8707,-3.8707,-3.8707,-3.8707,-3.8707,-3.8707,-3.867,-3.8615,-3.8285,-3.7881,-3.7257,-3.6505,-3.6156,-3.5697,-3.5055,-3.4596,-3.4302,-3.4064,-3.3935,-3.3807,-3.3807,-3.3954,-3.4009,-3.3935,-3.3807,-3.3862,-3.4064,-3.4541,-3.5018,-3.5477,-3.6009,-3.6798,-3.7533,-3.801,-3.8303,-5.1355,-5.1315,-5.1336,-5.1337,-5.1279,-5.0875,-5.0683,-5.0683,-5.0683,-5.0683,-5.0683,-5.0683,-5.0683,-5.0683,-5.0683,-5.0683,-5.0683,-5.0683,-5.0683,-5.0683,-5.0683,-5.0683,-5.0683,-5.0683,-5.0683,-5.0683,-5.0683,-5.0683,-5.0683,-5.0625,-5.0221,-4.9452,-4.8913,-4.8009,-4.7067,-4.6413,-4.6009,-4.5643,-4.5586,-4.5586,-4.5586,-4.5586,-4.5586,-4.5586,-4.5586,-4.5586,-4.549,-4.4739,-4.4374,-4.3874,-4.2662,-4.1505,-4.1062,-4.0716,-4.0508,-4.0489,-4.0489,-4.0473,-4.0447,-4.0403,-4.0311,-4.0157,-4.0057,-3.9911,-3.9735,-3.9537,-3.9433,-3.938,-3.9221,-3.9017,-3.8892,-3.8822,-3.8792,-3.875,-3.8719,-3.8707,-3.8707,-3.8707,-3.8707,-3.8707,-3.8707,-3.8707,-3.8707,-3.8707,-3.8707,-3.8707,-3.8707,-3.8652,-3.867,-3.8267,-3.7881,-3.7349,-3.7037,-3.6541,-3.5807,-3.5257,-3.478,-3.4431,-3.41,-3.3935,-3.3807,-3.4027,-3.4266,-3.4192,-3.4119,-3.4394,-3.4623,-3.5137,-3.5789,-3.6413,-3.7,-3.7551,-3.7973,-3.834,-3.8524,-5.0894,-5.0892,-5.0875,-5.0875,-5.0856,-5.076,-5.0683,-5.0683,-5.0683,-5.0683,-5.0683,-5.0683,-5.0683,-5.0683,-5.0683,-5.0683,-5.0683,-5.0683,-5.0683,-5.0683,-5.0683,-5.0683,-5.0683,-5.0683,-5.0683,-5.0683,-5.0683,-5.0683,-5.0683,-5.0644,-5.0375,-4.9683,-4.9413,-4.8567,-4.7394,-4.6874,-4.6413,-4.5701,-4.5586,-4.5586,-4.5586,-4.5586,-4.5586,-4.5586,-4.5586,-4.5586,-4.547,-4.497,-4.4547,-4.4451,-4.372,-4.2967,-4.2178,-4.1251,-4.0696,-4.0716,-4.0639,-4.0473,-4.0444,-4.0419,-4.0348,-4.0196,-4.0098,-3.9911,-3.9735,-3.9599,-3.9496,-3.9406,-3.9266,-3.9138,-3.9007,-3.8892,-3.8822,-3.8792,-3.8732,-3.8689,-3.8707,-3.8707,-3.8707,-3.8707,-3.8707,-3.8707,-3.8707,-3.8707,-3.8707,-3.8707,-3.8707,-3.8707,-3.8707,-3.8634,-3.8248,-3.8102,-3.7808,-3.7331,-3.6615,-3.5899,-3.5422,-3.5165,-3.4669,-3.4504,-3.4339,-3.4743,-3.5037,-3.4596,-3.4578,-3.4917,-3.5422,-3.5973,-3.6633,-3.7331,-3.7753,-3.8083,-3.8377,-3.8652,-3.8781,-5.1682,-5.1702,-5.1702,-5.1702,-5.1568,-5.0991,-5.0683,-5.0683,-5.0683,-5.0683,-5.0683,-5.0683,-5.0683,-5.0683,-5.0683,-5.0683,-5.0683,-5.0683,-5.0683,-5.0683,-5.0683,-5.0683,-5.0683,-5.0683,-5.0683,-5.0683,-5.0683,-5.0683,-5.0683,-5.0664,-5.0548,-5.0317,-4.9798,-4.8856,-4.8009,-4.7278,-4.6605,-4.5855,-4.5643,-4.5586,-4.5586,-4.5586,-4.5586,-4.5586,-4.5586,-4.5586,-4.5586,-4.547,-4.5374,-4.5297,-4.4549,-4.4088,-4.3566,-4.2428,-4.1751,-4.1482,-4.1062,-4.0781,-4.0603,-4.0492,-4.0329,-4.0176,-4.0077,-3.9954,-3.9758,-3.9628,-3.9551,-3.9458,-3.9301,-3.9175,-3.9092,-3.895,-3.8862,-3.8822,-3.875,-3.8707,-3.8707,-3.8707,-3.8707,-3.8707,-3.8707,-3.8707,-3.8707,-3.8707,-3.8707,-3.8707,-3.8707,-3.8707,-3.8707,-3.8707,-3.8579,-3.8542,-3.8542,-3.801,-3.7422,-3.6688,-3.6119,-3.6083,-3.5789,-3.5642,-3.5624,-3.5862,-3.5862,-3.5532,-3.5532,-3.5917,-3.6395,-3.6817,-3.7221,-3.7734,-3.812,-3.8487,-3.8652,-3.8817,-3.9203,-5.1279,-5.1279,-5.1279,-5.1279,-5.1221,-5.0875,-5.0683,-5.0683,-5.0683,-5.0683,-5.0683,-5.0683,-5.0683,-5.0683,-5.0683,-5.0683,-5.0683,-5.0683,-5.0683,-5.0683,-5.0683,-5.0683,-5.0683,-5.0683,-5.0683,-5.0683,-5.0683,-5.0683,-5.0683,-5.0683,-5.0683,-5.0606,-5.0221,-4.9625,-4.8779,-4.7952,-4.7105,-4.6394,-4.5855,-4.5605,-4.5586,-4.5586,-4.5586,-4.5586,-4.5586,-4.5586,-4.5586,-4.5586,-4.5586,-4.5509,-4.5201,-4.501,-4.4605,-4.3893,-4.2906,-4.2518,-4.2036,-4.1546,-4.1198,-4.105,-4.0845,-4.0233,-4.0175,-3.9975,-3.9804,-3.9712,-3.9674,-3.9527,-3.9309,-3.9183,-3.9175,-3.911,-3.8921,-3.8851,-3.8829,-3.8787,-3.8726,-3.8726,-3.8707,-3.8707,-3.8707,-3.8707,-3.8707,-3.8707,-3.8707,-3.8707,-3.8707,-3.8707,-3.8707,-3.8707,-3.8707,-3.8689,-3.8689,-3.8469,-3.7973,-3.7422,-3.6927,-3.6872,-3.6762,-3.6633,-3.6597,-3.6725,-3.6743,-3.6578,-3.6743,-3.6909,-3.7165,-3.7514,-3.7826,-3.8083,-3.8377,-3.8634,-3.8781,-3.9001,-3.9441,-5.0683,-5.0683,-5.0683,-5.0683,-5.0683,-5.0683,-5.0683,-5.0683,-5.0683,-5.0683,-5.0683,-5.0683,-5.0683,-5.0683,-5.0683,-5.0683,-5.0683,-5.0683,-5.0683,-5.0683,-5.0683,-5.0683,-5.0683,-5.0683,-5.0683,-5.0683,-5.0683,-5.0683,-5.0683,-5.0683,-5.0683,-5.0664,-5.0683,-5.026,-4.9336,-4.8663,-4.7875,-4.6951,-4.6278,-4.5853,-4.5642,-4.5586,-4.5586,-4.5586,-4.5586,-4.5586,-4.5586,-4.5586,-4.5586,-4.5586,-4.5547,-4.5547,-4.547,-4.4934,-4.4259,-4.3692,-4.3343,-4.2665,-4.2215,-4.1933,-4.1628,-4.1034,-4.0727,-4.0526,-4.0409,-4.0462,-4.0258,-4.0009,-3.9904,-3.989,-3.9974,-3.9667,-3.9571,-3.9446,-3.9312,-3.9001,-3.8958,-3.8891,-3.8707,-3.8707,-3.8707,-3.8726,-3.8762,-3.8707,-3.8707,-3.8707,-3.8707,-3.8707,-3.8707,-3.8707,-3.8707,-3.8707,-3.8707,-3.8707,-3.8432,-3.812,-3.779,-3.7734,-3.7551,-3.7386,-3.7367,-3.7404,-3.7422,-3.7477,-3.7624,-3.7771,-3.801,-3.812,-3.8285,-3.845,-3.8634,-3.8872,-3.9166,-3.9515,-3.9937,-5.0683,-5.0683,-5.0683,-5.0683,-5.0683,-5.0683,-5.0683,-5.0683,-5.0683,-5.0683,-5.0683,-5.0683,-5.0683,-5.0683,-5.0683,-5.0683,-5.0683,-5.0683,-5.0683,-5.0683,-5.0683,-5.0683,-5.0683,-5.0683,-5.0683,-5.0683,-5.0683,-5.0683,-5.0683,-5.0683,-5.0683,-5.0683,-5.0625,-5.0298,-4.9625,-4.9221,-4.8432,-4.7201,-4.6758,-4.6313,-4.5738,-4.5586,-4.5586,-4.5586,-4.5586,-4.5586,-4.5586,-4.5586,-4.5586,-4.5586,-4.5586,-4.5586,-4.5566,-4.5528,-4.5432,-4.4893,-4.407,-4.3001,-4.2833,-4.2756,-4.2544,-4.2119,-4.2077,-4.212,-4.1728,-4.1544,-4.1461,-4.1717,-4.1463,-4.125,-4.1148,-4.1163,-4.1119,-4.0683,-4.0197,-3.9902,-3.973,-3.9551,-3.9313,-3.9074,-3.9203,-3.8964,-3.8854,-3.8762,-3.8707,-3.8707,-3.8707,-3.8707,-3.8707,-3.8707,-3.8707,-3.8707,-3.8707,-3.8707,-3.8689,-3.8414,-3.8358,-3.8358,-3.8212,-3.8028,-3.8028,-3.8028,-3.8267,-3.8358,-3.8432,-3.8487,-3.8652,-3.8726,-3.8744,-3.8836,-3.9001,-3.9331,-3.9698,-4.0084,-4.0598,-5.0683,-5.0683,-5.0683,-5.0683,-5.0683,-5.0683,-5.0683,-5.0683,-5.0683,-5.0683,-5.0683,-5.0683,-5.0683,-5.0683,-5.0683,-5.0683,-5.0683,-5.0683,-5.0683,-5.0683,-5.0683,-5.0683,-5.0683,-5.0683,-5.0683,-5.0683,-5.0683,-5.0683,-5.0683,-5.0683,-5.0683,-5.0683,-5.0683,-5.0567,-4.999,-4.9625,-4.874,-4.7644,-4.6719,-4.6007,-4.5699,-4.5586,-4.5586,-4.5586,-4.5586,-4.5586,-4.5586,-4.5586,-4.5586,-4.5586,-4.5586,-4.5586,-4.5586,-4.5586,-4.5566,-4.547,-4.4934,-4.4266,-4.3733,-4.3574,-4.3243,-4.2743,-4.2585,-4.2363,-4.2227,-4.2178,-4.2085,-4.1986,-4.1847,-4.1857,-4.1838,-4.1609,-4.1471,-4.12,-4.1009,-4.0804,-4.0575,-4.0377,-4.0194,-3.9918,-3.9662,-3.9496,-3.9294,-3.9111,-3.8964,-3.8707,-3.8707,-3.8707,-3.8707,-3.8707,-3.8707,-3.8707,-3.8707,-3.8707,-3.8707,-3.8597,-3.856,-3.856,-3.856,-3.8432,-3.8542,-3.8634,-3.8744,-3.8744,-3.8634,-3.8817,-3.9184,-3.9129,-3.8964,-3.9148,-3.9386,-3.9882,-4.0414,-4.1167,-4.1735,-5.0048,-5.0087,-5.051,-5.0683,-5.0683,-5.0683,-5.0683,-5.0683,-5.0683,-5.0683,-5.0683,-5.0683,-5.0683,-5.0683,-5.0683,-5.0683,-5.0683,-5.0683,-5.0683,-5.0683,-5.0683,-5.0683,-5.0683,-5.0683,-5.0683,-5.0683,-5.0683,-5.0683,-5.0683,-5.0683,-5.0683,-5.0683,-5.0683,-5.0644,-5.051,-5.0067,-4.926,-4.799,-4.674,-4.6009,-4.5663,-4.5586,-4.5586,-4.5586,-4.5586,-4.5586,-4.5586,-4.5586,-4.5586,-4.5586,-4.5586,-4.5586,-4.5586,-4.5566,-4.5547,-4.5491,-4.5225,-4.4998,-4.4591,-4.4312,-4.3881,-4.3437,-4.3065,-4.3169,-4.2957,-4.2723,-4.2693,-4.281,-4.265,-4.2557,-4.2369,-4.2314,-4.2286,-4.2105,-4.1765,-4.1576,-4.135,-4.1111,-4.0855,-4.0579,-4.0359,-4.0286,-4.0029,-3.9662,-3.9294,-3.8836,-3.8707,-3.8726,-3.8726,-3.8762,-3.8707,-3.8707,-3.8707,-3.8707,-3.8707,-3.8707,-3.8707,-3.8707,-3.8707,-3.8744,-3.8762,-3.8799,-3.8854,-3.8836,-3.8964,-3.946,-4.001,-3.957,-3.9221,-3.9772,-4.0286,-4.0689,-4.124,-4.2011,-4.258,-4.8279,-4.8413,-5.001,-5.0625,-5.0644,-5.0683,-5.0664,-5.0683,-5.0683,-5.0683,-5.0683,-5.0683,-5.0683,-5.0683,-5.0683,-5.0683,-5.0683,-5.0683,-5.0683,-5.0683,-5.0683,-5.0683,-5.0683,-5.0683,-5.0683,-5.0683,-5.0683,-5.0683,-5.0683,-5.0683,-5.0683,-5.0683,-5.0683,-5.0683,-5.0587,-5.0279,-4.9548,-4.8355,-4.7163,-4.6317,-4.5874,-4.568,-4.5586,-4.5586,-4.5586,-4.5586,-4.5586,-4.5586,-4.5586,-4.5586,-4.5586,-4.5586,-4.5566,-4.5547,-4.5509,-4.5456,-4.5381,-4.5203,-4.5014,-4.4947,-4.4957,-4.4743,-4.4449,-4.412,-4.3969,-4.4148,-4.4177,-4.393,-4.3629,-4.3729,-4.3762,-4.3838,-4.331,-4.2977,-4.258,-4.2368,-4.2099,-4.168,-4.1442,-4.1185,-4.1056,-4.102,-4.0836,-4.0487,-4.0029,-3.9588,-3.9074,-3.9074,-3.8909,-3.8872,-3.8744,-3.8707,-3.8707,-3.8707,-3.8707,-3.8707,-3.8707,-3.8707,-3.8707,-3.8781,-3.8854,-3.8909,-3.9129,-3.957,-3.9863,-4.0359,-4.0708,-4.0469,-4.0432,-4.0799,-4.1185,-4.1479,-4.1956,-4.2653,-4.3039,-4.8085,-4.8163,-4.8836,-4.9413,-4.9894,-4.9894,-5.0202,-5.0644,-5.0683,-5.0683,-5.0664,-5.0683,-5.0683,-5.0683,-5.0683,-5.0683,-5.0683,-5.0683,-5.0683,-5.0683,-5.0683,-5.0683,-5.0683,-5.0683,-5.0683,-5.0683,-5.0683,-5.0683,-5.0683,-5.0683,-5.0683,-5.0683,-5.0683,-5.0683,-5.0606,-5.0279,-4.9548,-4.8817,-4.7663,-4.6663,-4.6431,-4.5834,-4.5586,-4.5586,-4.5586,-4.5586,-4.5586,-4.5586,-4.5586,-4.5586,-4.5586,-4.5566,-4.5547,-4.5509,-4.5437,-4.5381,-4.5319,-4.5205,-4.5071,-4.506,-4.4953,-4.4775,-4.4587,-4.4522,-4.4482,-4.4393,-4.4352,-4.427,-4.4258,-4.4172,-4.4036,-4.3892,-4.3656,-4.3557,-4.3361,-4.3088,-4.2815,-4.2378,-4.2286,-4.2158,-4.1974,-4.1846,-4.1607,-4.1332,-4.0855,-4.0359,-3.9845,-3.9423,-3.935,-3.9166,-3.9093,-3.8927,-3.8927,-3.8744,-3.8726,-3.8726,-3.8726,-3.8781,-3.8817,-3.9111,-3.9368,-3.9441,-3.9735,-4.0212,-4.0726,-4.113,-4.1387,-4.1442,-4.1589,-4.1772,-4.1974,-4.2194,-4.2727,-4.324,-4.3369,-4.7353,-4.7355,-4.7373,-4.8008,-4.8952,-4.9009,-4.9356,-4.9837,-4.9875,-5.0106,-5.0317,-5.0529,-5.0683,-5.0683,-5.0683,-5.0683,-5.0683,-5.0683,-5.0683,-5.0683,-5.0683,-5.0683,-5.0683,-5.0683,-5.0683,-5.0683,-5.0683,-5.0683,-5.0683,-5.0683,-5.0683,-5.0683,-5.0683,-5.0683,-5.0548,-5.0164,-4.9683,-4.9087,-4.8145,-4.7085,-4.6852,-4.6065,-4.5586,-4.5586,-4.5586,-4.5586,-4.5586,-4.5586,-4.5586,-4.5568,-4.5568,-4.553,-4.5491,-4.5436,-4.5381,-4.5319,-4.5211,-4.509,-4.4947,-4.481,-4.4726,-4.4597,-4.4487,-4.4439,-4.4383,-4.4327,-4.4251,-4.4178,-4.4135,-4.4073,-4.3942,-4.38,-4.3701,-4.3579,-4.3511,-4.3277,-4.3296,-4.3057,-4.3149,-4.3167,-4.2928,-4.2635,-4.2543,-4.2268,-4.1607,-4.1093,-4.0579,-4.0267,-4.0212,-3.9974,-3.9643,-3.9441,-3.9221,-3.9001,-3.8762,-3.9056,-3.9331,-3.9441,-3.957,-3.99,-4.012,-4.0194,-4.0524,-4.1167,-4.1607,-4.1901,-4.2158,-4.2378,-4.2506,-4.2653,-4.2763,-4.28,-4.2983,-4.3387,-4.3424,-4.5738,-4.5624,-4.572,-4.6644,-4.8009,-4.8125,-4.8202,-4.8432,-4.8413,-4.8759,-4.949,-5.0125,-5.0471,-5.0452,-5.026,-5.024,-5.0337,-5.0452,-5.0529,-5.0491,-5.0644,-5.0664,-5.0683,-5.0683,-5.0683,-5.0683,-5.0683,-5.0683,-5.0683,-5.0683,-5.0683,-5.0683,-5.0683,-5.0683,-5.0683,-5.0664,-5.024,-4.9433,-4.8529,-4.7681,-4.7026,-4.6161,-4.568,-4.5586,-4.5568,-4.5568,-4.5586,-4.5568,-4.5531,-4.5513,-4.5495,-4.5475,-4.5396,-4.5362,-4.5319,-4.5256,-4.5038,-4.4946,-4.4881,-4.4672,-4.4505,-4.4458,-4.4344,-4.4277,-4.4248,-4.4195,-4.4129,-4.4031,-4.399,-4.3883,-4.3767,-4.3701,-4.3634,-4.3582,-4.3513,-4.3479,-4.3479,-4.3479,-4.3479,-4.3479,-4.3479,-4.3424,-4.3406,-4.3185,-4.2433,-4.1846,-4.1313,-4.1075,-4.1056,-4.0689,-4.0267,-4.0102,-3.9863,-3.9735,-3.9625,-3.9735,-3.9937,-4.0065,-4.0267,-4.0579,-4.0873,-4.1038,-4.1479,-4.2121,-4.2378,-4.2543,-4.2965,-4.3387,-4.324,-4.3094,-4.324,-4.3332,-4.3461,-4.3479,-4.3479,-4.5586,-4.5586,-4.5586,-4.5913,-4.6509,-4.7067,-4.7605,-4.8048,-4.8125,-4.8279,-4.8529,-4.8894,-4.8971,-4.8971,-4.9067,-4.9086,-4.9125,-4.9721,-4.9817,-4.9894,-5.0337,-5.0644,-5.0683,-5.0644,-5.0683,-5.0683,-5.0683,-5.0683,-5.0683,-5.0683,-5.0683,-5.0683,-5.0683,-5.0683,-5.0683,-5.0683,-5.0471,-5.0048,-4.899,-4.7931,-4.7544,-4.641,-4.5586,-4.5586,-4.5551,-4.5533,-4.5532,-4.5514,-4.5476,-4.5438,-4.5438,-4.5381,-4.5323,-4.5301,-4.5213,-4.5084,-4.4895,-4.4801,-4.4617,-4.4371,-4.4255,-4.4226,-4.4195,-4.4097,-4.403,-4.3961,-4.392,-4.3892,-4.3874,-4.3786,-4.3667,-4.3634,-4.36,-4.3513,-4.3479,-4.3479,-4.3479,-4.3479,-4.3479,-4.3479,-4.3479,-4.3479,-4.3479,-4.3479,-4.2928,-4.2635,-4.2158,-4.1937,-4.1901,-4.1313,-4.0836,-4.0799,-4.0671,-4.0579,-4.0524,-4.0579,-4.0653,-4.0781,-4.0946,-4.1185,-4.146,-4.1827,-4.2249,-4.2782,-4.2983,-4.3185,-4.3351,-4.3479,-4.3479,-4.3461,-4.3479,-4.3479,-4.3479,-4.3479,-4.3479,-4.5586,-4.5586,-4.5586,-4.5586,-4.5682,-4.6201,-4.6778,-4.7259,-4.7528,-4.7682,-4.774,-4.7952,-4.8145,-4.8145,-4.8087,-4.8086,-4.8163,-4.8625,-4.8952,-4.9086,-4.9856,-5.0087,-5.024,-5.0548,-5.0683,-5.0683,-5.0683,-5.0683,-5.0683,-5.0683,-5.0683,-5.0663,-5.0663,-5.0643,-5.0643,-5.0643,-5.0664,-5.0144,-4.9106,-4.8066,-4.7544,-4.666,-4.5549,-4.5513,-4.5495,-4.5477,-4.5457,-4.5419,-4.5361,-4.5361,-4.5341,-4.5282,-4.5244,-4.5163,-4.5068,-4.4924,-4.4775,-4.4599,-4.4337,-4.4172,-4.4073,-4.4061,-4.3961,-4.391,-4.3873,-4.3851,-4.3804,-4.3756,-4.3738,-4.3686,-4.36,-4.36,-4.3548,-4.3479,-4.3479,-4.3479,-4.3479,-4.3479,-4.3479,-4.3479,-4.3479,-4.3479,-4.3479,-4.3479,-4.3314,-4.3167,-4.302,-4.2837,-4.2653,-4.2139,-4.1607,-4.1534,-4.1442,-4.1295,-4.1277,-4.1332,-4.1423,-4.1515,-4.1735,-4.1992,-4.2323,-4.2727,-4.3094,-4.3314,-4.3314,-4.3332,-4.3406,-4.3479,-4.3479,-4.3479,-4.3479,-4.3479,-4.3479,-4.3479,-4.3479,-4.5586,-4.5586,-4.5586,-4.5586,-4.5605,-4.5682,-4.5701,-4.574,-4.6509,-4.6855,-4.6913,-4.7567,-4.7702,-4.7856,-4.7913,-4.7798,-4.7854,-4.7952,-4.8067,-4.8336,-4.8971,-4.926,-4.974,-5.0183,-5.0452,-5.0625,-5.0683,-5.0683,-5.0683,-5.0663,-5.0623,-5.0603,-5.0603,-5.0563,-5.0582,-5.0623,-5.0644,-5.0183,-4.9048,-4.822,-4.7736,-4.645,-4.5648,-4.5458,-4.5419,-4.54,-4.538,-4.536,-4.5319,-4.5277,-4.5194,-4.514,-4.5061,-4.4957,-4.49,-4.4802,-4.4617,-4.4345,-4.4146,-4.4016,-4.3897,-4.3851,-4.3786,-4.3786,-4.3767,-4.3753,-4.3704,-4.3637,-4.3618,-4.3566,-4.3532,-4.3513,-4.3513,-4.3479,-4.3479,-4.3479,-4.3479,-4.3479,-4.3479,-4.3479,-4.3479,-4.3479,-4.3479,-4.3479,-4.3479,-4.3406,-4.3277,-4.3277,-4.313,-4.3167,-4.2671,-4.2341,-4.2213,-4.1974,-4.1992,-4.2139,-4.2231,-4.2341,-4.2708,-4.2983,-4.3314,-4.3332,-4.3369,-4.3406,-4.3461,-4.3479,-4.3479,-4.3479,-4.3479,-4.3479,-4.3479,-4.3479,-4.3479,-4.3479,-4.3479,-4.5586,-4.5586,-4.5586,-4.5586,-4.5586,-4.5586,-4.5586,-4.5643,-4.5913,-4.597,-4.599,-4.6201,-4.649,-4.6317,-4.6317,-4.6373,-4.6586,-4.6894,-4.7163,-4.7567,-4.8105,-4.8759,-4.9298,-4.9721,-5.0144,-5.051,-5.0683,-5.0682,-5.0623,-5.0584,-5.0542,-5.0521,-5.05,-5.0481,-5.05,-5.0542,-5.0507,-5.0067,-4.8779,-4.826,-4.7586,-4.6319,-4.5687,-4.5375,-4.533,-4.5292,-4.5256,-4.5213,-4.5148,-4.5084,-4.5061,-4.4985,-4.4878,-4.4775,-4.4702,-4.453,-4.4311,-4.4119,-4.4003,-4.3841,-4.3734,-4.3667,-4.3634,-4.3631,-4.3612,-4.3631,-4.3584,-4.3532,-4.3532,-4.3532,-4.3513,-4.3479,-4.3479,-4.3479,-4.3479,-4.3479,-4.3479,-4.3479,-4.3479,-4.3479,-4.3479,-4.3479,-4.3479,-4.3479,-4.3479,-4.3479,-4.3479,-4.3479,-4.3479,-4.3479,-4.3406,-4.302,-4.2892,-4.2635,-4.2837,-4.2983,-4.3075,-4.3204,-4.3406,-4.3479,-4.3442,-4.3424,-4.3461,-4.3479,-4.3479,-4.3479,-4.3479,-4.3479,-4.3479,-4.3479,-4.3479,-4.3479,-4.3479,-4.3479,-4.3479,-4.5586,-4.5586,-4.5586,-4.5586,-4.5586,-4.5586,-4.5586,-4.5586,-4.5586,-4.5586,-4.5586,-4.5624,-4.5586,-4.5663,-4.5682,-4.5682,-4.574,-4.6124,-4.6374,-4.6586,-4.7259,-4.8048,-4.8663,-4.9298,-4.9952,-5.0394,-5.0663,-5.0623,-5.0582,-5.05,-5.0457,-5.0416,-5.0393,-5.0371,-5.0348,-5.0287,-5.0106,-4.9539,-4.8757,-4.8164,-4.7281,-4.6283,-4.5607,-4.5281,-4.5228,-4.5166,-4.5103,-4.5033,-4.4943,-4.4895,-4.4895,-4.4814,-4.4694,-4.4644,-4.4471,-4.4285,-4.4135,-4.3966,-4.3815,-4.3689,-4.36,-4.3548,-4.3532,-4.3548,-4.3563,-4.3548,-4.3513,-4.3479,-4.3479,-4.3479,-4.3479,-4.3479,-4.3479,-4.3479,-4.3479,-4.3479,-4.3479,-4.3479,-4.3479,-4.3479,-4.3479,-4.3479,-4.3479,-4.3479,-4.3479,-4.3479,-4.3479,-4.3479,-4.3479,-4.3479,-4.3479,-4.3314,-4.3314,-4.3296,-4.3479,-4.3479,-4.3424,-4.3369,-4.3424,-4.3479,-4.3479,-4.3479,-4.3479,-4.3479,-4.3479,-4.3479,-4.3479,-4.3479,-4.3479,-4.3479,-4.3479,-4.3479,-4.3479,-4.3479,-4.3479,-4.5586,-4.5586,-4.5586,-4.5586,-4.5586,-4.5586,-4.5586,-4.5586,-4.5586,-4.5586,-4.5586,-4.5586,-4.5586,-4.5586,-4.5586,-4.5586,-4.5605,-4.5759,-4.5836,-4.5643,-4.6394,-4.724,-4.8067,-4.8875,-4.951,-5.0202,-5.0604,-5.0582,-5.0521,-5.0435,-5.0325,-5.0278,-5.0212,-5.0163,-5.0114,-4.9885,-4.9553,-4.9014,-4.8223,-4.7503,-4.7141,-4.6222,-4.5223,-4.5099,-4.5022,-4.4959,-4.4927,-4.4846,-4.477,-4.4738,-4.4667,-4.4576,-4.4467,-4.442,-4.4233,-4.4079,-4.3976,-4.383,-4.3692,-4.3584,-4.3566,-4.3513,-4.3479,-4.3513,-4.3513,-4.3513,-4.3479,-4.3479,-4.3479,-4.3479,-4.3479,-4.3479,-4.3479,-4.3479,-4.3479,-4.3479,-4.3479,-4.3479,-4.3479,-4.3479,-4.3479,-4.3479,-4.3479,-4.3479,-4.3479,-4.3479,-4.3479,-4.3479,-4.3479,-4.3479,-4.3479,-4.3479,-4.3479,-4.3479,-4.3479,-4.3479,-4.3479,-4.3479,-4.3479,-4.3479,-4.3479,-4.3479,-4.3479,-4.3479,-4.3479,-4.3479,-4.3479,-4.3479,-4.3479,-4.3479,-4.3479,-4.3479,-4.3479,-4.3479,-4.3479,-4.5586,-4.5586,-4.5586,-4.5586,-4.5586,-4.5586,-4.5586,-4.5586,-4.5586,-4.5586,-4.5586,-4.5586,-4.5586,-4.5586,-4.5586,-4.5586,-4.5586,-4.5586,-4.5586,-4.5605,-4.5951,-4.6567,-4.7221,-4.8086,-4.8894,-4.9605,-5.0102,-5.05,-5.0371,-5.0259,-5.0163,-5.0082,-5.0038,-4.9986,-4.9762,-4.9402,-4.8865,-4.8308,-4.7414,-4.6771,-4.6421,-4.5802,-4.5004,-4.4903,-4.481,-4.4737,-4.4697,-4.4632,-4.4551,-4.4515,-4.4468,-4.4336,-4.4148,-4.4128,-4.4005,-4.3868,-4.3753,-4.3674,-4.364,-4.355,-4.3532,-4.3513,-4.3479,-4.3479,-4.3479,-4.3479,-4.3479,-4.3479,-4.3479,-4.3479,-4.3479,-4.3479,-4.3479,-4.3479,-4.3479,-4.3479,-4.3479,-4.3479,-4.3479,-4.3479,-4.3479,-4.3479,-4.3479,-4.3479,-4.3479,-4.3479,-4.3479,-4.3479,-4.3479,-4.3479,-4.3479,-4.3479,-4.3479,-4.3479,-4.3479,-4.3479,-4.3479,-4.3479,-4.3479,-4.3479,-4.3479,-4.3479,-4.3479,-4.3479,-4.3479,-4.3479,-4.3479,-4.3479,-4.3479,-4.3479,-4.3479,-4.3479,-4.3479,-4.3479,-4.3479,-4.5586,-4.5586,-4.5586,-4.5586,-4.5586,-4.5586,-4.5586,-4.5586,-4.5586,-4.5586,-4.5586,-4.5586,-4.5586,-4.5586,-4.5586,-4.5586,-4.5586,-4.5586,-4.5586,-4.5586,-4.5682,-4.622,-4.6817,-4.7395,-4.8356,-4.9162,-4.998,-5.0371,-5.0188,-5.0089,-5.0005,-4.9887,-4.9833,-4.9616,-4.9286,-4.868,-4.8037,-4.7326,-4.6403,-4.5931,-4.5622,-4.5076,-4.4821,-4.4718,-4.4618,-4.4552,-4.4524,-4.4458,-4.4354,-4.4269,-4.4213,-4.4117,-4.3979,-4.3929,-4.3837,-4.3716,-4.3652,-4.3571,-4.3534,-4.3516,-4.3479,-4.3479,-4.3479,-4.3479,-4.3479,-4.3479,-4.3479,-4.3479,-4.3479,-4.3479,-4.3479,-4.3479,-4.3479,-4.3479,-4.3479,-4.3479,-4.3479,-4.3479,-4.3479,-4.3479,-4.3479,-4.3479,-4.3479,-4.3479,-4.3479,-4.3479,-4.3479,-4.3479,-4.3479,-4.3479,-4.3479,-4.3479,-4.3479,-4.3479,-4.3479,-4.3479,-4.3479,-4.3479,-4.3479,-4.3479,-4.3479,-4.3479,-4.3479,-4.3479,-4.3479,-4.3479,-4.3479,-4.3479,-4.3479,-4.3479,-4.3479,-4.3479,-4.3479,-4.3479,-4.3479,-4.547,-4.5566,-4.5586,-4.5586,-4.5586,-4.5586,-4.5586,-4.5586,-4.5586,-4.5586,-4.5586,-4.5586,-4.5586,-4.5586,-4.5586,-4.5586,-4.5586,-4.5586,-4.5586,-4.5586,-4.5586,-4.5951,-4.6338,-4.6896,-4.7952,-4.8869,-4.9682,-4.9959,-5.0012,-4.9925,-4.9824,-4.9655,-4.9372,-4.9031,-4.8409,-4.7881,-4.725,-4.6346,-4.5575,-4.5143,-4.4812,-4.4535,-4.4578,-4.4552,-4.4453,-4.4341,-4.4333,-4.4285,-4.4177,-4.4091,-4.3967,-4.3869,-4.3831,-4.3786,-4.3689,-4.3621,-4.3584,-4.3534,-4.3516,-4.3497,-4.3479,-4.3479,-4.3479,-4.3479,-4.3479,-4.3479,-4.3479,-4.3479,-4.3479,-4.3479,-4.3479,-4.3479,-4.3479,-4.3479,-4.3479,-4.3479,-4.3479,-4.3479,-4.3479,-4.3479,-4.3479,-4.3479,-4.3479,-4.3479,-4.3479,-4.3479,-4.3479,-4.3479,-4.3479,-4.3479,-4.3479,-4.3479,-4.3479,-4.3479,-4.3479,-4.3479,-4.3479,-4.3479,-4.3479,-4.3479,-4.3479,-4.3479,-4.3479,-4.3479,-4.3479,-4.3479,-4.3479,-4.3479,-4.3479,-4.3479,-4.3479,-4.3479,-4.3479,-4.3479,-4.3479,-4.4972,-4.5586,-4.5586,-4.5586,-4.5586,-4.5586,-4.5586,-4.5586,-4.5586,-4.5586,-4.5586,-4.5586,-4.5586,-4.5586,-4.5586,-4.5586,-4.5586,-4.5586,-4.5586,-4.5586,-4.5586,-4.5703,-4.5993,-4.659,-4.768,-4.8496,-4.909,-4.9384,-4.9519,-4.958,-4.9294,-4.866,-4.8457,-4.7927,-4.7061,-4.6574,-4.6031,-4.5338,-4.4934,-4.4501,-4.4512,-4.4364,-4.4402,-4.4311,-4.4183,-4.4103,-4.4061,-4.3947,-4.3883,-4.3851,-4.3846,-4.374,-4.3693,-4.3652,-4.3621,-4.3552,-4.3516,-4.3516,-4.3479,-4.3479,-4.3479,-4.3479,-4.3479,-4.3479,-4.3479,-4.3479,-4.3479,-4.3479,-4.3479,-4.3479,-4.3479,-4.3479,-4.3479,-4.3479,-4.3479,-4.3479,-4.3479,-4.3479,-4.3479,-4.3479,-4.3479,-4.3479,-4.3479,-4.3479,-4.3479,-4.3479,-4.3479,-4.3479,-4.3479,-4.3479,-4.3479,-4.3479,-4.3479,-4.3479,-4.3479,-4.3479,-4.3479,-4.3479,-4.3479,-4.3479,-4.3479,-4.3479,-4.3479,-4.3479,-4.3479,-4.3479,-4.3479,-4.3479,-4.3479,-4.3479,-4.3479,-4.3479,-4.3479,-4.3479,-4.3479]}]]